<?xml version="1.0" encoding="UTF-8" standalone="no" ?>
<gpx xmlns="http://www.topografix.com/GPX/1/1" xmlns:xsi="http://www.w3.org/2001/XMLSchema-instance" xsi:schemaLocation="http://www.topografix.com/GPX/1/1 http://www.topografix.com/GPX/1/1/gpx.xsd" version="1.1" creator="VisuGPX - https://www.visugpx.com">
  <metadata>
    <name>Pranles 101019 DEB N4</name>
    <desc><![CDATA[File with points/tracks from Locus Map/3.40.2]]></desc>
  </metadata>
  <trk>
    <name><![CDATA[2019-10-10 09:19:58]]></name>
    <trkseg>
      <trkpt lat="44.77013" lon="4.57161">
        <ele>593.61</ele>
        <time>2019-10-10T07:20:05.000Z</time>
      </trkpt>
      <trkpt lat="44.77006" lon="4.57141">
        <ele>593.85</ele>
        <time>2019-10-10T07:20:15.000Z</time>
      </trkpt>
      <trkpt lat="44.77007" lon="4.5712">
        <ele>594.3</ele>
        <time>2019-10-10T07:20:25.000Z</time>
      </trkpt>
      <trkpt lat="44.77007" lon="4.57104">
        <ele>594.53</ele>
        <time>2019-10-10T07:20:35.000Z</time>
      </trkpt>
      <trkpt lat="44.7701" lon="4.57086">
        <ele>594.95</ele>
        <time>2019-10-10T07:20:45.000Z</time>
      </trkpt>
      <trkpt lat="44.7701" lon="4.57069">
        <ele>594.97</ele>
        <time>2019-10-10T07:20:55.000Z</time>
      </trkpt>
      <trkpt lat="44.77011" lon="4.5705">
        <ele>595</ele>
        <time>2019-10-10T07:21:05.000Z</time>
      </trkpt>
      <trkpt lat="44.7701" lon="4.57031">
        <ele>594.71</ele>
        <time>2019-10-10T07:21:15.000Z</time>
      </trkpt>
      <trkpt lat="44.7701" lon="4.57014">
        <ele>594.47</ele>
        <time>2019-10-10T07:21:25.000Z</time>
      </trkpt>
      <trkpt lat="44.77009" lon="4.56997">
        <ele>594.11</ele>
        <time>2019-10-10T07:21:35.000Z</time>
      </trkpt>
      <trkpt lat="44.77006" lon="4.5698">
        <ele>593.58</ele>
        <time>2019-10-10T07:21:45.000Z</time>
      </trkpt>
      <trkpt lat="44.77006" lon="4.56959">
        <ele>593.19</ele>
        <time>2019-10-10T07:21:55.000Z</time>
      </trkpt>
      <trkpt lat="44.77004" lon="4.56942">
        <ele>592.71</ele>
        <time>2019-10-10T07:22:05.000Z</time>
      </trkpt>
      <trkpt lat="44.77003" lon="4.56924">
        <ele>592.45</ele>
        <time>2019-10-10T07:22:15.000Z</time>
      </trkpt>
      <trkpt lat="44.77002" lon="4.56905">
        <ele>592.36</ele>
        <time>2019-10-10T07:22:25.000Z</time>
      </trkpt>
      <trkpt lat="44.77003" lon="4.56888">
        <ele>592.61</ele>
        <time>2019-10-10T07:22:35.000Z</time>
      </trkpt>
      <trkpt lat="44.77001" lon="4.56869">
        <ele>592.58</ele>
        <time>2019-10-10T07:22:45.000Z</time>
      </trkpt>
      <trkpt lat="44.77001" lon="4.56854">
        <ele>592.84</ele>
        <time>2019-10-10T07:22:55.000Z</time>
      </trkpt>
      <trkpt lat="44.77001" lon="4.56838">
        <ele>593.09</ele>
        <time>2019-10-10T07:23:05.000Z</time>
      </trkpt>
      <trkpt lat="44.77" lon="4.56817">
        <ele>593.19</ele>
        <time>2019-10-10T07:23:15.000Z</time>
      </trkpt>
      <trkpt lat="44.76999" lon="4.56798">
        <ele>593.48</ele>
        <time>2019-10-10T07:23:25.000Z</time>
      </trkpt>
      <trkpt lat="44.76998" lon="4.56779">
        <ele>593.61</ele>
        <time>2019-10-10T07:23:35.000Z</time>
      </trkpt>
      <trkpt lat="44.76996" lon="4.56759">
        <ele>593.55</ele>
        <time>2019-10-10T07:23:45.000Z</time>
      </trkpt>
      <trkpt lat="44.77004" lon="4.56745">
        <ele>594.4</ele>
        <time>2019-10-10T07:23:55.000Z</time>
      </trkpt>
      <trkpt lat="44.77014" lon="4.56742">
        <ele>595.55</ele>
        <time>2019-10-10T07:24:05.000Z</time>
      </trkpt>
      <trkpt lat="44.77024" lon="4.56739">
        <ele>596.65</ele>
        <time>2019-10-10T07:24:15.000Z</time>
      </trkpt>
      <trkpt lat="44.77035" lon="4.56738">
        <ele>597.8</ele>
        <time>2019-10-10T07:24:25.000Z</time>
      </trkpt>
      <trkpt lat="44.77047" lon="4.56739">
        <ele>599.23</ele>
        <time>2019-10-10T07:24:35.000Z</time>
      </trkpt>
      <trkpt lat="44.77059" lon="4.56742">
        <ele>600.62</ele>
        <time>2019-10-10T07:24:45.000Z</time>
      </trkpt>
      <trkpt lat="44.77072" lon="4.56741">
        <ele>602.3</ele>
        <time>2019-10-10T07:24:55.000Z</time>
      </trkpt>
      <trkpt lat="44.77086" lon="4.56744">
        <ele>604.24</ele>
        <time>2019-10-10T07:25:05.000Z</time>
      </trkpt>
      <trkpt lat="44.77098" lon="4.56745">
        <ele>606.02</ele>
        <time>2019-10-10T07:25:15.000Z</time>
      </trkpt>
      <trkpt lat="44.7711" lon="4.56746">
        <ele>607.85</ele>
        <time>2019-10-10T07:25:25.000Z</time>
      </trkpt>
      <trkpt lat="44.77122" lon="4.56748">
        <ele>609.86</ele>
        <time>2019-10-10T07:25:35.000Z</time>
      </trkpt>
      <trkpt lat="44.77134" lon="4.5675">
        <ele>612.01</ele>
        <time>2019-10-10T07:25:45.000Z</time>
      </trkpt>
      <trkpt lat="44.77147" lon="4.56749">
        <ele>614.11</ele>
        <time>2019-10-10T07:25:55.000Z</time>
      </trkpt>
      <trkpt lat="44.77159" lon="4.56743">
        <ele>615.95</ele>
        <time>2019-10-10T07:26:05.000Z</time>
      </trkpt>
      <trkpt lat="44.77171" lon="4.56739">
        <ele>617.88</ele>
        <time>2019-10-10T07:26:15.000Z</time>
      </trkpt>
      <trkpt lat="44.77182" lon="4.56734">
        <ele>619.57</ele>
        <time>2019-10-10T07:26:25.000Z</time>
      </trkpt>
      <trkpt lat="44.77192" lon="4.56731">
        <ele>621.35</ele>
        <time>2019-10-10T07:26:35.000Z</time>
      </trkpt>
      <trkpt lat="44.77204" lon="4.56726">
        <ele>623.14</ele>
        <time>2019-10-10T07:26:45.000Z</time>
      </trkpt>
      <trkpt lat="44.77214" lon="4.56716">
        <ele>623.95</ele>
        <time>2019-10-10T07:26:55.000Z</time>
      </trkpt>
      <trkpt lat="44.77225" lon="4.56705">
        <ele>624.68</ele>
        <time>2019-10-10T07:27:05.000Z</time>
      </trkpt>
      <trkpt lat="44.77236" lon="4.56694">
        <ele>625.68</ele>
        <time>2019-10-10T07:27:15.000Z</time>
      </trkpt>
      <trkpt lat="44.77246" lon="4.56684">
        <ele>626.31</ele>
        <time>2019-10-10T07:27:25.000Z</time>
      </trkpt>
      <trkpt lat="44.77256" lon="4.56675">
        <ele>627.61</ele>
        <time>2019-10-10T07:27:35.000Z</time>
      </trkpt>
      <trkpt lat="44.77264" lon="4.56663">
        <ele>628.13</ele>
        <time>2019-10-10T07:27:45.000Z</time>
      </trkpt>
      <trkpt lat="44.77274" lon="4.56651">
        <ele>629.24</ele>
        <time>2019-10-10T07:27:55.000Z</time>
      </trkpt>
      <trkpt lat="44.7728" lon="4.56637">
        <ele>629.07</ele>
        <time>2019-10-10T07:28:05.000Z</time>
      </trkpt>
      <trkpt lat="44.77289" lon="4.56624">
        <ele>629.58</ele>
        <time>2019-10-10T07:28:15.000Z</time>
      </trkpt>
      <trkpt lat="44.77297" lon="4.5661">
        <ele>629.72</ele>
        <time>2019-10-10T07:28:25.000Z</time>
      </trkpt>
      <trkpt lat="44.77304" lon="4.56595">
        <ele>629.5</ele>
        <time>2019-10-10T07:28:35.000Z</time>
      </trkpt>
      <trkpt lat="44.77312" lon="4.56581">
        <ele>629.58</ele>
        <time>2019-10-10T07:28:45.000Z</time>
      </trkpt>
      <trkpt lat="44.77321" lon="4.5657">
        <ele>630.69</ele>
        <time>2019-10-10T07:28:55.000Z</time>
      </trkpt>
      <trkpt lat="44.77329" lon="4.56558">
        <ele>631.05</ele>
        <time>2019-10-10T07:29:05.000Z</time>
      </trkpt>
      <trkpt lat="44.77339" lon="4.56548">
        <ele>632.23</ele>
        <time>2019-10-10T07:29:15.000Z</time>
      </trkpt>
      <trkpt lat="44.77348" lon="4.56535">
        <ele>633.01</ele>
        <time>2019-10-10T07:29:25.000Z</time>
      </trkpt>
      <trkpt lat="44.77359" lon="4.56524">
        <ele>634.23</ele>
        <time>2019-10-10T07:29:35.000Z</time>
      </trkpt>
      <trkpt lat="44.77371" lon="4.56511">
        <ele>635.17</ele>
        <time>2019-10-10T07:29:45.000Z</time>
      </trkpt>
      <trkpt lat="44.77381" lon="4.56501">
        <ele>636.22</ele>
        <time>2019-10-10T07:29:55.000Z</time>
      </trkpt>
      <trkpt lat="44.77392" lon="4.56491">
        <ele>637.27</ele>
        <time>2019-10-10T07:30:05.000Z</time>
      </trkpt>
      <trkpt lat="44.77402" lon="4.56482">
        <ele>638.27</ele>
        <time>2019-10-10T07:30:15.000Z</time>
      </trkpt>
      <trkpt lat="44.77411" lon="4.56471">
        <ele>638.73</ele>
        <time>2019-10-10T07:30:25.000Z</time>
      </trkpt>
      <trkpt lat="44.77422" lon="4.56461">
        <ele>639.31</ele>
        <time>2019-10-10T07:30:35.000Z</time>
      </trkpt>
      <trkpt lat="44.77432" lon="4.56447">
        <ele>639.28</ele>
        <time>2019-10-10T07:30:45.000Z</time>
      </trkpt>
      <trkpt lat="44.77442" lon="4.56437">
        <ele>639.78</ele>
        <time>2019-10-10T07:30:55.000Z</time>
      </trkpt>
      <trkpt lat="44.77453" lon="4.56437">
        <ele>641.93</ele>
        <time>2019-10-10T07:31:05.000Z</time>
      </trkpt>
      <trkpt lat="44.77465" lon="4.56432">
        <ele>643.37</ele>
        <time>2019-10-10T07:31:15.000Z</time>
      </trkpt>
      <trkpt lat="44.77476" lon="4.56424">
        <ele>644.27</ele>
        <time>2019-10-10T07:31:25.000Z</time>
      </trkpt>
      <trkpt lat="44.77486" lon="4.56417">
        <ele>645.07</ele>
        <time>2019-10-10T07:31:35.000Z</time>
      </trkpt>
      <trkpt lat="44.77498" lon="4.5641">
        <ele>646.42</ele>
        <time>2019-10-10T07:31:45.000Z</time>
      </trkpt>
      <trkpt lat="44.77509" lon="4.56403">
        <ele>647.51</ele>
        <time>2019-10-10T07:31:55.000Z</time>
      </trkpt>
      <trkpt lat="44.77518" lon="4.56398">
        <ele>648.93</ele>
        <time>2019-10-10T07:32:05.000Z</time>
      </trkpt>
      <trkpt lat="44.77528" lon="4.56391">
        <ele>650.32</ele>
        <time>2019-10-10T07:32:15.000Z</time>
      </trkpt>
      <trkpt lat="44.77537" lon="4.56386">
        <ele>651.64</ele>
        <time>2019-10-10T07:32:25.000Z</time>
      </trkpt>
      <trkpt lat="44.77547" lon="4.56372">
        <ele>651.87</ele>
        <time>2019-10-10T07:32:35.000Z</time>
      </trkpt>
      <trkpt lat="44.77559" lon="4.56359">
        <ele>653.16</ele>
        <time>2019-10-10T07:32:45.000Z</time>
      </trkpt>
      <trkpt lat="44.77569" lon="4.56344">
        <ele>653.42</ele>
        <time>2019-10-10T07:32:55.000Z</time>
      </trkpt>
      <trkpt lat="44.77577" lon="4.56331">
        <ele>653.91</ele>
        <time>2019-10-10T07:33:05.000Z</time>
      </trkpt>
      <trkpt lat="44.77583" lon="4.56319">
        <ele>654.18</ele>
        <time>2019-10-10T07:33:15.000Z</time>
      </trkpt>
      <trkpt lat="44.77591" lon="4.56304">
        <ele>654.69</ele>
        <time>2019-10-10T07:33:25.000Z</time>
      </trkpt>
      <trkpt lat="44.77598" lon="4.56293">
        <ele>655.57</ele>
        <time>2019-10-10T07:33:35.000Z</time>
      </trkpt>
      <trkpt lat="44.77603" lon="4.56279">
        <ele>655.57</ele>
        <time>2019-10-10T07:33:45.000Z</time>
      </trkpt>
      <trkpt lat="44.7761" lon="4.56266">
        <ele>656.11</ele>
        <time>2019-10-10T07:33:55.000Z</time>
      </trkpt>
      <trkpt lat="44.77615" lon="4.56261">
        <ele>657.12</ele>
        <time>2019-10-10T07:34:05.000Z</time>
      </trkpt>
      <trkpt lat="44.77618" lon="4.56254">
        <ele>657.02</ele>
        <time>2019-10-10T07:34:17.000Z</time>
      </trkpt>
      <trkpt lat="44.77623" lon="4.56248">
        <ele>657.65</ele>
        <time>2019-10-10T07:34:27.000Z</time>
      </trkpt>
      <trkpt lat="44.7763" lon="4.56243">
        <ele>658.84</ele>
        <time>2019-10-10T07:34:37.000Z</time>
      </trkpt>
      <trkpt lat="44.77638" lon="4.56238">
        <ele>660.36</ele>
        <time>2019-10-10T07:34:47.000Z</time>
      </trkpt>
      <trkpt lat="44.77645" lon="4.56236">
        <ele>662.19</ele>
        <time>2019-10-10T07:34:57.000Z</time>
      </trkpt>
      <trkpt lat="44.77654" lon="4.56231">
        <ele>663.69</ele>
        <time>2019-10-10T07:35:07.000Z</time>
      </trkpt>
      <trkpt lat="44.77662" lon="4.56225">
        <ele>664.96</ele>
        <time>2019-10-10T07:35:17.000Z</time>
      </trkpt>
      <trkpt lat="44.77672" lon="4.56222">
        <ele>667.09</ele>
        <time>2019-10-10T07:35:27.000Z</time>
      </trkpt>
      <trkpt lat="44.77682" lon="4.56215">
        <ele>668.59</ele>
        <time>2019-10-10T07:35:37.000Z</time>
      </trkpt>
      <trkpt lat="44.77691" lon="4.56214">
        <ele>670.82</ele>
        <time>2019-10-10T07:35:47.000Z</time>
      </trkpt>
      <trkpt lat="44.77703" lon="4.56218">
        <ele>674.33</ele>
        <time>2019-10-10T07:35:57.000Z</time>
      </trkpt>
      <trkpt lat="44.77714" lon="4.56218">
        <ele>676.77</ele>
        <time>2019-10-10T07:36:07.000Z</time>
      </trkpt>
      <trkpt lat="44.77721" lon="4.56206">
        <ele>676.72</ele>
        <time>2019-10-10T07:36:17.000Z</time>
      </trkpt>
      <trkpt lat="44.77728" lon="4.56193">
        <ele>676.68</ele>
        <time>2019-10-10T07:36:27.000Z</time>
      </trkpt>
      <trkpt lat="44.77737" lon="4.56184">
        <ele>677.72</ele>
        <time>2019-10-10T07:36:37.000Z</time>
      </trkpt>
      <trkpt lat="44.77748" lon="4.56179">
        <ele>680.01</ele>
        <time>2019-10-10T07:36:47.000Z</time>
      </trkpt>
      <trkpt lat="44.77759" lon="4.56174">
        <ele>682.18</ele>
        <time>2019-10-10T07:36:57.000Z</time>
      </trkpt>
      <trkpt lat="44.77766" lon="4.56168">
        <ele>683.35</ele>
        <time>2019-10-10T07:37:07.000Z</time>
      </trkpt>
      <trkpt lat="44.77776" lon="4.56161">
        <ele>685.34</ele>
        <time>2019-10-10T07:37:17.000Z</time>
      </trkpt>
      <trkpt lat="44.77783" lon="4.56154">
        <ele>686.74</ele>
        <time>2019-10-10T07:37:27.000Z</time>
      </trkpt>
      <trkpt lat="44.77793" lon="4.5615">
        <ele>689.04</ele>
        <time>2019-10-10T07:37:37.000Z</time>
      </trkpt>
      <trkpt lat="44.77801" lon="4.5615">
        <ele>691.41</ele>
        <time>2019-10-10T07:37:47.000Z</time>
      </trkpt>
      <trkpt lat="44.7781" lon="4.5615">
        <ele>693.95</ele>
        <time>2019-10-10T07:37:57.000Z</time>
      </trkpt>
      <trkpt lat="44.77818" lon="4.5615">
        <ele>696.14</ele>
        <time>2019-10-10T07:38:07.000Z</time>
      </trkpt>
      <trkpt lat="44.77828" lon="4.56146">
        <ele>698.67</ele>
        <time>2019-10-10T07:38:17.000Z</time>
      </trkpt>
      <trkpt lat="44.77837" lon="4.56136">
        <ele>700.16</ele>
        <time>2019-10-10T07:38:27.000Z</time>
      </trkpt>
      <trkpt lat="44.77843" lon="4.56124">
        <ele>701.19</ele>
        <time>2019-10-10T07:38:37.000Z</time>
      </trkpt>
      <trkpt lat="44.77849" lon="4.56112">
        <ele>702.21</ele>
        <time>2019-10-10T07:38:47.000Z</time>
      </trkpt>
      <trkpt lat="44.77855" lon="4.56099">
        <ele>703.44</ele>
        <time>2019-10-10T07:38:57.000Z</time>
      </trkpt>
      <trkpt lat="44.77859" lon="4.56085">
        <ele>704.57</ele>
        <time>2019-10-10T07:39:07.000Z</time>
      </trkpt>
      <trkpt lat="44.77866" lon="4.56069">
        <ele>706.42</ele>
        <time>2019-10-10T07:39:17.000Z</time>
      </trkpt>
      <trkpt lat="44.7787" lon="4.56054">
        <ele>707.93</ele>
        <time>2019-10-10T07:39:27.000Z</time>
      </trkpt>
      <trkpt lat="44.77873" lon="4.56038">
        <ele>708.97</ele>
        <time>2019-10-10T07:39:37.000Z</time>
      </trkpt>
      <trkpt lat="44.77876" lon="4.56022">
        <ele>710.04</ele>
        <time>2019-10-10T07:39:47.000Z</time>
      </trkpt>
      <trkpt lat="44.77878" lon="4.56005">
        <ele>710.64</ele>
        <time>2019-10-10T07:39:57.000Z</time>
      </trkpt>
      <trkpt lat="44.7788" lon="4.55988">
        <ele>711.49</ele>
        <time>2019-10-10T07:40:07.000Z</time>
      </trkpt>
      <trkpt lat="44.77884" lon="4.55972">
        <ele>713.05</ele>
        <time>2019-10-10T07:40:17.000Z</time>
      </trkpt>
      <trkpt lat="44.77885" lon="4.55954">
        <ele>713</ele>
        <time>2019-10-10T07:40:27.000Z</time>
      </trkpt>
      <trkpt lat="44.77885" lon="4.55937">
        <ele>713.11</ele>
        <time>2019-10-10T07:40:37.000Z</time>
      </trkpt>
      <trkpt lat="44.77887" lon="4.55918">
        <ele>713.51</ele>
        <time>2019-10-10T07:40:47.000Z</time>
      </trkpt>
      <trkpt lat="44.77887" lon="4.55902">
        <ele>713.24</ele>
        <time>2019-10-10T07:40:57.000Z</time>
      </trkpt>
      <trkpt lat="44.77889" lon="4.55885">
        <ele>713.59</ele>
        <time>2019-10-10T07:41:07.000Z</time>
      </trkpt>
      <trkpt lat="44.77892" lon="4.55872">
        <ele>714.36</ele>
        <time>2019-10-10T07:41:17.000Z</time>
      </trkpt>
      <trkpt lat="44.77895" lon="4.55856">
        <ele>715.3</ele>
        <time>2019-10-10T07:41:27.000Z</time>
      </trkpt>
      <trkpt lat="44.77899" lon="4.5584">
        <ele>716.42</ele>
        <time>2019-10-10T07:41:37.000Z</time>
      </trkpt>
      <trkpt lat="44.77905" lon="4.55825">
        <ele>718.31</ele>
        <time>2019-10-10T07:41:47.000Z</time>
      </trkpt>
      <trkpt lat="44.7791" lon="4.5581">
        <ele>720.09</ele>
        <time>2019-10-10T07:41:57.000Z</time>
      </trkpt>
      <trkpt lat="44.77911" lon="4.55792">
        <ele>721.46</ele>
        <time>2019-10-10T07:42:07.000Z</time>
      </trkpt>
      <trkpt lat="44.7791" lon="4.55774">
        <ele>722.65</ele>
        <time>2019-10-10T07:42:17.000Z</time>
      </trkpt>
      <trkpt lat="44.77908" lon="4.55758">
        <ele>723.6</ele>
        <time>2019-10-10T07:42:27.000Z</time>
      </trkpt>
      <trkpt lat="44.77906" lon="4.55744">
        <ele>724.3</ele>
        <time>2019-10-10T07:42:37.000Z</time>
      </trkpt>
      <trkpt lat="44.77905" lon="4.5573">
        <ele>725.21</ele>
        <time>2019-10-10T07:42:47.000Z</time>
      </trkpt>
      <trkpt lat="44.77904" lon="4.55717">
        <ele>726.29</ele>
        <time>2019-10-10T07:42:57.000Z</time>
      </trkpt>
      <trkpt lat="44.77901" lon="4.5571">
        <ele>726.5</ele>
        <time>2019-10-10T07:43:08.000Z</time>
      </trkpt>
      <trkpt lat="44.77899" lon="4.55701">
        <ele>726.91</ele>
        <time>2019-10-10T07:43:18.000Z</time>
      </trkpt>
      <trkpt lat="44.77898" lon="4.55691">
        <ele>727.64</ele>
        <time>2019-10-10T07:43:28.000Z</time>
      </trkpt>
      <trkpt lat="44.77896" lon="4.55676">
        <ele>728.49</ele>
        <time>2019-10-10T07:43:38.000Z</time>
      </trkpt>
      <trkpt lat="44.77899" lon="4.55665">
        <ele>729.8</ele>
        <time>2019-10-10T07:43:48.000Z</time>
      </trkpt>
      <trkpt lat="44.77903" lon="4.55654">
        <ele>730.98</ele>
        <time>2019-10-10T07:43:58.000Z</time>
      </trkpt>
      <trkpt lat="44.77908" lon="4.55643">
        <ele>731.84</ele>
        <time>2019-10-10T07:44:08.000Z</time>
      </trkpt>
      <trkpt lat="44.77916" lon="4.55635">
        <ele>732.17</ele>
        <time>2019-10-10T07:44:18.000Z</time>
      </trkpt>
      <trkpt lat="44.77919" lon="4.55628">
        <ele>732.2</ele>
        <time>2019-10-10T07:44:38.000Z</time>
      </trkpt>
      <trkpt lat="44.77926" lon="4.5562">
        <ele>731.72</ele>
        <time>2019-10-10T07:44:48.000Z</time>
      </trkpt>
      <trkpt lat="44.77934" lon="4.55612">
        <ele>730.67</ele>
        <time>2019-10-10T07:44:58.000Z</time>
      </trkpt>
      <trkpt lat="44.77942" lon="4.556">
        <ele>729.04</ele>
        <time>2019-10-10T07:45:08.000Z</time>
      </trkpt>
      <trkpt lat="44.77949" lon="4.55589">
        <ele>727.48</ele>
        <time>2019-10-10T07:45:18.000Z</time>
      </trkpt>
      <trkpt lat="44.77952" lon="4.55575">
        <ele>726.27</ele>
        <time>2019-10-10T07:45:28.000Z</time>
      </trkpt>
      <trkpt lat="44.77953" lon="4.55566">
        <ele>725.8</ele>
        <time>2019-10-10T07:45:38.000Z</time>
      </trkpt>
      <trkpt lat="44.77952" lon="4.55549">
        <ele>725.51</ele>
        <time>2019-10-10T07:45:48.000Z</time>
      </trkpt>
      <trkpt lat="44.77952" lon="4.55531">
        <ele>725.14</ele>
        <time>2019-10-10T07:45:58.000Z</time>
      </trkpt>
      <trkpt lat="44.77952" lon="4.55518">
        <ele>724.71</ele>
        <time>2019-10-10T07:46:08.000Z</time>
      </trkpt>
      <trkpt lat="44.77951" lon="4.55504">
        <ele>724.32</ele>
        <time>2019-10-10T07:46:18.000Z</time>
      </trkpt>
      <trkpt lat="44.77951" lon="4.5549">
        <ele>724.02</ele>
        <time>2019-10-10T07:46:28.000Z</time>
      </trkpt>
      <trkpt lat="44.7795" lon="4.55479">
        <ele>723.91</ele>
        <time>2019-10-10T07:46:38.000Z</time>
      </trkpt>
      <trkpt lat="44.7795" lon="4.5547">
        <ele>723.65</ele>
        <time>2019-10-10T07:46:48.000Z</time>
      </trkpt>
      <trkpt lat="44.77951" lon="4.55457">
        <ele>723</ele>
        <time>2019-10-10T07:46:58.000Z</time>
      </trkpt>
      <trkpt lat="44.77954" lon="4.55441">
        <ele>721.37</ele>
        <time>2019-10-10T07:47:08.000Z</time>
      </trkpt>
      <trkpt lat="44.77958" lon="4.55428">
        <ele>719.76</ele>
        <time>2019-10-10T07:47:18.000Z</time>
      </trkpt>
      <trkpt lat="44.77963" lon="4.55411">
        <ele>717.41</ele>
        <time>2019-10-10T07:47:28.000Z</time>
      </trkpt>
      <trkpt lat="44.77967" lon="4.55392">
        <ele>715.08</ele>
        <time>2019-10-10T07:47:38.000Z</time>
      </trkpt>
      <trkpt lat="44.77972" lon="4.55375">
        <ele>712.87</ele>
        <time>2019-10-10T07:47:48.000Z</time>
      </trkpt>
      <trkpt lat="44.77976" lon="4.55358">
        <ele>710.69</ele>
        <time>2019-10-10T07:47:58.000Z</time>
      </trkpt>
      <trkpt lat="44.77979" lon="4.5534">
        <ele>708.7</ele>
        <time>2019-10-10T07:48:08.000Z</time>
      </trkpt>
      <trkpt lat="44.77982" lon="4.55322">
        <ele>706.85</ele>
        <time>2019-10-10T07:48:18.000Z</time>
      </trkpt>
      <trkpt lat="44.77986" lon="4.55307">
        <ele>704.77</ele>
        <time>2019-10-10T07:48:28.000Z</time>
      </trkpt>
      <trkpt lat="44.77987" lon="4.55289">
        <ele>703.32</ele>
        <time>2019-10-10T07:48:38.000Z</time>
      </trkpt>
      <trkpt lat="44.77988" lon="4.55273">
        <ele>701.76</ele>
        <time>2019-10-10T07:48:48.000Z</time>
      </trkpt>
      <trkpt lat="44.77988" lon="4.55258">
        <ele>700.71</ele>
        <time>2019-10-10T07:48:58.000Z</time>
      </trkpt>
      <trkpt lat="44.77989" lon="4.55241">
        <ele>699.08</ele>
        <time>2019-10-10T07:49:08.000Z</time>
      </trkpt>
      <trkpt lat="44.77991" lon="4.55224">
        <ele>697.16</ele>
        <time>2019-10-10T07:49:18.000Z</time>
      </trkpt>
      <trkpt lat="44.77993" lon="4.55208">
        <ele>695.1</ele>
        <time>2019-10-10T07:49:28.000Z</time>
      </trkpt>
      <trkpt lat="44.77994" lon="4.55189">
        <ele>693.18</ele>
        <time>2019-10-10T07:49:38.000Z</time>
      </trkpt>
      <trkpt lat="44.77994" lon="4.55171">
        <ele>691.31</ele>
        <time>2019-10-10T07:49:48.000Z</time>
      </trkpt>
      <trkpt lat="44.77997" lon="4.55154">
        <ele>689.05</ele>
        <time>2019-10-10T07:49:58.000Z</time>
      </trkpt>
      <trkpt lat="44.78" lon="4.55137">
        <ele>687.33</ele>
        <time>2019-10-10T07:50:08.000Z</time>
      </trkpt>
      <trkpt lat="44.78001" lon="4.55118">
        <ele>685.95</ele>
        <time>2019-10-10T07:50:18.000Z</time>
      </trkpt>
      <trkpt lat="44.77999" lon="4.55101">
        <ele>684.67</ele>
        <time>2019-10-10T07:50:28.000Z</time>
      </trkpt>
      <trkpt lat="44.7799" lon="4.55088">
        <ele>684.49</ele>
        <time>2019-10-10T07:50:38.000Z</time>
      </trkpt>
      <trkpt lat="44.77979" lon="4.55079">
        <ele>683.98</ele>
        <time>2019-10-10T07:50:48.000Z</time>
      </trkpt>
      <trkpt lat="44.77968" lon="4.55073">
        <ele>683.32</ele>
        <time>2019-10-10T07:50:58.000Z</time>
      </trkpt>
      <trkpt lat="44.77956" lon="4.55067">
        <ele>681.98</ele>
        <time>2019-10-10T07:51:08.000Z</time>
      </trkpt>
      <trkpt lat="44.77945" lon="4.5506">
        <ele>680.62</ele>
        <time>2019-10-10T07:51:18.000Z</time>
      </trkpt>
      <trkpt lat="44.77935" lon="4.55057">
        <ele>680.74</ele>
        <time>2019-10-10T07:51:28.000Z</time>
      </trkpt>
      <trkpt lat="44.77924" lon="4.55054">
        <ele>681.12</ele>
        <time>2019-10-10T07:51:38.000Z</time>
      </trkpt>
      <trkpt lat="44.77911" lon="4.55049">
        <ele>682.2</ele>
        <time>2019-10-10T07:51:48.000Z</time>
      </trkpt>
      <trkpt lat="44.77902" lon="4.55043">
        <ele>682.57</ele>
        <time>2019-10-10T07:51:58.000Z</time>
      </trkpt>
      <trkpt lat="44.77894" lon="4.55037">
        <ele>682.78</ele>
        <time>2019-10-10T07:52:08.000Z</time>
      </trkpt>
      <trkpt lat="44.77883" lon="4.55021">
        <ele>681.46</ele>
        <time>2019-10-10T07:52:18.000Z</time>
      </trkpt>
      <trkpt lat="44.77874" lon="4.55006">
        <ele>680.25</ele>
        <time>2019-10-10T07:52:28.000Z</time>
      </trkpt>
      <trkpt lat="44.7787" lon="4.5499">
        <ele>678.02</ele>
        <time>2019-10-10T07:52:38.000Z</time>
      </trkpt>
      <trkpt lat="44.77867" lon="4.54974">
        <ele>675.18</ele>
        <time>2019-10-10T07:52:48.000Z</time>
      </trkpt>
      <trkpt lat="44.77866" lon="4.54957">
        <ele>671.45</ele>
        <time>2019-10-10T07:52:58.000Z</time>
      </trkpt>
      <trkpt lat="44.77863" lon="4.54942">
        <ele>669.56</ele>
        <time>2019-10-10T07:53:08.000Z</time>
      </trkpt>
      <trkpt lat="44.77865" lon="4.54927">
        <ele>665.29</ele>
        <time>2019-10-10T07:53:18.000Z</time>
      </trkpt>
      <trkpt lat="44.77861" lon="4.54921">
        <ele>665.72</ele>
        <time>2019-10-10T07:54:26.000Z</time>
      </trkpt>
      <trkpt lat="44.77861" lon="4.54913">
        <ele>663.83</ele>
        <time>2019-10-10T07:54:36.000Z</time>
      </trkpt>
      <trkpt lat="44.77861" lon="4.54905">
        <ele>661.66</ele>
        <time>2019-10-10T07:55:28.000Z</time>
      </trkpt>
      <trkpt lat="44.77858" lon="4.54898">
        <ele>661.12</ele>
        <time>2019-10-10T07:55:39.000Z</time>
      </trkpt>
      <trkpt lat="44.77851" lon="4.54888">
        <ele>661.2</ele>
        <time>2019-10-10T07:55:49.000Z</time>
      </trkpt>
      <trkpt lat="44.77844" lon="4.54881">
        <ele>662.23</ele>
        <time>2019-10-10T07:55:59.000Z</time>
      </trkpt>
      <trkpt lat="44.77836" lon="4.54876">
        <ele>663.8</ele>
        <time>2019-10-10T07:56:09.000Z</time>
      </trkpt>
      <trkpt lat="44.77826" lon="4.54865">
        <ele>663.4</ele>
        <time>2019-10-10T07:56:19.000Z</time>
      </trkpt>
      <trkpt lat="44.77831" lon="4.54862">
        <ele>660.86</ele>
        <time>2019-10-10T07:56:29.000Z</time>
      </trkpt>
      <trkpt lat="44.77841" lon="4.54862">
        <ele>657.7</ele>
        <time>2019-10-10T07:56:39.000Z</time>
      </trkpt>
      <trkpt lat="44.7785" lon="4.54862">
        <ele>654.27</ele>
        <time>2019-10-10T07:56:49.000Z</time>
      </trkpt>
      <trkpt lat="44.77861" lon="4.54863">
        <ele>650.45</ele>
        <time>2019-10-10T07:56:59.000Z</time>
      </trkpt>
      <trkpt lat="44.77868" lon="4.54876">
        <ele>651.16</ele>
        <time>2019-10-10T07:57:09.000Z</time>
      </trkpt>
      <trkpt lat="44.77875" lon="4.54892">
        <ele>652.04</ele>
        <time>2019-10-10T07:57:19.000Z</time>
      </trkpt>
      <trkpt lat="44.77879" lon="4.54906">
        <ele>653.25</ele>
        <time>2019-10-10T07:57:29.000Z</time>
      </trkpt>
      <trkpt lat="44.77888" lon="4.54922">
        <ele>652.8</ele>
        <time>2019-10-10T07:57:39.000Z</time>
      </trkpt>
      <trkpt lat="44.77895" lon="4.54936">
        <ele>653.67</ele>
        <time>2019-10-10T07:57:49.000Z</time>
      </trkpt>
      <trkpt lat="44.77903" lon="4.54948">
        <ele>653.14</ele>
        <time>2019-10-10T07:57:59.000Z</time>
      </trkpt>
      <trkpt lat="44.77913" lon="4.54959">
        <ele>652.25</ele>
        <time>2019-10-10T07:58:09.000Z</time>
      </trkpt>
      <trkpt lat="44.77926" lon="4.54964">
        <ele>649.59</ele>
        <time>2019-10-10T07:58:19.000Z</time>
      </trkpt>
      <trkpt lat="44.77933" lon="4.54967">
        <ele>648.27</ele>
        <time>2019-10-10T07:58:29.000Z</time>
      </trkpt>
      <trkpt lat="44.77944" lon="4.5497">
        <ele>645.87</ele>
        <time>2019-10-10T07:58:39.000Z</time>
      </trkpt>
      <trkpt lat="44.77957" lon="4.54975">
        <ele>644.06</ele>
        <time>2019-10-10T07:58:49.000Z</time>
      </trkpt>
      <trkpt lat="44.77968" lon="4.54977">
        <ele>642.3</ele>
        <time>2019-10-10T07:58:59.000Z</time>
      </trkpt>
      <trkpt lat="44.77981" lon="4.54975">
        <ele>638.59</ele>
        <time>2019-10-10T07:59:09.000Z</time>
      </trkpt>
      <trkpt lat="44.77993" lon="4.54978">
        <ele>637.31</ele>
        <time>2019-10-10T07:59:19.000Z</time>
      </trkpt>
      <trkpt lat="44.78007" lon="4.54983">
        <ele>637.56</ele>
        <time>2019-10-10T07:59:29.000Z</time>
      </trkpt>
      <trkpt lat="44.78018" lon="4.54985">
        <ele>637.26</ele>
        <time>2019-10-10T07:59:39.000Z</time>
      </trkpt>
      <trkpt lat="44.7803" lon="4.54985">
        <ele>636.77</ele>
        <time>2019-10-10T07:59:49.000Z</time>
      </trkpt>
      <trkpt lat="44.7804" lon="4.5498">
        <ele>634.35</ele>
        <time>2019-10-10T07:59:59.000Z</time>
      </trkpt>
      <trkpt lat="44.78053" lon="4.54971">
        <ele>631.04</ele>
        <time>2019-10-10T08:00:09.000Z</time>
      </trkpt>
      <trkpt lat="44.78061" lon="4.54958">
        <ele>626.73</ele>
        <time>2019-10-10T08:00:19.000Z</time>
      </trkpt>
      <trkpt lat="44.78071" lon="4.54946">
        <ele>622.6</ele>
        <time>2019-10-10T08:00:29.000Z</time>
      </trkpt>
      <trkpt lat="44.7808" lon="4.54935">
        <ele>619.08</ele>
        <time>2019-10-10T08:00:39.000Z</time>
      </trkpt>
      <trkpt lat="44.78088" lon="4.54924">
        <ele>615.43</ele>
        <time>2019-10-10T08:00:49.000Z</time>
      </trkpt>
      <trkpt lat="44.78095" lon="4.5491">
        <ele>610.93</ele>
        <time>2019-10-10T08:00:59.000Z</time>
      </trkpt>
      <trkpt lat="44.78104" lon="4.54896">
        <ele>606.53</ele>
        <time>2019-10-10T08:01:09.000Z</time>
      </trkpt>
      <trkpt lat="44.78115" lon="4.54885">
        <ele>603.68</ele>
        <time>2019-10-10T08:01:19.000Z</time>
      </trkpt>
      <trkpt lat="44.78126" lon="4.5488">
        <ele>602.74</ele>
        <time>2019-10-10T08:01:29.000Z</time>
      </trkpt>
      <trkpt lat="44.78136" lon="4.54876">
        <ele>602.28</ele>
        <time>2019-10-10T08:01:39.000Z</time>
      </trkpt>
      <trkpt lat="44.78144" lon="4.54869">
        <ele>600.93</ele>
        <time>2019-10-10T08:01:49.000Z</time>
      </trkpt>
      <trkpt lat="44.78138" lon="4.54868">
        <ele>600.14</ele>
        <time>2019-10-10T08:02:25.000Z</time>
      </trkpt>
      <trkpt lat="44.78127" lon="4.5487">
        <ele>599.66</ele>
        <time>2019-10-10T08:02:35.000Z</time>
      </trkpt>
      <trkpt lat="44.78116" lon="4.5487">
        <ele>598.71</ele>
        <time>2019-10-10T08:02:45.000Z</time>
      </trkpt>
      <trkpt lat="44.78105" lon="4.54873">
        <ele>598.55</ele>
        <time>2019-10-10T08:02:55.000Z</time>
      </trkpt>
      <trkpt lat="44.78097" lon="4.54877">
        <ele>599.13</ele>
        <time>2019-10-10T08:03:05.000Z</time>
      </trkpt>
      <trkpt lat="44.78088" lon="4.54885">
        <ele>601.53</ele>
        <time>2019-10-10T08:03:15.000Z</time>
      </trkpt>
      <trkpt lat="44.78078" lon="4.54896">
        <ele>605.19</ele>
        <time>2019-10-10T08:03:25.000Z</time>
      </trkpt>
      <trkpt lat="44.78069" lon="4.54903">
        <ele>607.42</ele>
        <time>2019-10-10T08:03:35.000Z</time>
      </trkpt>
      <trkpt lat="44.78063" lon="4.5491">
        <ele>609.4</ele>
        <time>2019-10-10T08:03:45.000Z</time>
      </trkpt>
      <trkpt lat="44.78052" lon="4.54916">
        <ele>610.58</ele>
        <time>2019-10-10T08:03:55.000Z</time>
      </trkpt>
      <trkpt lat="44.78041" lon="4.54918">
        <ele>610.18</ele>
        <time>2019-10-10T08:04:05.000Z</time>
      </trkpt>
      <trkpt lat="44.7803" lon="4.54918">
        <ele>609.53</ele>
        <time>2019-10-10T08:04:15.000Z</time>
      </trkpt>
      <trkpt lat="44.78022" lon="4.5492">
        <ele>610.04</ele>
        <time>2019-10-10T08:04:25.000Z</time>
      </trkpt>
      <trkpt lat="44.78013" lon="4.54915">
        <ele>608.24</ele>
        <time>2019-10-10T08:04:35.000Z</time>
      </trkpt>
      <trkpt lat="44.78001" lon="4.54914">
        <ele>608.84</ele>
        <time>2019-10-10T08:04:45.000Z</time>
      </trkpt>
      <trkpt lat="44.77991" lon="4.54908">
        <ele>608.54</ele>
        <time>2019-10-10T08:04:55.000Z</time>
      </trkpt>
      <trkpt lat="44.77977" lon="4.54901">
        <ele>609.97</ele>
        <time>2019-10-10T08:05:05.000Z</time>
      </trkpt>
      <trkpt lat="44.77962" lon="4.54896">
        <ele>613.92</ele>
        <time>2019-10-10T08:05:15.000Z</time>
      </trkpt>
      <trkpt lat="44.77957" lon="4.54892">
        <ele>614.97</ele>
        <time>2019-10-10T08:05:25.000Z</time>
      </trkpt>
      <trkpt lat="44.77951" lon="4.54892">
        <ele>617.43</ele>
        <time>2019-10-10T08:05:35.000Z</time>
      </trkpt>
      <trkpt lat="44.77946" lon="4.54888">
        <ele>618.7</ele>
        <time>2019-10-10T08:05:45.000Z</time>
      </trkpt>
      <trkpt lat="44.77942" lon="4.54877">
        <ele>617.66</ele>
        <time>2019-10-10T08:05:55.000Z</time>
      </trkpt>
      <trkpt lat="44.77935" lon="4.54864">
        <ele>618.17</ele>
        <time>2019-10-10T08:06:05.000Z</time>
      </trkpt>
      <trkpt lat="44.77926" lon="4.54854">
        <ele>620.26</ele>
        <time>2019-10-10T08:06:15.000Z</time>
      </trkpt>
      <trkpt lat="44.77918" lon="4.54848">
        <ele>622.67</ele>
        <time>2019-10-10T08:06:25.000Z</time>
      </trkpt>
      <trkpt lat="44.77915" lon="4.54837">
        <ele>621.65</ele>
        <time>2019-10-10T08:06:35.000Z</time>
      </trkpt>
      <trkpt lat="44.7791" lon="4.54823">
        <ele>620.53</ele>
        <time>2019-10-10T08:06:45.000Z</time>
      </trkpt>
      <trkpt lat="44.77905" lon="4.54812">
        <ele>619.86</ele>
        <time>2019-10-10T08:06:55.000Z</time>
      </trkpt>
      <trkpt lat="44.779" lon="4.54807">
        <ele>620.59</ele>
        <time>2019-10-10T08:07:05.000Z</time>
      </trkpt>
      <trkpt lat="44.77893" lon="4.54802">
        <ele>621.78</ele>
        <time>2019-10-10T08:07:15.000Z</time>
      </trkpt>
      <trkpt lat="44.77888" lon="4.548">
        <ele>623.09</ele>
        <time>2019-10-10T08:07:25.000Z</time>
      </trkpt>
      <trkpt lat="44.77878" lon="4.54802">
        <ele>626.42</ele>
        <time>2019-10-10T08:07:35.000Z</time>
      </trkpt>
      <trkpt lat="44.77872" lon="4.54801">
        <ele>628.32</ele>
        <time>2019-10-10T08:07:45.000Z</time>
      </trkpt>
      <trkpt lat="44.77862" lon="4.54799">
        <ele>630.5</ele>
        <time>2019-10-10T08:07:55.000Z</time>
      </trkpt>
      <trkpt lat="44.77851" lon="4.54794">
        <ele>631.69</ele>
        <time>2019-10-10T08:08:05.000Z</time>
      </trkpt>
      <trkpt lat="44.77838" lon="4.54787">
        <ele>632.74</ele>
        <time>2019-10-10T08:08:15.000Z</time>
      </trkpt>
      <trkpt lat="44.77824" lon="4.54781">
        <ele>633.95</ele>
        <time>2019-10-10T08:08:25.000Z</time>
      </trkpt>
      <trkpt lat="44.77816" lon="4.54774">
        <ele>633.42</ele>
        <time>2019-10-10T08:08:35.000Z</time>
      </trkpt>
      <trkpt lat="44.77809" lon="4.54767">
        <ele>632.47</ele>
        <time>2019-10-10T08:08:45.000Z</time>
      </trkpt>
      <trkpt lat="44.778" lon="4.54764">
        <ele>633.69</ele>
        <time>2019-10-10T08:08:55.000Z</time>
      </trkpt>
      <trkpt lat="44.77791" lon="4.5476">
        <ele>634.76</ele>
        <time>2019-10-10T08:09:05.000Z</time>
      </trkpt>
      <trkpt lat="44.77786" lon="4.54755">
        <ele>634.13</ele>
        <time>2019-10-10T08:09:18.000Z</time>
      </trkpt>
      <trkpt lat="44.77781" lon="4.5475">
        <ele>633.8</ele>
        <time>2019-10-10T08:09:29.000Z</time>
      </trkpt>
      <trkpt lat="44.77769" lon="4.54742">
        <ele>634.81</ele>
        <time>2019-10-10T08:09:39.000Z</time>
      </trkpt>
      <trkpt lat="44.77759" lon="4.54736">
        <ele>635.59</ele>
        <time>2019-10-10T08:09:49.000Z</time>
      </trkpt>
      <trkpt lat="44.77747" lon="4.54728">
        <ele>636.96</ele>
        <time>2019-10-10T08:09:59.000Z</time>
      </trkpt>
      <trkpt lat="44.77737" lon="4.54717">
        <ele>637.4</ele>
        <time>2019-10-10T08:10:09.000Z</time>
      </trkpt>
      <trkpt lat="44.77731" lon="4.54708">
        <ele>637.14</ele>
        <time>2019-10-10T08:10:19.000Z</time>
      </trkpt>
      <trkpt lat="44.77724" lon="4.54698">
        <ele>637.63</ele>
        <time>2019-10-10T08:10:29.000Z</time>
      </trkpt>
      <trkpt lat="44.77716" lon="4.54691">
        <ele>639.21</ele>
        <time>2019-10-10T08:10:39.000Z</time>
      </trkpt>
      <trkpt lat="44.77717" lon="4.54682">
        <ele>637.34</ele>
        <time>2019-10-10T08:10:49.000Z</time>
      </trkpt>
      <trkpt lat="44.7772" lon="4.5467">
        <ele>634.63</ele>
        <time>2019-10-10T08:10:59.000Z</time>
      </trkpt>
      <trkpt lat="44.77716" lon="4.54658">
        <ele>635.35</ele>
        <time>2019-10-10T08:11:09.000Z</time>
      </trkpt>
      <trkpt lat="44.77719" lon="4.54647">
        <ele>633.7</ele>
        <time>2019-10-10T08:11:19.000Z</time>
      </trkpt>
      <trkpt lat="44.77724" lon="4.54632">
        <ele>631.93</ele>
        <time>2019-10-10T08:11:29.000Z</time>
      </trkpt>
      <trkpt lat="44.77728" lon="4.54623">
        <ele>630.36</ele>
        <time>2019-10-10T08:11:39.000Z</time>
      </trkpt>
      <trkpt lat="44.7773" lon="4.5461">
        <ele>630.12</ele>
        <time>2019-10-10T08:11:49.000Z</time>
      </trkpt>
      <trkpt lat="44.7773" lon="4.54596">
        <ele>631.15</ele>
        <time>2019-10-10T08:11:59.000Z</time>
      </trkpt>
      <trkpt lat="44.77735" lon="4.54583">
        <ele>629.52</ele>
        <time>2019-10-10T08:12:09.000Z</time>
      </trkpt>
      <trkpt lat="44.7774" lon="4.54569">
        <ele>628.39</ele>
        <time>2019-10-10T08:12:19.000Z</time>
      </trkpt>
      <trkpt lat="44.77741" lon="4.54554">
        <ele>630.56</ele>
        <time>2019-10-10T08:12:29.000Z</time>
      </trkpt>
      <trkpt lat="44.7774" lon="4.54545">
        <ele>632.26</ele>
        <time>2019-10-10T08:12:39.000Z</time>
      </trkpt>
      <trkpt lat="44.77742" lon="4.54531">
        <ele>633.86</ele>
        <time>2019-10-10T08:12:49.000Z</time>
      </trkpt>
      <trkpt lat="44.77743" lon="4.54517">
        <ele>636.05</ele>
        <time>2019-10-10T08:12:59.000Z</time>
      </trkpt>
      <trkpt lat="44.77741" lon="4.54506">
        <ele>638.57</ele>
        <time>2019-10-10T08:13:09.000Z</time>
      </trkpt>
      <trkpt lat="44.7774" lon="4.54496">
        <ele>641.03</ele>
        <time>2019-10-10T08:13:20.000Z</time>
      </trkpt>
      <trkpt lat="44.77737" lon="4.54487">
        <ele>643.77</ele>
        <time>2019-10-10T08:13:30.000Z</time>
      </trkpt>
      <trkpt lat="44.77732" lon="4.54479">
        <ele>648</ele>
        <time>2019-10-10T08:13:40.000Z</time>
      </trkpt>
      <trkpt lat="44.77729" lon="4.54468">
        <ele>651.5</ele>
        <time>2019-10-10T08:13:50.000Z</time>
      </trkpt>
      <trkpt lat="44.77731" lon="4.54461">
        <ele>651.2</ele>
        <time>2019-10-10T08:14:16.000Z</time>
      </trkpt>
      <trkpt lat="44.77734" lon="4.54451">
        <ele>649.48</ele>
        <time>2019-10-10T08:14:26.000Z</time>
      </trkpt>
      <trkpt lat="44.77739" lon="4.5444">
        <ele>647.19</ele>
        <time>2019-10-10T08:14:36.000Z</time>
      </trkpt>
      <trkpt lat="44.77737" lon="4.54431">
        <ele>649.53</ele>
        <time>2019-10-10T08:14:46.000Z</time>
      </trkpt>
      <trkpt lat="44.7774" lon="4.54424">
        <ele>648.08</ele>
        <time>2019-10-10T08:14:57.000Z</time>
      </trkpt>
      <trkpt lat="44.7774" lon="4.54416">
        <ele>648.53</ele>
        <time>2019-10-10T08:15:07.000Z</time>
      </trkpt>
      <trkpt lat="44.77739" lon="4.54404">
        <ele>650.04</ele>
        <time>2019-10-10T08:15:17.000Z</time>
      </trkpt>
      <trkpt lat="44.77736" lon="4.54395">
        <ele>652.25</ele>
        <time>2019-10-10T08:15:27.000Z</time>
      </trkpt>
      <trkpt lat="44.77736" lon="4.54386">
        <ele>652.64</ele>
        <time>2019-10-10T08:15:37.000Z</time>
      </trkpt>
      <trkpt lat="44.77735" lon="4.54376">
        <ele>653.93</ele>
        <time>2019-10-10T08:15:47.000Z</time>
      </trkpt>
      <trkpt lat="44.77732" lon="4.54367">
        <ele>655.6</ele>
        <time>2019-10-10T08:15:57.000Z</time>
      </trkpt>
      <trkpt lat="44.77729" lon="4.54357">
        <ele>656.88</ele>
        <time>2019-10-10T08:16:07.000Z</time>
      </trkpt>
      <trkpt lat="44.77728" lon="4.54346">
        <ele>656.87</ele>
        <time>2019-10-10T08:16:17.000Z</time>
      </trkpt>
      <trkpt lat="44.77727" lon="4.54339">
        <ele>656.76</ele>
        <time>2019-10-10T08:16:28.000Z</time>
      </trkpt>
      <trkpt lat="44.77719" lon="4.54331">
        <ele>659.32</ele>
        <time>2019-10-10T08:16:38.000Z</time>
      </trkpt>
      <trkpt lat="44.77717" lon="4.5432">
        <ele>658.82</ele>
        <time>2019-10-10T08:16:48.000Z</time>
      </trkpt>
      <trkpt lat="44.77712" lon="4.5431">
        <ele>659.19</ele>
        <time>2019-10-10T08:16:58.000Z</time>
      </trkpt>
      <trkpt lat="44.77703" lon="4.54302">
        <ele>660.65</ele>
        <time>2019-10-10T08:17:08.000Z</time>
      </trkpt>
      <trkpt lat="44.77696" lon="4.54297">
        <ele>661.69</ele>
        <time>2019-10-10T08:17:18.000Z</time>
      </trkpt>
      <trkpt lat="44.7769" lon="4.54288">
        <ele>661.91</ele>
        <time>2019-10-10T08:17:28.000Z</time>
      </trkpt>
      <trkpt lat="44.77683" lon="4.54282">
        <ele>662.32</ele>
        <time>2019-10-10T08:17:38.000Z</time>
      </trkpt>
      <trkpt lat="44.77677" lon="4.54281">
        <ele>664.35</ele>
        <time>2019-10-10T08:17:48.000Z</time>
      </trkpt>
      <trkpt lat="44.7767" lon="4.54278">
        <ele>665.8</ele>
        <time>2019-10-10T08:17:58.000Z</time>
      </trkpt>
      <trkpt lat="44.77666" lon="4.54271">
        <ele>664.79</ele>
        <time>2019-10-10T08:18:13.000Z</time>
      </trkpt>
      <trkpt lat="44.7766" lon="4.54261">
        <ele>663.59</ele>
        <time>2019-10-10T08:18:23.000Z</time>
      </trkpt>
      <trkpt lat="44.77663" lon="4.54254">
        <ele>660.46</ele>
        <time>2019-10-10T08:18:33.000Z</time>
      </trkpt>
      <trkpt lat="44.77665" lon="4.54247">
        <ele>657.42</ele>
        <time>2019-10-10T08:18:48.000Z</time>
      </trkpt>
      <trkpt lat="44.77667" lon="4.54237">
        <ele>653.95</ele>
        <time>2019-10-10T08:18:58.000Z</time>
      </trkpt>
      <trkpt lat="44.77663" lon="4.54226">
        <ele>651.67</ele>
        <time>2019-10-10T08:19:08.000Z</time>
      </trkpt>
      <trkpt lat="44.77663" lon="4.54213">
        <ele>647.76</ele>
        <time>2019-10-10T08:19:18.000Z</time>
      </trkpt>
      <trkpt lat="44.77663" lon="4.54203">
        <ele>644.86</ele>
        <time>2019-10-10T08:19:28.000Z</time>
      </trkpt>
      <trkpt lat="44.77662" lon="4.54192">
        <ele>641.41</ele>
        <time>2019-10-10T08:19:38.000Z</time>
      </trkpt>
      <trkpt lat="44.77661" lon="4.54184">
        <ele>639.21</ele>
        <time>2019-10-10T08:19:51.000Z</time>
      </trkpt>
      <trkpt lat="44.77657" lon="4.54173">
        <ele>636.48</ele>
        <time>2019-10-10T08:20:01.000Z</time>
      </trkpt>
      <trkpt lat="44.77654" lon="4.54164">
        <ele>633.99</ele>
        <time>2019-10-10T08:20:11.000Z</time>
      </trkpt>
      <trkpt lat="44.77648" lon="4.54156">
        <ele>631.86</ele>
        <time>2019-10-10T08:20:21.000Z</time>
      </trkpt>
      <trkpt lat="44.77643" lon="4.54149">
        <ele>630.38</ele>
        <time>2019-10-10T08:20:31.000Z</time>
      </trkpt>
      <trkpt lat="44.77635" lon="4.54146">
        <ele>629.89</ele>
        <time>2019-10-10T08:20:41.000Z</time>
      </trkpt>
      <trkpt lat="44.77628" lon="4.54147">
        <ele>630.81</ele>
        <time>2019-10-10T08:20:51.000Z</time>
      </trkpt>
      <trkpt lat="44.7762" lon="4.54147">
        <ele>631.32</ele>
        <time>2019-10-10T08:21:01.000Z</time>
      </trkpt>
      <trkpt lat="44.77615" lon="4.54142">
        <ele>629.84</ele>
        <time>2019-10-10T08:21:11.000Z</time>
      </trkpt>
      <trkpt lat="44.77608" lon="4.54141">
        <ele>629.63</ele>
        <time>2019-10-10T08:21:21.000Z</time>
      </trkpt>
      <trkpt lat="44.77599" lon="4.54136">
        <ele>628.37</ele>
        <time>2019-10-10T08:21:31.000Z</time>
      </trkpt>
      <trkpt lat="44.77589" lon="4.54135">
        <ele>628.09</ele>
        <time>2019-10-10T08:21:41.000Z</time>
      </trkpt>
      <trkpt lat="44.77581" lon="4.54133">
        <ele>627.24</ele>
        <time>2019-10-10T08:21:51.000Z</time>
      </trkpt>
      <trkpt lat="44.77572" lon="4.54134">
        <ele>627.32</ele>
        <time>2019-10-10T08:22:01.000Z</time>
      </trkpt>
      <trkpt lat="44.77565" lon="4.54136">
        <ele>627.58</ele>
        <time>2019-10-10T08:22:11.000Z</time>
      </trkpt>
      <trkpt lat="44.77555" lon="4.54135">
        <ele>626.9</ele>
        <time>2019-10-10T08:22:21.000Z</time>
      </trkpt>
      <trkpt lat="44.77544" lon="4.54138">
        <ele>627.52</ele>
        <time>2019-10-10T08:22:31.000Z</time>
      </trkpt>
      <trkpt lat="44.77535" lon="4.54139">
        <ele>627.15</ele>
        <time>2019-10-10T08:22:41.000Z</time>
      </trkpt>
      <trkpt lat="44.77528" lon="4.54142">
        <ele>627.64</ele>
        <time>2019-10-10T08:22:51.000Z</time>
      </trkpt>
      <trkpt lat="44.77521" lon="4.54146">
        <ele>628.62</ele>
        <time>2019-10-10T08:23:01.000Z</time>
      </trkpt>
      <trkpt lat="44.77513" lon="4.5415">
        <ele>629.04</ele>
        <time>2019-10-10T08:23:11.000Z</time>
      </trkpt>
      <trkpt lat="44.77507" lon="4.54154">
        <ele>630.25</ele>
        <time>2019-10-10T08:23:21.000Z</time>
      </trkpt>
      <trkpt lat="44.775" lon="4.54161">
        <ele>631.9</ele>
        <time>2019-10-10T08:23:31.000Z</time>
      </trkpt>
      <trkpt lat="44.77493" lon="4.5417">
        <ele>634.72</ele>
        <time>2019-10-10T08:23:41.000Z</time>
      </trkpt>
      <trkpt lat="44.77487" lon="4.54179">
        <ele>637.56</ele>
        <time>2019-10-10T08:23:51.000Z</time>
      </trkpt>
      <trkpt lat="44.7748" lon="4.54185">
        <ele>638.57</ele>
        <time>2019-10-10T08:24:01.000Z</time>
      </trkpt>
      <trkpt lat="44.7748" lon="4.54178">
        <ele>634</ele>
        <time>2019-10-10T08:24:17.000Z</time>
      </trkpt>
      <trkpt lat="44.77484" lon="4.54172">
        <ele>632.67</ele>
        <time>2019-10-10T08:24:28.000Z</time>
      </trkpt>
      <trkpt lat="44.7749" lon="4.54166">
        <ele>631.83</ele>
        <time>2019-10-10T08:24:38.000Z</time>
      </trkpt>
      <trkpt lat="44.77494" lon="4.54157">
        <ele>628.2</ele>
        <time>2019-10-10T08:24:48.000Z</time>
      </trkpt>
      <trkpt lat="44.77494" lon="4.54146">
        <ele>623.34</ele>
        <time>2019-10-10T08:24:58.000Z</time>
      </trkpt>
      <trkpt lat="44.77495" lon="4.54134">
        <ele>617.93</ele>
        <time>2019-10-10T08:25:08.000Z</time>
      </trkpt>
      <trkpt lat="44.77497" lon="4.54125">
        <ele>614.52</ele>
        <time>2019-10-10T08:25:18.000Z</time>
      </trkpt>
      <trkpt lat="44.77491" lon="4.54128">
        <ele>613.74</ele>
        <time>2019-10-10T08:25:36.000Z</time>
      </trkpt>
      <trkpt lat="44.77484" lon="4.54128">
        <ele>611.69</ele>
        <time>2019-10-10T08:25:46.000Z</time>
      </trkpt>
      <trkpt lat="44.77479" lon="4.54131">
        <ele>610.56</ele>
        <time>2019-10-10T08:26:08.000Z</time>
      </trkpt>
      <trkpt lat="44.77472" lon="4.54134">
        <ele>609.1</ele>
        <time>2019-10-10T08:26:18.000Z</time>
      </trkpt>
      <trkpt lat="44.77466" lon="4.54137">
        <ele>607.64</ele>
        <time>2019-10-10T08:26:28.000Z</time>
      </trkpt>
      <trkpt lat="44.77459" lon="4.54139">
        <ele>605.4</ele>
        <time>2019-10-10T08:26:38.000Z</time>
      </trkpt>
      <trkpt lat="44.77453" lon="4.54139">
        <ele>602.63</ele>
        <time>2019-10-10T08:26:48.000Z</time>
      </trkpt>
      <trkpt lat="44.77448" lon="4.54142">
        <ele>601.51</ele>
        <time>2019-10-10T08:27:01.000Z</time>
      </trkpt>
      <trkpt lat="44.77439" lon="4.54143">
        <ele>598.63</ele>
        <time>2019-10-10T08:27:11.000Z</time>
      </trkpt>
      <trkpt lat="44.7743" lon="4.54141">
        <ele>594.19</ele>
        <time>2019-10-10T08:27:21.000Z</time>
      </trkpt>
      <trkpt lat="44.77421" lon="4.54141">
        <ele>591.79</ele>
        <time>2019-10-10T08:27:31.000Z</time>
      </trkpt>
      <trkpt lat="44.77415" lon="4.54135">
        <ele>588.59</ele>
        <time>2019-10-10T08:27:41.000Z</time>
      </trkpt>
      <trkpt lat="44.77413" lon="4.54126">
        <ele>585.34</ele>
        <time>2019-10-10T08:27:51.000Z</time>
      </trkpt>
      <trkpt lat="44.77407" lon="4.54127">
        <ele>585.41</ele>
        <time>2019-10-10T08:28:02.000Z</time>
      </trkpt>
      <trkpt lat="44.77402" lon="4.54123">
        <ele>583.91</ele>
        <time>2019-10-10T08:31:46.000Z</time>
      </trkpt>
      <trkpt lat="44.77401" lon="4.54131">
        <ele>586.23</ele>
        <time>2019-10-10T08:32:34.000Z</time>
      </trkpt>
      <trkpt lat="44.77399" lon="4.54139">
        <ele>588.61</ele>
        <time>2019-10-10T08:33:22.000Z</time>
      </trkpt>
      <trkpt lat="44.774" lon="4.54146">
        <ele>591.23</ele>
        <time>2019-10-10T08:33:35.000Z</time>
      </trkpt>
      <trkpt lat="44.77405" lon="4.54149">
        <ele>592.88</ele>
        <time>2019-10-10T08:34:04.000Z</time>
      </trkpt>
      <trkpt lat="44.77411" lon="4.54153">
        <ele>594.86</ele>
        <time>2019-10-10T08:34:14.000Z</time>
      </trkpt>
      <trkpt lat="44.77405" lon="4.54153">
        <ele>594.12</ele>
        <time>2019-10-10T08:35:12.000Z</time>
      </trkpt>
      <trkpt lat="44.774" lon="4.5415">
        <ele>592.6</ele>
        <time>2019-10-10T08:35:25.000Z</time>
      </trkpt>
      <trkpt lat="44.77403" lon="4.54157">
        <ele>595.36</ele>
        <time>2019-10-10T08:36:11.000Z</time>
      </trkpt>
      <trkpt lat="44.77397" lon="4.54163">
        <ele>597.02</ele>
        <time>2019-10-10T08:36:21.000Z</time>
      </trkpt>
      <trkpt lat="44.77391" lon="4.54169">
        <ele>598.84</ele>
        <time>2019-10-10T08:36:31.000Z</time>
      </trkpt>
      <trkpt lat="44.77385" lon="4.54176">
        <ele>601.4</ele>
        <time>2019-10-10T08:36:41.000Z</time>
      </trkpt>
      <trkpt lat="44.77375" lon="4.54184">
        <ele>604.11</ele>
        <time>2019-10-10T08:36:51.000Z</time>
      </trkpt>
      <trkpt lat="44.77366" lon="4.54188">
        <ele>605.17</ele>
        <time>2019-10-10T08:37:01.000Z</time>
      </trkpt>
      <trkpt lat="44.77359" lon="4.54184">
        <ele>603.48</ele>
        <time>2019-10-10T08:37:11.000Z</time>
      </trkpt>
      <trkpt lat="44.77355" lon="4.54173">
        <ele>599.97</ele>
        <time>2019-10-10T08:37:21.000Z</time>
      </trkpt>
      <trkpt lat="44.77352" lon="4.5416">
        <ele>596.39</ele>
        <time>2019-10-10T08:37:31.000Z</time>
      </trkpt>
      <trkpt lat="44.77353" lon="4.54149">
        <ele>593.85</ele>
        <time>2019-10-10T08:37:41.000Z</time>
      </trkpt>
      <trkpt lat="44.7735" lon="4.5414">
        <ele>592.54</ele>
        <time>2019-10-10T08:37:51.000Z</time>
      </trkpt>
      <trkpt lat="44.77344" lon="4.54126">
        <ele>592.38</ele>
        <time>2019-10-10T08:38:01.000Z</time>
      </trkpt>
      <trkpt lat="44.77339" lon="4.54118">
        <ele>592.89</ele>
        <time>2019-10-10T08:38:11.000Z</time>
      </trkpt>
      <trkpt lat="44.77334" lon="4.54104">
        <ele>593.44</ele>
        <time>2019-10-10T08:38:21.000Z</time>
      </trkpt>
      <trkpt lat="44.77329" lon="4.54088">
        <ele>594.06</ele>
        <time>2019-10-10T08:38:31.000Z</time>
      </trkpt>
      <trkpt lat="44.7733" lon="4.54071">
        <ele>591.95</ele>
        <time>2019-10-10T08:38:41.000Z</time>
      </trkpt>
      <trkpt lat="44.7733" lon="4.54056">
        <ele>590.76</ele>
        <time>2019-10-10T08:38:51.000Z</time>
      </trkpt>
      <trkpt lat="44.77327" lon="4.54041">
        <ele>590.87</ele>
        <time>2019-10-10T08:39:01.000Z</time>
      </trkpt>
      <trkpt lat="44.77324" lon="4.54028">
        <ele>591.02</ele>
        <time>2019-10-10T08:39:11.000Z</time>
      </trkpt>
      <trkpt lat="44.77318" lon="4.54014">
        <ele>592.3</ele>
        <time>2019-10-10T08:39:21.000Z</time>
      </trkpt>
      <trkpt lat="44.77311" lon="4.54006">
        <ele>594.44</ele>
        <time>2019-10-10T08:39:31.000Z</time>
      </trkpt>
      <trkpt lat="44.77305" lon="4.53997">
        <ele>595.62</ele>
        <time>2019-10-10T08:39:41.000Z</time>
      </trkpt>
      <trkpt lat="44.77303" lon="4.53985">
        <ele>595.02</ele>
        <time>2019-10-10T08:39:51.000Z</time>
      </trkpt>
      <trkpt lat="44.77298" lon="4.53974">
        <ele>595.46</ele>
        <time>2019-10-10T08:40:01.000Z</time>
      </trkpt>
      <trkpt lat="44.7729" lon="4.53968">
        <ele>597.38</ele>
        <time>2019-10-10T08:40:11.000Z</time>
      </trkpt>
      <trkpt lat="44.77282" lon="4.53964">
        <ele>599.04</ele>
        <time>2019-10-10T08:40:21.000Z</time>
      </trkpt>
      <trkpt lat="44.77275" lon="4.53964">
        <ele>601.05</ele>
        <time>2019-10-10T08:40:31.000Z</time>
      </trkpt>
      <trkpt lat="44.77273" lon="4.53974">
        <ele>603.64</ele>
        <time>2019-10-10T08:40:41.000Z</time>
      </trkpt>
      <trkpt lat="44.77271" lon="4.53985">
        <ele>606.49</ele>
        <time>2019-10-10T08:40:51.000Z</time>
      </trkpt>
      <trkpt lat="44.77265" lon="4.53978">
        <ele>606.5</ele>
        <time>2019-10-10T08:41:01.000Z</time>
      </trkpt>
      <trkpt lat="44.77257" lon="4.53971">
        <ele>607.08</ele>
        <time>2019-10-10T08:41:11.000Z</time>
      </trkpt>
      <trkpt lat="44.77248" lon="4.53975">
        <ele>609.74</ele>
        <time>2019-10-10T08:41:21.000Z</time>
      </trkpt>
      <trkpt lat="44.7724" lon="4.53982">
        <ele>612.49</ele>
        <time>2019-10-10T08:41:31.000Z</time>
      </trkpt>
      <trkpt lat="44.77239" lon="4.53997">
        <ele>616.15</ele>
        <time>2019-10-10T08:41:41.000Z</time>
      </trkpt>
      <trkpt lat="44.77238" lon="4.54009">
        <ele>618.67</ele>
        <time>2019-10-10T08:41:51.000Z</time>
      </trkpt>
      <trkpt lat="44.77234" lon="4.54019">
        <ele>621.22</ele>
        <time>2019-10-10T08:42:01.000Z</time>
      </trkpt>
      <trkpt lat="44.77227" lon="4.54028">
        <ele>623.37</ele>
        <time>2019-10-10T08:42:11.000Z</time>
      </trkpt>
      <trkpt lat="44.77222" lon="4.54036">
        <ele>625.31</ele>
        <time>2019-10-10T08:42:21.000Z</time>
      </trkpt>
      <trkpt lat="44.77217" lon="4.5404">
        <ele>626.41</ele>
        <time>2019-10-10T08:42:31.000Z</time>
      </trkpt>
      <trkpt lat="44.77213" lon="4.54044">
        <ele>627.44</ele>
        <time>2019-10-10T08:42:41.000Z</time>
      </trkpt>
      <trkpt lat="44.77205" lon="4.54051">
        <ele>629.14</ele>
        <time>2019-10-10T08:42:51.000Z</time>
      </trkpt>
      <trkpt lat="44.77197" lon="4.5406">
        <ele>631.45</ele>
        <time>2019-10-10T08:43:01.000Z</time>
      </trkpt>
      <trkpt lat="44.77191" lon="4.54071">
        <ele>634.51</ele>
        <time>2019-10-10T08:43:11.000Z</time>
      </trkpt>
      <trkpt lat="44.77185" lon="4.5408">
        <ele>637.33</ele>
        <time>2019-10-10T08:43:21.000Z</time>
      </trkpt>
      <trkpt lat="44.77179" lon="4.54092">
        <ele>641.36</ele>
        <time>2019-10-10T08:43:31.000Z</time>
      </trkpt>
      <trkpt lat="44.77174" lon="4.54105">
        <ele>645.76</ele>
        <time>2019-10-10T08:43:41.000Z</time>
      </trkpt>
      <trkpt lat="44.77169" lon="4.54114">
        <ele>649.35</ele>
        <time>2019-10-10T08:43:51.000Z</time>
      </trkpt>
      <trkpt lat="44.77163" lon="4.54125">
        <ele>653.55</ele>
        <time>2019-10-10T08:44:01.000Z</time>
      </trkpt>
      <trkpt lat="44.77156" lon="4.54135">
        <ele>657.24</ele>
        <time>2019-10-10T08:44:11.000Z</time>
      </trkpt>
      <trkpt lat="44.77149" lon="4.54138">
        <ele>658.08</ele>
        <time>2019-10-10T08:44:21.000Z</time>
      </trkpt>
      <trkpt lat="44.7714" lon="4.54142">
        <ele>658.99</ele>
        <time>2019-10-10T08:44:31.000Z</time>
      </trkpt>
      <trkpt lat="44.7713" lon="4.54147">
        <ele>659.4</ele>
        <time>2019-10-10T08:44:41.000Z</time>
      </trkpt>
      <trkpt lat="44.77122" lon="4.54156">
        <ele>661.11</ele>
        <time>2019-10-10T08:44:51.000Z</time>
      </trkpt>
      <trkpt lat="44.77115" lon="4.54165">
        <ele>662.66</ele>
        <time>2019-10-10T08:45:01.000Z</time>
      </trkpt>
      <trkpt lat="44.77107" lon="4.54176">
        <ele>664.63</ele>
        <time>2019-10-10T08:45:11.000Z</time>
      </trkpt>
      <trkpt lat="44.771" lon="4.54187">
        <ele>667.08</ele>
        <time>2019-10-10T08:45:21.000Z</time>
      </trkpt>
      <trkpt lat="44.77097" lon="4.54199">
        <ele>669.99</ele>
        <time>2019-10-10T08:45:31.000Z</time>
      </trkpt>
      <trkpt lat="44.77089" lon="4.54201">
        <ele>670.47</ele>
        <time>2019-10-10T08:45:41.000Z</time>
      </trkpt>
      <trkpt lat="44.77079" lon="4.54199">
        <ele>670.78</ele>
        <time>2019-10-10T08:45:51.000Z</time>
      </trkpt>
      <trkpt lat="44.7707" lon="4.54206">
        <ele>673.66</ele>
        <time>2019-10-10T08:46:01.000Z</time>
      </trkpt>
      <trkpt lat="44.77062" lon="4.54217">
        <ele>677.09</ele>
        <time>2019-10-10T08:46:11.000Z</time>
      </trkpt>
      <trkpt lat="44.77056" lon="4.54228">
        <ele>680.25</ele>
        <time>2019-10-10T08:46:21.000Z</time>
      </trkpt>
      <trkpt lat="44.77051" lon="4.54241">
        <ele>683.27</ele>
        <time>2019-10-10T08:46:31.000Z</time>
      </trkpt>
      <trkpt lat="44.77044" lon="4.54254">
        <ele>686.29</ele>
        <time>2019-10-10T08:46:41.000Z</time>
      </trkpt>
      <trkpt lat="44.77038" lon="4.54267">
        <ele>689.2</ele>
        <time>2019-10-10T08:46:51.000Z</time>
      </trkpt>
      <trkpt lat="44.7703" lon="4.54258">
        <ele>688</ele>
        <time>2019-10-10T08:47:01.000Z</time>
      </trkpt>
      <trkpt lat="44.77026" lon="4.54243">
        <ele>686.14</ele>
        <time>2019-10-10T08:47:11.000Z</time>
      </trkpt>
      <trkpt lat="44.77021" lon="4.54225">
        <ele>685.36</ele>
        <time>2019-10-10T08:47:21.000Z</time>
      </trkpt>
      <trkpt lat="44.77018" lon="4.54208">
        <ele>685.5</ele>
        <time>2019-10-10T08:47:31.000Z</time>
      </trkpt>
      <trkpt lat="44.77019" lon="4.54194">
        <ele>684.92</ele>
        <time>2019-10-10T08:47:41.000Z</time>
      </trkpt>
      <trkpt lat="44.77021" lon="4.54183">
        <ele>683.93</ele>
        <time>2019-10-10T08:47:51.000Z</time>
      </trkpt>
      <trkpt lat="44.77021" lon="4.54168">
        <ele>683.81</ele>
        <time>2019-10-10T08:48:01.000Z</time>
      </trkpt>
      <trkpt lat="44.7702" lon="4.54159">
        <ele>684.14</ele>
        <time>2019-10-10T08:48:56.000Z</time>
      </trkpt>
      <trkpt lat="44.77019" lon="4.54142">
        <ele>684.77</ele>
        <time>2019-10-10T08:49:06.000Z</time>
      </trkpt>
      <trkpt lat="44.77022" lon="4.54126">
        <ele>683.66</ele>
        <time>2019-10-10T08:49:16.000Z</time>
      </trkpt>
      <trkpt lat="44.77024" lon="4.54113">
        <ele>683.23</ele>
        <time>2019-10-10T08:49:26.000Z</time>
      </trkpt>
      <trkpt lat="44.77025" lon="4.54099">
        <ele>682.76</ele>
        <time>2019-10-10T08:49:36.000Z</time>
      </trkpt>
      <trkpt lat="44.77026" lon="4.54088">
        <ele>682.17</ele>
        <time>2019-10-10T08:49:46.000Z</time>
      </trkpt>
      <trkpt lat="44.77027" lon="4.54071">
        <ele>681.76</ele>
        <time>2019-10-10T08:49:56.000Z</time>
      </trkpt>
      <trkpt lat="44.77028" lon="4.54057">
        <ele>681.56</ele>
        <time>2019-10-10T08:50:06.000Z</time>
      </trkpt>
      <trkpt lat="44.77027" lon="4.5404">
        <ele>682.51</ele>
        <time>2019-10-10T08:50:16.000Z</time>
      </trkpt>
      <trkpt lat="44.77025" lon="4.54024">
        <ele>683.93</ele>
        <time>2019-10-10T08:50:26.000Z</time>
      </trkpt>
      <trkpt lat="44.77023" lon="4.54011">
        <ele>685.25</ele>
        <time>2019-10-10T08:50:36.000Z</time>
      </trkpt>
      <trkpt lat="44.77022" lon="4.53994">
        <ele>685.36</ele>
        <time>2019-10-10T08:50:46.000Z</time>
      </trkpt>
      <trkpt lat="44.77018" lon="4.53976">
        <ele>686.78</ele>
        <time>2019-10-10T08:50:56.000Z</time>
      </trkpt>
      <trkpt lat="44.77013" lon="4.53961">
        <ele>688.12</ele>
        <time>2019-10-10T08:51:06.000Z</time>
      </trkpt>
      <trkpt lat="44.77006" lon="4.53947">
        <ele>690.53</ele>
        <time>2019-10-10T08:51:16.000Z</time>
      </trkpt>
      <trkpt lat="44.77" lon="4.53933">
        <ele>692.25</ele>
        <time>2019-10-10T08:51:26.000Z</time>
      </trkpt>
      <trkpt lat="44.76995" lon="4.53917">
        <ele>693.71</ele>
        <time>2019-10-10T08:51:36.000Z</time>
      </trkpt>
      <trkpt lat="44.76987" lon="4.53904">
        <ele>695.84</ele>
        <time>2019-10-10T08:51:46.000Z</time>
      </trkpt>
      <trkpt lat="44.76983" lon="4.53889">
        <ele>696.23</ele>
        <time>2019-10-10T08:51:56.000Z</time>
      </trkpt>
      <trkpt lat="44.76977" lon="4.53874">
        <ele>697.79</ele>
        <time>2019-10-10T08:52:06.000Z</time>
      </trkpt>
      <trkpt lat="44.7697" lon="4.53859">
        <ele>699.88</ele>
        <time>2019-10-10T08:52:16.000Z</time>
      </trkpt>
      <trkpt lat="44.76966" lon="4.53844">
        <ele>701.21</ele>
        <time>2019-10-10T08:52:26.000Z</time>
      </trkpt>
      <trkpt lat="44.76966" lon="4.5383">
        <ele>700.8</ele>
        <time>2019-10-10T08:52:36.000Z</time>
      </trkpt>
      <trkpt lat="44.76969" lon="4.53815">
        <ele>700.11</ele>
        <time>2019-10-10T08:52:46.000Z</time>
      </trkpt>
      <trkpt lat="44.7697" lon="4.53797">
        <ele>701.17</ele>
        <time>2019-10-10T08:52:56.000Z</time>
      </trkpt>
      <trkpt lat="44.76973" lon="4.53778">
        <ele>702.23</ele>
        <time>2019-10-10T08:53:06.000Z</time>
      </trkpt>
      <trkpt lat="44.76974" lon="4.53762">
        <ele>703.58</ele>
        <time>2019-10-10T08:53:16.000Z</time>
      </trkpt>
      <trkpt lat="44.7698" lon="4.53745">
        <ele>702.51</ele>
        <time>2019-10-10T08:53:26.000Z</time>
      </trkpt>
      <trkpt lat="44.76984" lon="4.53728">
        <ele>702.87</ele>
        <time>2019-10-10T08:53:36.000Z</time>
      </trkpt>
      <trkpt lat="44.76986" lon="4.53714">
        <ele>704.23</ele>
        <time>2019-10-10T08:53:46.000Z</time>
      </trkpt>
      <trkpt lat="44.76992" lon="4.53699">
        <ele>704.37</ele>
        <time>2019-10-10T08:53:56.000Z</time>
      </trkpt>
      <trkpt lat="44.77" lon="4.5369">
        <ele>702.69</ele>
        <time>2019-10-10T08:54:06.000Z</time>
      </trkpt>
      <trkpt lat="44.77008" lon="4.53678">
        <ele>701.38</ele>
        <time>2019-10-10T08:54:16.000Z</time>
      </trkpt>
      <trkpt lat="44.7701" lon="4.5367">
        <ele>701.45</ele>
        <time>2019-10-10T08:54:42.000Z</time>
      </trkpt>
      <trkpt lat="44.77013" lon="4.53663">
        <ele>700.65</ele>
        <time>2019-10-10T08:54:55.000Z</time>
      </trkpt>
      <trkpt lat="44.77015" lon="4.53646">
        <ele>699.78</ele>
        <time>2019-10-10T08:55:05.000Z</time>
      </trkpt>
      <trkpt lat="44.77012" lon="4.53631">
        <ele>700.23</ele>
        <time>2019-10-10T08:55:15.000Z</time>
      </trkpt>
      <trkpt lat="44.77004" lon="4.53621">
        <ele>701.77</ele>
        <time>2019-10-10T08:55:25.000Z</time>
      </trkpt>
      <trkpt lat="44.76993" lon="4.53611">
        <ele>703.22</ele>
        <time>2019-10-10T08:55:35.000Z</time>
      </trkpt>
      <trkpt lat="44.76982" lon="4.53602">
        <ele>704.04</ele>
        <time>2019-10-10T08:55:45.000Z</time>
      </trkpt>
      <trkpt lat="44.76971" lon="4.53596">
        <ele>704.54</ele>
        <time>2019-10-10T08:55:55.000Z</time>
      </trkpt>
      <trkpt lat="44.7696" lon="4.53592">
        <ele>704.7</ele>
        <time>2019-10-10T08:56:05.000Z</time>
      </trkpt>
      <trkpt lat="44.76946" lon="4.53593">
        <ele>706.04</ele>
        <time>2019-10-10T08:56:15.000Z</time>
      </trkpt>
      <trkpt lat="44.76934" lon="4.53595">
        <ele>707.11</ele>
        <time>2019-10-10T08:56:25.000Z</time>
      </trkpt>
      <trkpt lat="44.76922" lon="4.53602">
        <ele>709.83</ele>
        <time>2019-10-10T08:56:35.000Z</time>
      </trkpt>
      <trkpt lat="44.76911" lon="4.53611">
        <ele>712.94</ele>
        <time>2019-10-10T08:56:45.000Z</time>
      </trkpt>
      <trkpt lat="44.76901" lon="4.53617">
        <ele>714.41</ele>
        <time>2019-10-10T08:56:55.000Z</time>
      </trkpt>
      <trkpt lat="44.76888" lon="4.53617">
        <ele>713.73</ele>
        <time>2019-10-10T08:57:05.000Z</time>
      </trkpt>
      <trkpt lat="44.76875" lon="4.53619">
        <ele>712.87</ele>
        <time>2019-10-10T08:57:15.000Z</time>
      </trkpt>
      <trkpt lat="44.7686" lon="4.53626">
        <ele>714.43</ele>
        <time>2019-10-10T08:57:25.000Z</time>
      </trkpt>
      <trkpt lat="44.76848" lon="4.53634">
        <ele>716.49</ele>
        <time>2019-10-10T08:57:35.000Z</time>
      </trkpt>
      <trkpt lat="44.76837" lon="4.53637">
        <ele>717.66</ele>
        <time>2019-10-10T08:57:45.000Z</time>
      </trkpt>
      <trkpt lat="44.76827" lon="4.53643">
        <ele>720.2</ele>
        <time>2019-10-10T08:57:55.000Z</time>
      </trkpt>
      <trkpt lat="44.76816" lon="4.53653">
        <ele>724.54</ele>
        <time>2019-10-10T08:58:05.000Z</time>
      </trkpt>
      <trkpt lat="44.76807" lon="4.5366">
        <ele>727.19</ele>
        <time>2019-10-10T08:58:15.000Z</time>
      </trkpt>
      <trkpt lat="44.76794" lon="4.53664">
        <ele>729.01</ele>
        <time>2019-10-10T08:58:25.000Z</time>
      </trkpt>
      <trkpt lat="44.7678" lon="4.53666">
        <ele>730.14</ele>
        <time>2019-10-10T08:58:35.000Z</time>
      </trkpt>
      <trkpt lat="44.76768" lon="4.53671">
        <ele>732.58</ele>
        <time>2019-10-10T08:58:45.000Z</time>
      </trkpt>
      <trkpt lat="44.76755" lon="4.53673">
        <ele>735.09</ele>
        <time>2019-10-10T08:58:55.000Z</time>
      </trkpt>
      <trkpt lat="44.76745" lon="4.53665">
        <ele>734.63</ele>
        <time>2019-10-10T08:59:05.000Z</time>
      </trkpt>
      <trkpt lat="44.76739" lon="4.5365">
        <ele>732.28</ele>
        <time>2019-10-10T08:59:15.000Z</time>
      </trkpt>
      <trkpt lat="44.76736" lon="4.53634">
        <ele>729.9</ele>
        <time>2019-10-10T08:59:25.000Z</time>
      </trkpt>
      <trkpt lat="44.76731" lon="4.53619">
        <ele>728.94</ele>
        <time>2019-10-10T08:59:35.000Z</time>
      </trkpt>
      <trkpt lat="44.76725" lon="4.53603">
        <ele>728.24</ele>
        <time>2019-10-10T08:59:45.000Z</time>
      </trkpt>
      <trkpt lat="44.7672" lon="4.53585">
        <ele>727.82</ele>
        <time>2019-10-10T08:59:55.000Z</time>
      </trkpt>
      <trkpt lat="44.76712" lon="4.53569">
        <ele>729.28</ele>
        <time>2019-10-10T09:00:05.000Z</time>
      </trkpt>
      <trkpt lat="44.76704" lon="4.53556">
        <ele>730.8</ele>
        <time>2019-10-10T09:00:15.000Z</time>
      </trkpt>
      <trkpt lat="44.76698" lon="4.5354">
        <ele>731</ele>
        <time>2019-10-10T09:00:25.000Z</time>
      </trkpt>
      <trkpt lat="44.76693" lon="4.53522">
        <ele>729.91</ele>
        <time>2019-10-10T09:00:35.000Z</time>
      </trkpt>
      <trkpt lat="44.76685" lon="4.53509">
        <ele>730.85</ele>
        <time>2019-10-10T09:00:45.000Z</time>
      </trkpt>
      <trkpt lat="44.76675" lon="4.53498">
        <ele>732.62</ele>
        <time>2019-10-10T09:00:55.000Z</time>
      </trkpt>
      <trkpt lat="44.76664" lon="4.53486">
        <ele>734.32</ele>
        <time>2019-10-10T09:01:05.000Z</time>
      </trkpt>
      <trkpt lat="44.76655" lon="4.53476">
        <ele>735.71</ele>
        <time>2019-10-10T09:01:15.000Z</time>
      </trkpt>
      <trkpt lat="44.76647" lon="4.53464">
        <ele>736.33</ele>
        <time>2019-10-10T09:01:25.000Z</time>
      </trkpt>
      <trkpt lat="44.76639" lon="4.53447">
        <ele>736.34</ele>
        <time>2019-10-10T09:01:35.000Z</time>
      </trkpt>
      <trkpt lat="44.76634" lon="4.53433">
        <ele>736.56</ele>
        <time>2019-10-10T09:01:45.000Z</time>
      </trkpt>
      <trkpt lat="44.76628" lon="4.53419">
        <ele>737.2</ele>
        <time>2019-10-10T09:01:55.000Z</time>
      </trkpt>
      <trkpt lat="44.76621" lon="4.53404">
        <ele>738.54</ele>
        <time>2019-10-10T09:02:05.000Z</time>
      </trkpt>
      <trkpt lat="44.76616" lon="4.53389">
        <ele>739.84</ele>
        <time>2019-10-10T09:02:15.000Z</time>
      </trkpt>
      <trkpt lat="44.76612" lon="4.53372">
        <ele>740.54</ele>
        <time>2019-10-10T09:02:25.000Z</time>
      </trkpt>
      <trkpt lat="44.7661" lon="4.53354">
        <ele>740.35</ele>
        <time>2019-10-10T09:02:35.000Z</time>
      </trkpt>
      <trkpt lat="44.76608" lon="4.53336">
        <ele>740.47</ele>
        <time>2019-10-10T09:02:45.000Z</time>
      </trkpt>
      <trkpt lat="44.76604" lon="4.5332">
        <ele>740.65</ele>
        <time>2019-10-10T09:02:55.000Z</time>
      </trkpt>
      <trkpt lat="44.76599" lon="4.53304">
        <ele>741.24</ele>
        <time>2019-10-10T09:03:05.000Z</time>
      </trkpt>
      <trkpt lat="44.76592" lon="4.53288">
        <ele>742.65</ele>
        <time>2019-10-10T09:03:15.000Z</time>
      </trkpt>
      <trkpt lat="44.76585" lon="4.53272">
        <ele>744.19</ele>
        <time>2019-10-10T09:03:25.000Z</time>
      </trkpt>
      <trkpt lat="44.76582" lon="4.53255">
        <ele>744.56</ele>
        <time>2019-10-10T09:03:35.000Z</time>
      </trkpt>
      <trkpt lat="44.76578" lon="4.53237">
        <ele>746</ele>
        <time>2019-10-10T09:03:45.000Z</time>
      </trkpt>
      <trkpt lat="44.76578" lon="4.53219">
        <ele>747</ele>
        <time>2019-10-10T09:03:55.000Z</time>
      </trkpt>
      <trkpt lat="44.76578" lon="4.532">
        <ele>748.43</ele>
        <time>2019-10-10T09:04:05.000Z</time>
      </trkpt>
      <trkpt lat="44.76581" lon="4.53185">
        <ele>748.73</ele>
        <time>2019-10-10T09:04:15.000Z</time>
      </trkpt>
      <trkpt lat="44.76585" lon="4.53167">
        <ele>748.4</ele>
        <time>2019-10-10T09:04:25.000Z</time>
      </trkpt>
      <trkpt lat="44.7659" lon="4.5315">
        <ele>747.89</ele>
        <time>2019-10-10T09:04:35.000Z</time>
      </trkpt>
      <trkpt lat="44.76592" lon="4.53133">
        <ele>748.31</ele>
        <time>2019-10-10T09:04:45.000Z</time>
      </trkpt>
      <trkpt lat="44.76595" lon="4.53116">
        <ele>748.16</ele>
        <time>2019-10-10T09:04:55.000Z</time>
      </trkpt>
      <trkpt lat="44.76599" lon="4.53102">
        <ele>747.38</ele>
        <time>2019-10-10T09:05:05.000Z</time>
      </trkpt>
      <trkpt lat="44.76599" lon="4.53084">
        <ele>747.56</ele>
        <time>2019-10-10T09:05:15.000Z</time>
      </trkpt>
      <trkpt lat="44.76591" lon="4.5307">
        <ele>749.41</ele>
        <time>2019-10-10T09:05:25.000Z</time>
      </trkpt>
      <trkpt lat="44.76581" lon="4.53062">
        <ele>751.39</ele>
        <time>2019-10-10T09:05:35.000Z</time>
      </trkpt>
      <trkpt lat="44.7657" lon="4.5305">
        <ele>752.78</ele>
        <time>2019-10-10T09:05:45.000Z</time>
      </trkpt>
      <trkpt lat="44.76561" lon="4.5304">
        <ele>753.81</ele>
        <time>2019-10-10T09:05:55.000Z</time>
      </trkpt>
      <trkpt lat="44.76552" lon="4.5303">
        <ele>754.46</ele>
        <time>2019-10-10T09:06:05.000Z</time>
      </trkpt>
      <trkpt lat="44.76541" lon="4.5302">
        <ele>754.9</ele>
        <time>2019-10-10T09:06:15.000Z</time>
      </trkpt>
      <trkpt lat="44.76532" lon="4.53011">
        <ele>754.87</ele>
        <time>2019-10-10T09:06:25.000Z</time>
      </trkpt>
      <trkpt lat="44.76518" lon="4.53004">
        <ele>755.63</ele>
        <time>2019-10-10T09:06:35.000Z</time>
      </trkpt>
      <trkpt lat="44.76505" lon="4.53006">
        <ele>757.42</ele>
        <time>2019-10-10T09:06:45.000Z</time>
      </trkpt>
      <trkpt lat="44.76492" lon="4.53009">
        <ele>759.15</ele>
        <time>2019-10-10T09:06:55.000Z</time>
      </trkpt>
      <trkpt lat="44.76481" lon="4.53008">
        <ele>759.86</ele>
        <time>2019-10-10T09:07:05.000Z</time>
      </trkpt>
      <trkpt lat="44.7647" lon="4.53001">
        <ele>759.43</ele>
        <time>2019-10-10T09:07:15.000Z</time>
      </trkpt>
      <trkpt lat="44.76458" lon="4.52991">
        <ele>758.76</ele>
        <time>2019-10-10T09:07:25.000Z</time>
      </trkpt>
      <trkpt lat="44.76446" lon="4.5298">
        <ele>758.13</ele>
        <time>2019-10-10T09:07:35.000Z</time>
      </trkpt>
      <trkpt lat="44.76436" lon="4.5297">
        <ele>757.65</ele>
        <time>2019-10-10T09:07:45.000Z</time>
      </trkpt>
      <trkpt lat="44.76426" lon="4.5296">
        <ele>757.35</ele>
        <time>2019-10-10T09:07:55.000Z</time>
      </trkpt>
      <trkpt lat="44.76422" lon="4.52954">
        <ele>757.23</ele>
        <time>2019-10-10T09:08:05.000Z</time>
      </trkpt>
      <trkpt lat="44.76418" lon="4.52948">
        <ele>757.08</ele>
        <time>2019-10-10T09:08:53.000Z</time>
      </trkpt>
      <trkpt lat="44.76411" lon="4.5295">
        <ele>757.65</ele>
        <time>2019-10-10T09:09:03.000Z</time>
      </trkpt>
      <trkpt lat="44.76403" lon="4.52962">
        <ele>758.27</ele>
        <time>2019-10-10T09:09:13.000Z</time>
      </trkpt>
      <trkpt lat="44.76394" lon="4.52964">
        <ele>758.28</ele>
        <time>2019-10-10T09:09:23.000Z</time>
      </trkpt>
      <trkpt lat="44.76384" lon="4.52956">
        <ele>758.18</ele>
        <time>2019-10-10T09:09:33.000Z</time>
      </trkpt>
      <trkpt lat="44.76376" lon="4.52947">
        <ele>758.37</ele>
        <time>2019-10-10T09:09:43.000Z</time>
      </trkpt>
      <trkpt lat="44.76366" lon="4.52938">
        <ele>758.83</ele>
        <time>2019-10-10T09:09:53.000Z</time>
      </trkpt>
      <trkpt lat="44.76356" lon="4.52926">
        <ele>759.77</ele>
        <time>2019-10-10T09:10:03.000Z</time>
      </trkpt>
      <trkpt lat="44.76347" lon="4.52916">
        <ele>760.85</ele>
        <time>2019-10-10T09:10:13.000Z</time>
      </trkpt>
      <trkpt lat="44.76337" lon="4.52909">
        <ele>761.77</ele>
        <time>2019-10-10T09:10:23.000Z</time>
      </trkpt>
      <trkpt lat="44.76327" lon="4.52903">
        <ele>762.68</ele>
        <time>2019-10-10T09:10:33.000Z</time>
      </trkpt>
      <trkpt lat="44.76317" lon="4.52896">
        <ele>763.59</ele>
        <time>2019-10-10T09:10:43.000Z</time>
      </trkpt>
      <trkpt lat="44.76306" lon="4.52892">
        <ele>764.11</ele>
        <time>2019-10-10T09:10:53.000Z</time>
      </trkpt>
      <trkpt lat="44.76295" lon="4.52886">
        <ele>764.8</ele>
        <time>2019-10-10T09:11:03.000Z</time>
      </trkpt>
      <trkpt lat="44.76284" lon="4.52884">
        <ele>764.86</ele>
        <time>2019-10-10T09:11:13.000Z</time>
      </trkpt>
      <trkpt lat="44.76275" lon="4.52874">
        <ele>765.88</ele>
        <time>2019-10-10T09:11:23.000Z</time>
      </trkpt>
      <trkpt lat="44.76277" lon="4.52861">
        <ele>767.96</ele>
        <time>2019-10-10T09:11:33.000Z</time>
      </trkpt>
      <trkpt lat="44.76275" lon="4.52846">
        <ele>770.21</ele>
        <time>2019-10-10T09:11:43.000Z</time>
      </trkpt>
      <trkpt lat="44.76268" lon="4.52832">
        <ele>771.97</ele>
        <time>2019-10-10T09:11:53.000Z</time>
      </trkpt>
      <trkpt lat="44.76264" lon="4.52818">
        <ele>773.99</ele>
        <time>2019-10-10T09:12:03.000Z</time>
      </trkpt>
      <trkpt lat="44.76264" lon="4.52805">
        <ele>776.21</ele>
        <time>2019-10-10T09:12:13.000Z</time>
      </trkpt>
      <trkpt lat="44.76268" lon="4.528">
        <ele>777.53</ele>
        <time>2019-10-10T09:12:26.000Z</time>
      </trkpt>
      <trkpt lat="44.76267" lon="4.52791">
        <ele>778.96</ele>
        <time>2019-10-10T09:12:36.000Z</time>
      </trkpt>
      <trkpt lat="44.76261" lon="4.52779">
        <ele>780.29</ele>
        <time>2019-10-10T09:12:46.000Z</time>
      </trkpt>
      <trkpt lat="44.76257" lon="4.52766">
        <ele>781.83</ele>
        <time>2019-10-10T09:12:56.000Z</time>
      </trkpt>
      <trkpt lat="44.76256" lon="4.5275">
        <ele>783.89</ele>
        <time>2019-10-10T09:13:06.000Z</time>
      </trkpt>
      <trkpt lat="44.76256" lon="4.52736">
        <ele>785.5</ele>
        <time>2019-10-10T09:13:16.000Z</time>
      </trkpt>
      <trkpt lat="44.76255" lon="4.5272">
        <ele>786.79</ele>
        <time>2019-10-10T09:13:26.000Z</time>
      </trkpt>
      <trkpt lat="44.76253" lon="4.52705">
        <ele>787.61</ele>
        <time>2019-10-10T09:13:36.000Z</time>
      </trkpt>
      <trkpt lat="44.7625" lon="4.5269">
        <ele>788.3</ele>
        <time>2019-10-10T09:13:46.000Z</time>
      </trkpt>
      <trkpt lat="44.76248" lon="4.52674">
        <ele>789.02</ele>
        <time>2019-10-10T09:13:56.000Z</time>
      </trkpt>
      <trkpt lat="44.76246" lon="4.5266">
        <ele>789.81</ele>
        <time>2019-10-10T09:14:06.000Z</time>
      </trkpt>
      <trkpt lat="44.76243" lon="4.52643">
        <ele>790.63</ele>
        <time>2019-10-10T09:14:16.000Z</time>
      </trkpt>
      <trkpt lat="44.7624" lon="4.52627">
        <ele>791.28</ele>
        <time>2019-10-10T09:14:26.000Z</time>
      </trkpt>
      <trkpt lat="44.76236" lon="4.5261">
        <ele>791.56</ele>
        <time>2019-10-10T09:14:36.000Z</time>
      </trkpt>
      <trkpt lat="44.76231" lon="4.52593">
        <ele>791.88</ele>
        <time>2019-10-10T09:14:46.000Z</time>
      </trkpt>
      <trkpt lat="44.76229" lon="4.52578">
        <ele>792.78</ele>
        <time>2019-10-10T09:14:56.000Z</time>
      </trkpt>
      <trkpt lat="44.76226" lon="4.52562">
        <ele>793.74</ele>
        <time>2019-10-10T09:15:06.000Z</time>
      </trkpt>
      <trkpt lat="44.76224" lon="4.52548">
        <ele>794.6</ele>
        <time>2019-10-10T09:15:16.000Z</time>
      </trkpt>
      <trkpt lat="44.76218" lon="4.52529">
        <ele>795.28</ele>
        <time>2019-10-10T09:15:26.000Z</time>
      </trkpt>
      <trkpt lat="44.76213" lon="4.52511">
        <ele>796.02</ele>
        <time>2019-10-10T09:15:36.000Z</time>
      </trkpt>
      <trkpt lat="44.76208" lon="4.52495">
        <ele>796.52</ele>
        <time>2019-10-10T09:15:46.000Z</time>
      </trkpt>
      <trkpt lat="44.76203" lon="4.52479">
        <ele>797.15</ele>
        <time>2019-10-10T09:15:56.000Z</time>
      </trkpt>
      <trkpt lat="44.76202" lon="4.52466">
        <ele>798</ele>
        <time>2019-10-10T09:16:06.000Z</time>
      </trkpt>
      <trkpt lat="44.76202" lon="4.52451">
        <ele>799.51</ele>
        <time>2019-10-10T09:16:16.000Z</time>
      </trkpt>
      <trkpt lat="44.76206" lon="4.52437">
        <ele>801.8</ele>
        <time>2019-10-10T09:16:26.000Z</time>
      </trkpt>
      <trkpt lat="44.76211" lon="4.52424">
        <ele>804.15</ele>
        <time>2019-10-10T09:16:36.000Z</time>
      </trkpt>
      <trkpt lat="44.76219" lon="4.52416">
        <ele>806.85</ele>
        <time>2019-10-10T09:16:46.000Z</time>
      </trkpt>
      <trkpt lat="44.76228" lon="4.5241">
        <ele>809.38</ele>
        <time>2019-10-10T09:16:56.000Z</time>
      </trkpt>
      <trkpt lat="44.76236" lon="4.52405">
        <ele>811.72</ele>
        <time>2019-10-10T09:17:06.000Z</time>
      </trkpt>
      <trkpt lat="44.76243" lon="4.52397">
        <ele>814.03</ele>
        <time>2019-10-10T09:17:16.000Z</time>
      </trkpt>
      <trkpt lat="44.7625" lon="4.52393">
        <ele>815.98</ele>
        <time>2019-10-10T09:17:26.000Z</time>
      </trkpt>
      <trkpt lat="44.76255" lon="4.52382">
        <ele>818.6</ele>
        <time>2019-10-10T09:17:36.000Z</time>
      </trkpt>
      <trkpt lat="44.76259" lon="4.52369">
        <ele>821.42</ele>
        <time>2019-10-10T09:17:46.000Z</time>
      </trkpt>
      <trkpt lat="44.76255" lon="4.52354">
        <ele>822.86</ele>
        <time>2019-10-10T09:17:56.000Z</time>
      </trkpt>
      <trkpt lat="44.76253" lon="4.52341">
        <ele>824.46</ele>
        <time>2019-10-10T09:18:06.000Z</time>
      </trkpt>
      <trkpt lat="44.76251" lon="4.52327">
        <ele>826.25</ele>
        <time>2019-10-10T09:18:16.000Z</time>
      </trkpt>
      <trkpt lat="44.76249" lon="4.52312">
        <ele>828.22</ele>
        <time>2019-10-10T09:18:26.000Z</time>
      </trkpt>
      <trkpt lat="44.76248" lon="4.52299">
        <ele>830.32</ele>
        <time>2019-10-10T09:18:36.000Z</time>
      </trkpt>
      <trkpt lat="44.76247" lon="4.52284">
        <ele>832.66</ele>
        <time>2019-10-10T09:18:46.000Z</time>
      </trkpt>
      <trkpt lat="44.76246" lon="4.5227">
        <ele>835.14</ele>
        <time>2019-10-10T09:18:56.000Z</time>
      </trkpt>
      <trkpt lat="44.76244" lon="4.52254">
        <ele>837.28</ele>
        <time>2019-10-10T09:19:06.000Z</time>
      </trkpt>
      <trkpt lat="44.7624" lon="4.52243">
        <ele>838.34</ele>
        <time>2019-10-10T09:19:16.000Z</time>
      </trkpt>
      <trkpt lat="44.76238" lon="4.52228">
        <ele>840.25</ele>
        <time>2019-10-10T09:19:26.000Z</time>
      </trkpt>
      <trkpt lat="44.76239" lon="4.52216">
        <ele>842.91</ele>
        <time>2019-10-10T09:19:36.000Z</time>
      </trkpt>
      <trkpt lat="44.76237" lon="4.52202">
        <ele>845.04</ele>
        <time>2019-10-10T09:19:46.000Z</time>
      </trkpt>
      <trkpt lat="44.76234" lon="4.52185">
        <ele>847.09</ele>
        <time>2019-10-10T09:19:56.000Z</time>
      </trkpt>
      <trkpt lat="44.76229" lon="4.5217">
        <ele>848.12</ele>
        <time>2019-10-10T09:20:06.000Z</time>
      </trkpt>
      <trkpt lat="44.76226" lon="4.52155">
        <ele>849.71</ele>
        <time>2019-10-10T09:20:16.000Z</time>
      </trkpt>
      <trkpt lat="44.76225" lon="4.52139">
        <ele>851.41</ele>
        <time>2019-10-10T09:20:26.000Z</time>
      </trkpt>
      <trkpt lat="44.76222" lon="4.52124">
        <ele>853.07</ele>
        <time>2019-10-10T09:20:36.000Z</time>
      </trkpt>
      <trkpt lat="44.76222" lon="4.52109">
        <ele>855.28</ele>
        <time>2019-10-10T09:20:46.000Z</time>
      </trkpt>
      <trkpt lat="44.76222" lon="4.52096">
        <ele>857.43</ele>
        <time>2019-10-10T09:20:56.000Z</time>
      </trkpt>
      <trkpt lat="44.76223" lon="4.52084">
        <ele>860.26</ele>
        <time>2019-10-10T09:21:06.000Z</time>
      </trkpt>
      <trkpt lat="44.76226" lon="4.52076">
        <ele>863.13</ele>
        <time>2019-10-10T09:21:16.000Z</time>
      </trkpt>
      <trkpt lat="44.76231" lon="4.52071">
        <ele>866</ele>
        <time>2019-10-10T09:21:26.000Z</time>
      </trkpt>
      <trkpt lat="44.76233" lon="4.52062">
        <ele>868.7</ele>
        <time>2019-10-10T09:21:36.000Z</time>
      </trkpt>
      <trkpt lat="44.76235" lon="4.52053">
        <ele>871.69</ele>
        <time>2019-10-10T09:21:50.000Z</time>
      </trkpt>
      <trkpt lat="44.7624" lon="4.52047">
        <ele>874.6</ele>
        <time>2019-10-10T09:22:00.000Z</time>
      </trkpt>
      <trkpt lat="44.7624" lon="4.52039">
        <ele>877.03</ele>
        <time>2019-10-10T09:22:15.000Z</time>
      </trkpt>
      <trkpt lat="44.76242" lon="4.52031">
        <ele>879.6</ele>
        <time>2019-10-10T09:22:26.000Z</time>
      </trkpt>
      <trkpt lat="44.76245" lon="4.52023">
        <ele>882.32</ele>
        <time>2019-10-10T09:22:40.000Z</time>
      </trkpt>
      <trkpt lat="44.76244" lon="4.52016">
        <ele>884.03</ele>
        <time>2019-10-10T09:22:54.000Z</time>
      </trkpt>
      <trkpt lat="44.76245" lon="4.52005">
        <ele>886.79</ele>
        <time>2019-10-10T09:23:04.000Z</time>
      </trkpt>
      <trkpt lat="44.76244" lon="4.51997">
        <ele>888.24</ele>
        <time>2019-10-10T09:23:16.000Z</time>
      </trkpt>
      <trkpt lat="44.76241" lon="4.5199">
        <ele>888.89</ele>
        <time>2019-10-10T09:23:27.000Z</time>
      </trkpt>
      <trkpt lat="44.76239" lon="4.51981">
        <ele>890.31</ele>
        <time>2019-10-10T09:23:37.000Z</time>
      </trkpt>
      <trkpt lat="44.76235" lon="4.51974">
        <ele>890.93</ele>
        <time>2019-10-10T09:23:51.000Z</time>
      </trkpt>
      <trkpt lat="44.7623" lon="4.5197">
        <ele>890.94</ele>
        <time>2019-10-10T09:28:01.000Z</time>
      </trkpt>
      <trkpt lat="44.76221" lon="4.51959">
        <ele>891.53</ele>
        <time>2019-10-10T09:28:11.000Z</time>
      </trkpt>
      <trkpt lat="44.76212" lon="4.51951">
        <ele>891.58</ele>
        <time>2019-10-10T09:28:21.000Z</time>
      </trkpt>
      <trkpt lat="44.76205" lon="4.51938">
        <ele>892.92</ele>
        <time>2019-10-10T09:28:31.000Z</time>
      </trkpt>
      <trkpt lat="44.76192" lon="4.51933">
        <ele>892.02</ele>
        <time>2019-10-10T09:28:41.000Z</time>
      </trkpt>
      <trkpt lat="44.76183" lon="4.51922">
        <ele>892.37</ele>
        <time>2019-10-10T09:28:51.000Z</time>
      </trkpt>
      <trkpt lat="44.76174" lon="4.51914">
        <ele>892.16</ele>
        <time>2019-10-10T09:29:01.000Z</time>
      </trkpt>
      <trkpt lat="44.76164" lon="4.51907">
        <ele>891.57</ele>
        <time>2019-10-10T09:29:11.000Z</time>
      </trkpt>
      <trkpt lat="44.7615" lon="4.51902">
        <ele>890.43</ele>
        <time>2019-10-10T09:29:21.000Z</time>
      </trkpt>
      <trkpt lat="44.76142" lon="4.51895">
        <ele>890.09</ele>
        <time>2019-10-10T09:29:31.000Z</time>
      </trkpt>
      <trkpt lat="44.76131" lon="4.5189">
        <ele>889.45</ele>
        <time>2019-10-10T09:29:41.000Z</time>
      </trkpt>
      <trkpt lat="44.76119" lon="4.51881">
        <ele>889.12</ele>
        <time>2019-10-10T09:29:51.000Z</time>
      </trkpt>
      <trkpt lat="44.76109" lon="4.51874">
        <ele>888.98</ele>
        <time>2019-10-10T09:30:01.000Z</time>
      </trkpt>
      <trkpt lat="44.76102" lon="4.51867">
        <ele>889.04</ele>
        <time>2019-10-10T09:30:11.000Z</time>
      </trkpt>
      <trkpt lat="44.76093" lon="4.51857">
        <ele>889.4</ele>
        <time>2019-10-10T09:30:21.000Z</time>
      </trkpt>
      <trkpt lat="44.76082" lon="4.51852">
        <ele>889.55</ele>
        <time>2019-10-10T09:30:31.000Z</time>
      </trkpt>
      <trkpt lat="44.76073" lon="4.51847">
        <ele>889.94</ele>
        <time>2019-10-10T09:30:41.000Z</time>
      </trkpt>
      <trkpt lat="44.7606" lon="4.51845">
        <ele>890.42</ele>
        <time>2019-10-10T09:30:51.000Z</time>
      </trkpt>
      <trkpt lat="44.76049" lon="4.51841">
        <ele>891.16</ele>
        <time>2019-10-10T09:31:01.000Z</time>
      </trkpt>
      <trkpt lat="44.76041" lon="4.51837">
        <ele>891.88</ele>
        <time>2019-10-10T09:31:11.000Z</time>
      </trkpt>
      <trkpt lat="44.7603" lon="4.51835">
        <ele>892.62</ele>
        <time>2019-10-10T09:31:21.000Z</time>
      </trkpt>
      <trkpt lat="44.76019" lon="4.51835">
        <ele>893.22</ele>
        <time>2019-10-10T09:31:31.000Z</time>
      </trkpt>
      <trkpt lat="44.76008" lon="4.5183">
        <ele>894.14</ele>
        <time>2019-10-10T09:31:41.000Z</time>
      </trkpt>
      <trkpt lat="44.75997" lon="4.51826">
        <ele>894.8</ele>
        <time>2019-10-10T09:31:51.000Z</time>
      </trkpt>
      <trkpt lat="44.75987" lon="4.51824">
        <ele>895.2</ele>
        <time>2019-10-10T09:32:01.000Z</time>
      </trkpt>
      <trkpt lat="44.75977" lon="4.5182">
        <ele>895.88</ele>
        <time>2019-10-10T09:32:11.000Z</time>
      </trkpt>
      <trkpt lat="44.75964" lon="4.51817">
        <ele>896.39</ele>
        <time>2019-10-10T09:32:21.000Z</time>
      </trkpt>
      <trkpt lat="44.75951" lon="4.51815">
        <ele>896.85</ele>
        <time>2019-10-10T09:32:31.000Z</time>
      </trkpt>
      <trkpt lat="44.75937" lon="4.51822">
        <ele>895.65</ele>
        <time>2019-10-10T09:32:41.000Z</time>
      </trkpt>
      <trkpt lat="44.75925" lon="4.51822">
        <ele>895.49</ele>
        <time>2019-10-10T09:32:51.000Z</time>
      </trkpt>
      <trkpt lat="44.75913" lon="4.51822">
        <ele>895.39</ele>
        <time>2019-10-10T09:33:01.000Z</time>
      </trkpt>
      <trkpt lat="44.75902" lon="4.51815">
        <ele>896.84</ele>
        <time>2019-10-10T09:33:11.000Z</time>
      </trkpt>
      <trkpt lat="44.75889" lon="4.51815">
        <ele>896.99</ele>
        <time>2019-10-10T09:33:21.000Z</time>
      </trkpt>
      <trkpt lat="44.75875" lon="4.51817">
        <ele>896.64</ele>
        <time>2019-10-10T09:33:31.000Z</time>
      </trkpt>
      <trkpt lat="44.75863" lon="4.51815">
        <ele>896.68</ele>
        <time>2019-10-10T09:33:41.000Z</time>
      </trkpt>
      <trkpt lat="44.75851" lon="4.51813">
        <ele>896.63</ele>
        <time>2019-10-10T09:33:51.000Z</time>
      </trkpt>
      <trkpt lat="44.75838" lon="4.51812">
        <ele>895.66</ele>
        <time>2019-10-10T09:34:01.000Z</time>
      </trkpt>
      <trkpt lat="44.75829" lon="4.51805">
        <ele>895.63</ele>
        <time>2019-10-10T09:34:11.000Z</time>
      </trkpt>
      <trkpt lat="44.7583" lon="4.51797">
        <ele>897.28</ele>
        <time>2019-10-10T09:34:24.000Z</time>
      </trkpt>
      <trkpt lat="44.75833" lon="4.51788">
        <ele>899.21</ele>
        <time>2019-10-10T09:34:34.000Z</time>
      </trkpt>
      <trkpt lat="44.75837" lon="4.51776">
        <ele>901.76</ele>
        <time>2019-10-10T09:34:44.000Z</time>
      </trkpt>
      <trkpt lat="44.7584" lon="4.5177">
        <ele>903.18</ele>
        <time>2019-10-10T09:34:54.000Z</time>
      </trkpt>
      <trkpt lat="44.75841" lon="4.51758">
        <ele>905.05</ele>
        <time>2019-10-10T09:35:04.000Z</time>
      </trkpt>
      <trkpt lat="44.75846" lon="4.51749">
        <ele>906.84</ele>
        <time>2019-10-10T09:35:14.000Z</time>
      </trkpt>
      <trkpt lat="44.75848" lon="4.5174">
        <ele>908.11</ele>
        <time>2019-10-10T09:35:24.000Z</time>
      </trkpt>
      <trkpt lat="44.75852" lon="4.51727">
        <ele>909.68</ele>
        <time>2019-10-10T09:35:34.000Z</time>
      </trkpt>
      <trkpt lat="44.75856" lon="4.51716">
        <ele>910.77</ele>
        <time>2019-10-10T09:35:44.000Z</time>
      </trkpt>
      <trkpt lat="44.7586" lon="4.51707">
        <ele>911.46</ele>
        <time>2019-10-10T09:35:54.000Z</time>
      </trkpt>
      <trkpt lat="44.7586" lon="4.51699">
        <ele>911.89</ele>
        <time>2019-10-10T09:36:04.000Z</time>
      </trkpt>
      <trkpt lat="44.75865" lon="4.51695">
        <ele>912.06</ele>
        <time>2019-10-10T09:36:14.000Z</time>
      </trkpt>
      <trkpt lat="44.75866" lon="4.51687">
        <ele>912.32</ele>
        <time>2019-10-10T09:36:24.000Z</time>
      </trkpt>
      <trkpt lat="44.75861" lon="4.51683">
        <ele>912.57</ele>
        <time>2019-10-10T09:37:06.000Z</time>
      </trkpt>
      <trkpt lat="44.75857" lon="4.51677">
        <ele>912.8</ele>
        <time>2019-10-10T09:37:20.000Z</time>
      </trkpt>
      <trkpt lat="44.75854" lon="4.5167">
        <ele>913.03</ele>
        <time>2019-10-10T09:37:30.000Z</time>
      </trkpt>
      <trkpt lat="44.75847" lon="4.51664">
        <ele>913.12</ele>
        <time>2019-10-10T09:37:40.000Z</time>
      </trkpt>
      <trkpt lat="44.75844" lon="4.5165">
        <ele>913.47</ele>
        <time>2019-10-10T09:37:50.000Z</time>
      </trkpt>
      <trkpt lat="44.75843" lon="4.51637">
        <ele>913.73</ele>
        <time>2019-10-10T09:38:00.000Z</time>
      </trkpt>
      <trkpt lat="44.75837" lon="4.51626">
        <ele>913.78</ele>
        <time>2019-10-10T09:38:10.000Z</time>
      </trkpt>
      <trkpt lat="44.75829" lon="4.51615">
        <ele>913.6</ele>
        <time>2019-10-10T09:38:20.000Z</time>
      </trkpt>
      <trkpt lat="44.75825" lon="4.5161">
        <ele>913.39</ele>
        <time>2019-10-10T09:38:30.000Z</time>
      </trkpt>
      <trkpt lat="44.75818" lon="4.51601">
        <ele>913.03</ele>
        <time>2019-10-10T09:38:40.000Z</time>
      </trkpt>
      <trkpt lat="44.7581" lon="4.51588">
        <ele>912.51</ele>
        <time>2019-10-10T09:38:50.000Z</time>
      </trkpt>
      <trkpt lat="44.75807" lon="4.51574">
        <ele>912.49</ele>
        <time>2019-10-10T09:39:00.000Z</time>
      </trkpt>
      <trkpt lat="44.75805" lon="4.51557">
        <ele>912.44</ele>
        <time>2019-10-10T09:39:10.000Z</time>
      </trkpt>
      <trkpt lat="44.75803" lon="4.51543">
        <ele>912.19</ele>
        <time>2019-10-10T09:39:20.000Z</time>
      </trkpt>
      <trkpt lat="44.75801" lon="4.51527">
        <ele>911.85</ele>
        <time>2019-10-10T09:39:30.000Z</time>
      </trkpt>
      <trkpt lat="44.75801" lon="4.51512">
        <ele>911.5</ele>
        <time>2019-10-10T09:39:40.000Z</time>
      </trkpt>
      <trkpt lat="44.75797" lon="4.51495">
        <ele>910.89</ele>
        <time>2019-10-10T09:39:50.000Z</time>
      </trkpt>
      <trkpt lat="44.75792" lon="4.51479">
        <ele>910.23</ele>
        <time>2019-10-10T09:40:00.000Z</time>
      </trkpt>
      <trkpt lat="44.75786" lon="4.51466">
        <ele>909.55</ele>
        <time>2019-10-10T09:40:10.000Z</time>
      </trkpt>
      <trkpt lat="44.75777" lon="4.51455">
        <ele>908.68</ele>
        <time>2019-10-10T09:40:20.000Z</time>
      </trkpt>
      <trkpt lat="44.75768" lon="4.51446">
        <ele>907.74</ele>
        <time>2019-10-10T09:40:30.000Z</time>
      </trkpt>
      <trkpt lat="44.75758" lon="4.51435">
        <ele>906.55</ele>
        <time>2019-10-10T09:40:40.000Z</time>
      </trkpt>
      <trkpt lat="44.7575" lon="4.51424">
        <ele>905.29</ele>
        <time>2019-10-10T09:40:50.000Z</time>
      </trkpt>
      <trkpt lat="44.75744" lon="4.51409">
        <ele>903.87</ele>
        <time>2019-10-10T09:41:00.000Z</time>
      </trkpt>
      <trkpt lat="44.75741" lon="4.51391">
        <ele>902.36</ele>
        <time>2019-10-10T09:41:10.000Z</time>
      </trkpt>
      <trkpt lat="44.75743" lon="4.51376">
        <ele>901.54</ele>
        <time>2019-10-10T09:41:20.000Z</time>
      </trkpt>
      <trkpt lat="44.75748" lon="4.51361">
        <ele>901.06</ele>
        <time>2019-10-10T09:41:30.000Z</time>
      </trkpt>
      <trkpt lat="44.75751" lon="4.51346">
        <ele>900.22</ele>
        <time>2019-10-10T09:41:40.000Z</time>
      </trkpt>
      <trkpt lat="44.75755" lon="4.51331">
        <ele>899.39</ele>
        <time>2019-10-10T09:41:50.000Z</time>
      </trkpt>
      <trkpt lat="44.75761" lon="4.51313">
        <ele>898.3</ele>
        <time>2019-10-10T09:42:00.000Z</time>
      </trkpt>
      <trkpt lat="44.75768" lon="4.51301">
        <ele>897.48</ele>
        <time>2019-10-10T09:42:10.000Z</time>
      </trkpt>
      <trkpt lat="44.7577" lon="4.51283">
        <ele>895.59</ele>
        <time>2019-10-10T09:42:20.000Z</time>
      </trkpt>
      <trkpt lat="44.75768" lon="4.51264">
        <ele>893.53</ele>
        <time>2019-10-10T09:42:30.000Z</time>
      </trkpt>
      <trkpt lat="44.75766" lon="4.51244">
        <ele>891.72</ele>
        <time>2019-10-10T09:42:40.000Z</time>
      </trkpt>
      <trkpt lat="44.75762" lon="4.51229">
        <ele>890.57</ele>
        <time>2019-10-10T09:42:50.000Z</time>
      </trkpt>
      <trkpt lat="44.75756" lon="4.51213">
        <ele>889.55</ele>
        <time>2019-10-10T09:43:00.000Z</time>
      </trkpt>
      <trkpt lat="44.75749" lon="4.51199">
        <ele>888.61</ele>
        <time>2019-10-10T09:43:10.000Z</time>
      </trkpt>
      <trkpt lat="44.75742" lon="4.51185">
        <ele>887.64</ele>
        <time>2019-10-10T09:43:20.000Z</time>
      </trkpt>
      <trkpt lat="44.75737" lon="4.51173">
        <ele>886.66</ele>
        <time>2019-10-10T09:43:30.000Z</time>
      </trkpt>
      <trkpt lat="44.75737" lon="4.51158">
        <ele>886.68</ele>
        <time>2019-10-10T09:43:40.000Z</time>
      </trkpt>
      <trkpt lat="44.75733" lon="4.51142">
        <ele>886.07</ele>
        <time>2019-10-10T09:43:50.000Z</time>
      </trkpt>
      <trkpt lat="44.75731" lon="4.51125">
        <ele>886.03</ele>
        <time>2019-10-10T09:44:00.000Z</time>
      </trkpt>
      <trkpt lat="44.75728" lon="4.5111">
        <ele>886.07</ele>
        <time>2019-10-10T09:44:10.000Z</time>
      </trkpt>
      <trkpt lat="44.75726" lon="4.51094">
        <ele>886.48</ele>
        <time>2019-10-10T09:44:20.000Z</time>
      </trkpt>
      <trkpt lat="44.75722" lon="4.51079">
        <ele>886.87</ele>
        <time>2019-10-10T09:44:30.000Z</time>
      </trkpt>
      <trkpt lat="44.75712" lon="4.51066">
        <ele>886.45</ele>
        <time>2019-10-10T09:44:40.000Z</time>
      </trkpt>
      <trkpt lat="44.75702" lon="4.51058">
        <ele>885.37</ele>
        <time>2019-10-10T09:44:50.000Z</time>
      </trkpt>
      <trkpt lat="44.75689" lon="4.51049">
        <ele>883.89</ele>
        <time>2019-10-10T09:45:00.000Z</time>
      </trkpt>
      <trkpt lat="44.75679" lon="4.51038">
        <ele>883.52</ele>
        <time>2019-10-10T09:45:10.000Z</time>
      </trkpt>
      <trkpt lat="44.75668" lon="4.5103">
        <ele>882.74</ele>
        <time>2019-10-10T09:45:20.000Z</time>
      </trkpt>
      <trkpt lat="44.75659" lon="4.51019">
        <ele>883.1</ele>
        <time>2019-10-10T09:45:30.000Z</time>
      </trkpt>
      <trkpt lat="44.7565" lon="4.51019">
        <ele>881.24</ele>
        <time>2019-10-10T09:45:40.000Z</time>
      </trkpt>
      <trkpt lat="44.75651" lon="4.51035">
        <ele>878.72</ele>
        <time>2019-10-10T09:45:50.000Z</time>
      </trkpt>
      <trkpt lat="44.75656" lon="4.5105">
        <ele>877.09</ele>
        <time>2019-10-10T09:46:00.000Z</time>
      </trkpt>
      <trkpt lat="44.75663" lon="4.51065">
        <ele>875.9</ele>
        <time>2019-10-10T09:46:10.000Z</time>
      </trkpt>
      <trkpt lat="44.75667" lon="4.5108">
        <ele>874.39</ele>
        <time>2019-10-10T09:46:20.000Z</time>
      </trkpt>
      <trkpt lat="44.7567" lon="4.51095">
        <ele>873.21</ele>
        <time>2019-10-10T09:46:30.000Z</time>
      </trkpt>
      <trkpt lat="44.75675" lon="4.51111">
        <ele>872.48</ele>
        <time>2019-10-10T09:46:40.000Z</time>
      </trkpt>
      <trkpt lat="44.75677" lon="4.51127">
        <ele>871.62</ele>
        <time>2019-10-10T09:46:50.000Z</time>
      </trkpt>
      <trkpt lat="44.75679" lon="4.51145">
        <ele>870.84</ele>
        <time>2019-10-10T09:47:00.000Z</time>
      </trkpt>
      <trkpt lat="44.75679" lon="4.5116">
        <ele>869.82</ele>
        <time>2019-10-10T09:47:10.000Z</time>
      </trkpt>
      <trkpt lat="44.75676" lon="4.51177">
        <ele>868.15</ele>
        <time>2019-10-10T09:47:20.000Z</time>
      </trkpt>
      <trkpt lat="44.75673" lon="4.51194">
        <ele>866.44</ele>
        <time>2019-10-10T09:47:30.000Z</time>
      </trkpt>
      <trkpt lat="44.75669" lon="4.51214">
        <ele>865.11</ele>
        <time>2019-10-10T09:47:40.000Z</time>
      </trkpt>
      <trkpt lat="44.75667" lon="4.51228">
        <ele>864.57</ele>
        <time>2019-10-10T09:47:50.000Z</time>
      </trkpt>
      <trkpt lat="44.75664" lon="4.51245">
        <ele>864.08</ele>
        <time>2019-10-10T09:48:00.000Z</time>
      </trkpt>
      <trkpt lat="44.75658" lon="4.5126">
        <ele>863.01</ele>
        <time>2019-10-10T09:48:10.000Z</time>
      </trkpt>
      <trkpt lat="44.75648" lon="4.51274">
        <ele>861.02</ele>
        <time>2019-10-10T09:48:20.000Z</time>
      </trkpt>
      <trkpt lat="44.75636" lon="4.51284">
        <ele>858.12</ele>
        <time>2019-10-10T09:48:30.000Z</time>
      </trkpt>
      <trkpt lat="44.75627" lon="4.51294">
        <ele>855.81</ele>
        <time>2019-10-10T09:48:40.000Z</time>
      </trkpt>
      <trkpt lat="44.75619" lon="4.51306">
        <ele>853.94</ele>
        <time>2019-10-10T09:48:50.000Z</time>
      </trkpt>
      <trkpt lat="44.75609" lon="4.51321">
        <ele>851.58</ele>
        <time>2019-10-10T09:49:00.000Z</time>
      </trkpt>
      <trkpt lat="44.75603" lon="4.51336">
        <ele>850.35</ele>
        <time>2019-10-10T09:49:10.000Z</time>
      </trkpt>
      <trkpt lat="44.75595" lon="4.5135">
        <ele>848.74</ele>
        <time>2019-10-10T09:49:20.000Z</time>
      </trkpt>
      <trkpt lat="44.75589" lon="4.51366">
        <ele>848.17</ele>
        <time>2019-10-10T09:49:30.000Z</time>
      </trkpt>
      <trkpt lat="44.75584" lon="4.51378">
        <ele>847.54</ele>
        <time>2019-10-10T09:49:40.000Z</time>
      </trkpt>
      <trkpt lat="44.75578" lon="4.51395">
        <ele>847.01</ele>
        <time>2019-10-10T09:49:50.000Z</time>
      </trkpt>
      <trkpt lat="44.75573" lon="4.5141">
        <ele>846.05</ele>
        <time>2019-10-10T09:50:00.000Z</time>
      </trkpt>
      <trkpt lat="44.7557" lon="4.51426">
        <ele>844.55</ele>
        <time>2019-10-10T09:50:10.000Z</time>
      </trkpt>
      <trkpt lat="44.75565" lon="4.51441">
        <ele>842.23</ele>
        <time>2019-10-10T09:50:20.000Z</time>
      </trkpt>
      <trkpt lat="44.75564" lon="4.51458">
        <ele>840.96</ele>
        <time>2019-10-10T09:50:30.000Z</time>
      </trkpt>
      <trkpt lat="44.75565" lon="4.51469">
        <ele>840.19</ele>
        <time>2019-10-10T09:50:40.000Z</time>
      </trkpt>
      <trkpt lat="44.75562" lon="4.51476">
        <ele>838.67</ele>
        <time>2019-10-10T09:50:50.000Z</time>
      </trkpt>
      <trkpt lat="44.75558" lon="4.51482">
        <ele>836.77</ele>
        <time>2019-10-10T09:51:09.000Z</time>
      </trkpt>
      <trkpt lat="44.75553" lon="4.51492">
        <ele>833.96</ele>
        <time>2019-10-10T09:51:19.000Z</time>
      </trkpt>
      <trkpt lat="44.75544" lon="4.51504">
        <ele>830.1</ele>
        <time>2019-10-10T09:51:29.000Z</time>
      </trkpt>
      <trkpt lat="44.75535" lon="4.51518">
        <ele>826.29</ele>
        <time>2019-10-10T09:51:39.000Z</time>
      </trkpt>
      <trkpt lat="44.75527" lon="4.5153">
        <ele>823.22</ele>
        <time>2019-10-10T09:51:49.000Z</time>
      </trkpt>
      <trkpt lat="44.75519" lon="4.51541">
        <ele>820.45</ele>
        <time>2019-10-10T09:51:59.000Z</time>
      </trkpt>
      <trkpt lat="44.75509" lon="4.51547">
        <ele>818.09</ele>
        <time>2019-10-10T09:52:09.000Z</time>
      </trkpt>
      <trkpt lat="44.75499" lon="4.51554">
        <ele>815.73</ele>
        <time>2019-10-10T09:52:19.000Z</time>
      </trkpt>
      <trkpt lat="44.7549" lon="4.51558">
        <ele>813.83</ele>
        <time>2019-10-10T09:52:29.000Z</time>
      </trkpt>
      <trkpt lat="44.7548" lon="4.51562">
        <ele>812.1</ele>
        <time>2019-10-10T09:52:39.000Z</time>
      </trkpt>
      <trkpt lat="44.75467" lon="4.51568">
        <ele>810.08</ele>
        <time>2019-10-10T09:52:49.000Z</time>
      </trkpt>
      <trkpt lat="44.75458" lon="4.51571">
        <ele>808.69</ele>
        <time>2019-10-10T09:52:59.000Z</time>
      </trkpt>
      <trkpt lat="44.75448" lon="4.51581">
        <ele>806.56</ele>
        <time>2019-10-10T09:53:09.000Z</time>
      </trkpt>
      <trkpt lat="44.75438" lon="4.51586">
        <ele>805.03</ele>
        <time>2019-10-10T09:53:19.000Z</time>
      </trkpt>
      <trkpt lat="44.75428" lon="4.51584">
        <ele>804.23</ele>
        <time>2019-10-10T09:53:29.000Z</time>
      </trkpt>
      <trkpt lat="44.75418" lon="4.51582">
        <ele>803.23</ele>
        <time>2019-10-10T09:53:39.000Z</time>
      </trkpt>
      <trkpt lat="44.75406" lon="4.51577">
        <ele>802</ele>
        <time>2019-10-10T09:53:49.000Z</time>
      </trkpt>
      <trkpt lat="44.75398" lon="4.51586">
        <ele>800.3</ele>
        <time>2019-10-10T09:53:59.000Z</time>
      </trkpt>
      <trkpt lat="44.75392" lon="4.51599">
        <ele>798.26</ele>
        <time>2019-10-10T09:54:09.000Z</time>
      </trkpt>
      <trkpt lat="44.75382" lon="4.51606">
        <ele>796.45</ele>
        <time>2019-10-10T09:54:19.000Z</time>
      </trkpt>
      <trkpt lat="44.7537" lon="4.51609">
        <ele>794.89</ele>
        <time>2019-10-10T09:54:29.000Z</time>
      </trkpt>
      <trkpt lat="44.75358" lon="4.51604">
        <ele>793.98</ele>
        <time>2019-10-10T09:54:39.000Z</time>
      </trkpt>
      <trkpt lat="44.7535" lon="4.51595">
        <ele>793.39</ele>
        <time>2019-10-10T09:54:49.000Z</time>
      </trkpt>
      <trkpt lat="44.75351" lon="4.51579">
        <ele>793.51</ele>
        <time>2019-10-10T09:54:59.000Z</time>
      </trkpt>
      <trkpt lat="44.75355" lon="4.51563">
        <ele>793.22</ele>
        <time>2019-10-10T09:55:09.000Z</time>
      </trkpt>
      <trkpt lat="44.75357" lon="4.51545">
        <ele>791.63</ele>
        <time>2019-10-10T09:55:19.000Z</time>
      </trkpt>
      <trkpt lat="44.7536" lon="4.5153">
        <ele>790.2</ele>
        <time>2019-10-10T09:55:29.000Z</time>
      </trkpt>
      <trkpt lat="44.75364" lon="4.51514">
        <ele>788.98</ele>
        <time>2019-10-10T09:55:39.000Z</time>
      </trkpt>
      <trkpt lat="44.75368" lon="4.515">
        <ele>788.29</ele>
        <time>2019-10-10T09:55:49.000Z</time>
      </trkpt>
      <trkpt lat="44.75371" lon="4.51483">
        <ele>787.65</ele>
        <time>2019-10-10T09:55:59.000Z</time>
      </trkpt>
      <trkpt lat="44.75374" lon="4.51468">
        <ele>787.14</ele>
        <time>2019-10-10T09:56:09.000Z</time>
      </trkpt>
      <trkpt lat="44.75377" lon="4.51454">
        <ele>786.59</ele>
        <time>2019-10-10T09:56:19.000Z</time>
      </trkpt>
      <trkpt lat="44.75369" lon="4.51451">
        <ele>783.43</ele>
        <time>2019-10-10T09:56:29.000Z</time>
      </trkpt>
      <trkpt lat="44.75362" lon="4.51464">
        <ele>782.67</ele>
        <time>2019-10-10T09:56:39.000Z</time>
      </trkpt>
      <trkpt lat="44.75354" lon="4.51478">
        <ele>781.68</ele>
        <time>2019-10-10T09:56:49.000Z</time>
      </trkpt>
      <trkpt lat="44.75346" lon="4.5149">
        <ele>780.94</ele>
        <time>2019-10-10T09:56:59.000Z</time>
      </trkpt>
      <trkpt lat="44.75335" lon="4.51499">
        <ele>779.21</ele>
        <time>2019-10-10T09:57:09.000Z</time>
      </trkpt>
      <trkpt lat="44.75323" lon="4.51508">
        <ele>777.91</ele>
        <time>2019-10-10T09:57:19.000Z</time>
      </trkpt>
      <trkpt lat="44.7531" lon="4.51516">
        <ele>777.09</ele>
        <time>2019-10-10T09:57:29.000Z</time>
      </trkpt>
      <trkpt lat="44.75298" lon="4.51523">
        <ele>776.61</ele>
        <time>2019-10-10T09:57:39.000Z</time>
      </trkpt>
      <trkpt lat="44.75286" lon="4.51528">
        <ele>775.68</ele>
        <time>2019-10-10T09:57:49.000Z</time>
      </trkpt>
      <trkpt lat="44.75272" lon="4.51533">
        <ele>774.69</ele>
        <time>2019-10-10T09:57:59.000Z</time>
      </trkpt>
      <trkpt lat="44.75259" lon="4.51534">
        <ele>772.7</ele>
        <time>2019-10-10T09:58:09.000Z</time>
      </trkpt>
      <trkpt lat="44.75247" lon="4.51535">
        <ele>770.93</ele>
        <time>2019-10-10T09:58:19.000Z</time>
      </trkpt>
      <trkpt lat="44.75236" lon="4.5154">
        <ele>769.79</ele>
        <time>2019-10-10T09:58:29.000Z</time>
      </trkpt>
      <trkpt lat="44.75223" lon="4.51544">
        <ele>768</ele>
        <time>2019-10-10T09:58:39.000Z</time>
      </trkpt>
      <trkpt lat="44.75211" lon="4.51549">
        <ele>766.03</ele>
        <time>2019-10-10T09:58:49.000Z</time>
      </trkpt>
      <trkpt lat="44.752" lon="4.51556">
        <ele>764.93</ele>
        <time>2019-10-10T09:58:59.000Z</time>
      </trkpt>
      <trkpt lat="44.7519" lon="4.51564">
        <ele>763.92</ele>
        <time>2019-10-10T09:59:09.000Z</time>
      </trkpt>
      <trkpt lat="44.7518" lon="4.51575">
        <ele>762.83</ele>
        <time>2019-10-10T09:59:19.000Z</time>
      </trkpt>
      <trkpt lat="44.75168" lon="4.51584">
        <ele>761.29</ele>
        <time>2019-10-10T09:59:29.000Z</time>
      </trkpt>
      <trkpt lat="44.75157" lon="4.51591">
        <ele>759.66</ele>
        <time>2019-10-10T09:59:39.000Z</time>
      </trkpt>
      <trkpt lat="44.75145" lon="4.51595">
        <ele>758.11</ele>
        <time>2019-10-10T09:59:49.000Z</time>
      </trkpt>
      <trkpt lat="44.75134" lon="4.51595">
        <ele>756.74</ele>
        <time>2019-10-10T09:59:59.000Z</time>
      </trkpt>
      <trkpt lat="44.75122" lon="4.51593">
        <ele>755.34</ele>
        <time>2019-10-10T10:00:09.000Z</time>
      </trkpt>
      <trkpt lat="44.7511" lon="4.51594">
        <ele>754</ele>
        <time>2019-10-10T10:00:19.000Z</time>
      </trkpt>
      <trkpt lat="44.75098" lon="4.51592">
        <ele>752.48</ele>
        <time>2019-10-10T10:00:29.000Z</time>
      </trkpt>
      <trkpt lat="44.75085" lon="4.51589">
        <ele>750.61</ele>
        <time>2019-10-10T10:00:39.000Z</time>
      </trkpt>
      <trkpt lat="44.75073" lon="4.51595">
        <ele>749.03</ele>
        <time>2019-10-10T10:00:49.000Z</time>
      </trkpt>
      <trkpt lat="44.75061" lon="4.51599">
        <ele>747.22</ele>
        <time>2019-10-10T10:00:59.000Z</time>
      </trkpt>
      <trkpt lat="44.75049" lon="4.51607">
        <ele>745.65</ele>
        <time>2019-10-10T10:01:09.000Z</time>
      </trkpt>
      <trkpt lat="44.75037" lon="4.51617">
        <ele>744.08</ele>
        <time>2019-10-10T10:01:19.000Z</time>
      </trkpt>
      <trkpt lat="44.75026" lon="4.51624">
        <ele>742.78</ele>
        <time>2019-10-10T10:01:29.000Z</time>
      </trkpt>
      <trkpt lat="44.75013" lon="4.51626">
        <ele>741.29</ele>
        <time>2019-10-10T10:01:39.000Z</time>
      </trkpt>
      <trkpt lat="44.75002" lon="4.51628">
        <ele>740.02</ele>
        <time>2019-10-10T10:01:49.000Z</time>
      </trkpt>
      <trkpt lat="44.7499" lon="4.51631">
        <ele>738.92</ele>
        <time>2019-10-10T10:01:59.000Z</time>
      </trkpt>
      <trkpt lat="44.74979" lon="4.51639">
        <ele>738.45</ele>
        <time>2019-10-10T10:02:09.000Z</time>
      </trkpt>
      <trkpt lat="44.7497" lon="4.5165">
        <ele>738.28</ele>
        <time>2019-10-10T10:02:19.000Z</time>
      </trkpt>
      <trkpt lat="44.74964" lon="4.51667">
        <ele>738.26</ele>
        <time>2019-10-10T10:02:29.000Z</time>
      </trkpt>
      <trkpt lat="44.74968" lon="4.51681">
        <ele>738.25</ele>
        <time>2019-10-10T10:02:39.000Z</time>
      </trkpt>
      <trkpt lat="44.74978" lon="4.51686">
        <ele>738.66</ele>
        <time>2019-10-10T10:02:49.000Z</time>
      </trkpt>
      <trkpt lat="44.74974" lon="4.51692">
        <ele>738.01</ele>
        <time>2019-10-10T10:03:02.000Z</time>
      </trkpt>
      <trkpt lat="44.74963" lon="4.51694">
        <ele>737.01</ele>
        <time>2019-10-10T10:03:12.000Z</time>
      </trkpt>
      <trkpt lat="44.74954" lon="4.51696">
        <ele>735.99</ele>
        <time>2019-10-10T10:03:22.000Z</time>
      </trkpt>
      <trkpt lat="44.74945" lon="4.51702">
        <ele>734.58</ele>
        <time>2019-10-10T10:03:32.000Z</time>
      </trkpt>
      <trkpt lat="44.74933" lon="4.517">
        <ele>733.59</ele>
        <time>2019-10-10T10:03:42.000Z</time>
      </trkpt>
      <trkpt lat="44.74922" lon="4.51693">
        <ele>733.23</ele>
        <time>2019-10-10T10:03:52.000Z</time>
      </trkpt>
      <trkpt lat="44.74915" lon="4.51677">
        <ele>733.54</ele>
        <time>2019-10-10T10:04:02.000Z</time>
      </trkpt>
      <trkpt lat="44.74907" lon="4.51664">
        <ele>732.8</ele>
        <time>2019-10-10T10:04:12.000Z</time>
      </trkpt>
      <trkpt lat="44.74895" lon="4.51662">
        <ele>731.1</ele>
        <time>2019-10-10T10:04:22.000Z</time>
      </trkpt>
      <trkpt lat="44.74895" lon="4.51676">
        <ele>730.73</ele>
        <time>2019-10-10T10:04:32.000Z</time>
      </trkpt>
      <trkpt lat="44.74899" lon="4.51691">
        <ele>730.21</ele>
        <time>2019-10-10T10:04:42.000Z</time>
      </trkpt>
      <trkpt lat="44.74905" lon="4.51704">
        <ele>729.53</ele>
        <time>2019-10-10T10:04:52.000Z</time>
      </trkpt>
      <trkpt lat="44.74903" lon="4.51716">
        <ele>727.37</ele>
        <time>2019-10-10T10:05:02.000Z</time>
      </trkpt>
      <trkpt lat="44.74894" lon="4.51714">
        <ele>726.15</ele>
        <time>2019-10-10T10:05:12.000Z</time>
      </trkpt>
      <trkpt lat="44.74884" lon="4.51706">
        <ele>725.6</ele>
        <time>2019-10-10T10:05:22.000Z</time>
      </trkpt>
      <trkpt lat="44.74876" lon="4.51695">
        <ele>725.64</ele>
        <time>2019-10-10T10:05:32.000Z</time>
      </trkpt>
      <trkpt lat="44.74867" lon="4.51687">
        <ele>725.18</ele>
        <time>2019-10-10T10:05:42.000Z</time>
      </trkpt>
      <trkpt lat="44.74858" lon="4.51684">
        <ele>724.04</ele>
        <time>2019-10-10T10:05:52.000Z</time>
      </trkpt>
      <trkpt lat="44.74847" lon="4.51678">
        <ele>722.99</ele>
        <time>2019-10-10T10:06:02.000Z</time>
      </trkpt>
      <trkpt lat="44.74837" lon="4.51673">
        <ele>722.08</ele>
        <time>2019-10-10T10:06:12.000Z</time>
      </trkpt>
      <trkpt lat="44.7483" lon="4.51669">
        <ele>721.53</ele>
        <time>2019-10-10T10:06:22.000Z</time>
      </trkpt>
      <trkpt lat="44.74823" lon="4.51655">
        <ele>721.15</ele>
        <time>2019-10-10T10:06:32.000Z</time>
      </trkpt>
      <trkpt lat="44.74819" lon="4.5164">
        <ele>720.42</ele>
        <time>2019-10-10T10:06:42.000Z</time>
      </trkpt>
      <trkpt lat="44.74813" lon="4.51632">
        <ele>719.62</ele>
        <time>2019-10-10T10:06:52.000Z</time>
      </trkpt>
      <trkpt lat="44.74809" lon="4.51637">
        <ele>719.56</ele>
        <time>2019-10-10T10:07:03.000Z</time>
      </trkpt>
      <trkpt lat="44.74806" lon="4.51646">
        <ele>719.69</ele>
        <time>2019-10-10T10:07:13.000Z</time>
      </trkpt>
      <trkpt lat="44.74807" lon="4.51658">
        <ele>719.81</ele>
        <time>2019-10-10T10:07:23.000Z</time>
      </trkpt>
      <trkpt lat="44.74806" lon="4.51666">
        <ele>719.5</ele>
        <time>2019-10-10T10:07:38.000Z</time>
      </trkpt>
      <trkpt lat="44.74811" lon="4.51675">
        <ele>719.44</ele>
        <time>2019-10-10T10:07:48.000Z</time>
      </trkpt>
      <trkpt lat="44.7482" lon="4.51686">
        <ele>719.05</ele>
        <time>2019-10-10T10:07:58.000Z</time>
      </trkpt>
      <trkpt lat="44.74824" lon="4.51701">
        <ele>717.1</ele>
        <time>2019-10-10T10:08:08.000Z</time>
      </trkpt>
      <trkpt lat="44.74828" lon="4.51712">
        <ele>715.56</ele>
        <time>2019-10-10T10:08:18.000Z</time>
      </trkpt>
      <trkpt lat="44.74837" lon="4.51723">
        <ele>714.3</ele>
        <time>2019-10-10T10:08:28.000Z</time>
      </trkpt>
      <trkpt lat="44.74846" lon="4.5173">
        <ele>714.17</ele>
        <time>2019-10-10T10:08:38.000Z</time>
      </trkpt>
      <trkpt lat="44.74852" lon="4.51743">
        <ele>712.89</ele>
        <time>2019-10-10T10:08:48.000Z</time>
      </trkpt>
      <trkpt lat="44.74857" lon="4.51749">
        <ele>712.65</ele>
        <time>2019-10-10T10:08:58.000Z</time>
      </trkpt>
      <trkpt lat="44.74862" lon="4.51759">
        <ele>712.05</ele>
        <time>2019-10-10T10:09:08.000Z</time>
      </trkpt>
      <trkpt lat="44.74868" lon="4.5177">
        <ele>711.37</ele>
        <time>2019-10-10T10:09:18.000Z</time>
      </trkpt>
      <trkpt lat="44.74879" lon="4.51778">
        <ele>712.22</ele>
        <time>2019-10-10T10:09:28.000Z</time>
      </trkpt>
      <trkpt lat="44.74887" lon="4.51787">
        <ele>712.48</ele>
        <time>2019-10-10T10:09:38.000Z</time>
      </trkpt>
      <trkpt lat="44.74895" lon="4.51796">
        <ele>712.48</ele>
        <time>2019-10-10T10:09:48.000Z</time>
      </trkpt>
      <trkpt lat="44.74903" lon="4.51811">
        <ele>711.24</ele>
        <time>2019-10-10T10:09:58.000Z</time>
      </trkpt>
      <trkpt lat="44.7491" lon="4.51822">
        <ele>710.44</ele>
        <time>2019-10-10T10:10:08.000Z</time>
      </trkpt>
      <trkpt lat="44.74915" lon="4.51836">
        <ele>708.15</ele>
        <time>2019-10-10T10:10:18.000Z</time>
      </trkpt>
      <trkpt lat="44.74924" lon="4.51845">
        <ele>707.39</ele>
        <time>2019-10-10T10:10:28.000Z</time>
      </trkpt>
      <trkpt lat="44.7493" lon="4.51858">
        <ele>705.13</ele>
        <time>2019-10-10T10:10:38.000Z</time>
      </trkpt>
      <trkpt lat="44.74938" lon="4.51868">
        <ele>703.56</ele>
        <time>2019-10-10T10:10:48.000Z</time>
      </trkpt>
      <trkpt lat="44.74947" lon="4.51878">
        <ele>702.23</ele>
        <time>2019-10-10T10:10:58.000Z</time>
      </trkpt>
      <trkpt lat="44.74956" lon="4.5189">
        <ele>700.31</ele>
        <time>2019-10-10T10:11:08.000Z</time>
      </trkpt>
      <trkpt lat="44.74967" lon="4.51898">
        <ele>699.73</ele>
        <time>2019-10-10T10:11:18.000Z</time>
      </trkpt>
      <trkpt lat="44.74977" lon="4.51902">
        <ele>700</ele>
        <time>2019-10-10T10:11:28.000Z</time>
      </trkpt>
      <trkpt lat="44.74988" lon="4.51904">
        <ele>701.16</ele>
        <time>2019-10-10T10:11:38.000Z</time>
      </trkpt>
      <trkpt lat="44.75001" lon="4.51916">
        <ele>699.32</ele>
        <time>2019-10-10T10:11:48.000Z</time>
      </trkpt>
      <trkpt lat="44.75011" lon="4.51928">
        <ele>696.82</ele>
        <time>2019-10-10T10:11:58.000Z</time>
      </trkpt>
      <trkpt lat="44.75021" lon="4.51941">
        <ele>693.95</ele>
        <time>2019-10-10T10:12:08.000Z</time>
      </trkpt>
      <trkpt lat="44.75031" lon="4.51953">
        <ele>691.68</ele>
        <time>2019-10-10T10:12:18.000Z</time>
      </trkpt>
      <trkpt lat="44.75041" lon="4.51964">
        <ele>689.66</ele>
        <time>2019-10-10T10:12:28.000Z</time>
      </trkpt>
      <trkpt lat="44.75049" lon="4.51968">
        <ele>689.54</ele>
        <time>2019-10-10T10:12:38.000Z</time>
      </trkpt>
      <trkpt lat="44.75058" lon="4.51974">
        <ele>688.71</ele>
        <time>2019-10-10T10:12:48.000Z</time>
      </trkpt>
      <trkpt lat="44.75064" lon="4.51972">
        <ele>690.16</ele>
        <time>2019-10-10T10:12:58.000Z</time>
      </trkpt>
      <trkpt lat="44.75069" lon="4.51969">
        <ele>691.24</ele>
        <time>2019-10-10T10:13:36.000Z</time>
      </trkpt>
      <trkpt lat="44.75075" lon="4.51969">
        <ele>691.72</ele>
        <time>2019-10-10T10:37:50.000Z</time>
      </trkpt>
      <trkpt lat="44.75079" lon="4.51974">
        <ele>690.37</ele>
        <time>2019-10-10T10:45:39.000Z</time>
      </trkpt>
      <trkpt lat="44.75087" lon="4.51978">
        <ele>689.38</ele>
        <time>2019-10-10T10:45:49.000Z</time>
      </trkpt>
      <trkpt lat="44.75093" lon="4.51978">
        <ele>689.2</ele>
        <time>2019-10-10T10:45:59.000Z</time>
      </trkpt>
      <trkpt lat="44.75101" lon="4.51975">
        <ele>689.93</ele>
        <time>2019-10-10T10:46:09.000Z</time>
      </trkpt>
      <trkpt lat="44.7511" lon="4.51971">
        <ele>690.34</ele>
        <time>2019-10-10T10:46:19.000Z</time>
      </trkpt>
      <trkpt lat="44.7512" lon="4.51963">
        <ele>691.94</ele>
        <time>2019-10-10T10:46:29.000Z</time>
      </trkpt>
      <trkpt lat="44.75131" lon="4.51961">
        <ele>691.27</ele>
        <time>2019-10-10T10:46:39.000Z</time>
      </trkpt>
      <trkpt lat="44.7514" lon="4.51957">
        <ele>691.2</ele>
        <time>2019-10-10T10:46:49.000Z</time>
      </trkpt>
      <trkpt lat="44.75148" lon="4.51953">
        <ele>691.55</ele>
        <time>2019-10-10T10:46:59.000Z</time>
      </trkpt>
      <trkpt lat="44.75158" lon="4.51949">
        <ele>691.33</ele>
        <time>2019-10-10T10:47:09.000Z</time>
      </trkpt>
      <trkpt lat="44.75171" lon="4.51949">
        <ele>689.55</ele>
        <time>2019-10-10T10:47:19.000Z</time>
      </trkpt>
      <trkpt lat="44.75184" lon="4.51949">
        <ele>687.07</ele>
        <time>2019-10-10T10:47:29.000Z</time>
      </trkpt>
      <trkpt lat="44.75196" lon="4.5195">
        <ele>683.88</ele>
        <time>2019-10-10T10:47:39.000Z</time>
      </trkpt>
      <trkpt lat="44.75202" lon="4.51952">
        <ele>681.72</ele>
        <time>2019-10-10T10:47:49.000Z</time>
      </trkpt>
      <trkpt lat="44.7521" lon="4.51949">
        <ele>680.9</ele>
        <time>2019-10-10T10:47:59.000Z</time>
      </trkpt>
      <trkpt lat="44.75222" lon="4.51947">
        <ele>678.65</ele>
        <time>2019-10-10T10:48:09.000Z</time>
      </trkpt>
      <trkpt lat="44.75237" lon="4.51948">
        <ele>675.21</ele>
        <time>2019-10-10T10:48:19.000Z</time>
      </trkpt>
      <trkpt lat="44.75248" lon="4.51941">
        <ele>675.91</ele>
        <time>2019-10-10T10:48:29.000Z</time>
      </trkpt>
      <trkpt lat="44.75252" lon="4.51936">
        <ele>677.43</ele>
        <time>2019-10-10T10:48:39.000Z</time>
      </trkpt>
      <trkpt lat="44.75259" lon="4.51933">
        <ele>677.49</ele>
        <time>2019-10-10T10:48:49.000Z</time>
      </trkpt>
      <trkpt lat="44.75269" lon="4.51928">
        <ele>678.24</ele>
        <time>2019-10-10T10:48:59.000Z</time>
      </trkpt>
      <trkpt lat="44.75281" lon="4.51923">
        <ele>678.36</ele>
        <time>2019-10-10T10:49:09.000Z</time>
      </trkpt>
      <trkpt lat="44.75292" lon="4.51929">
        <ele>674.47</ele>
        <time>2019-10-10T10:49:19.000Z</time>
      </trkpt>
      <trkpt lat="44.75303" lon="4.51934">
        <ele>671.75</ele>
        <time>2019-10-10T10:49:29.000Z</time>
      </trkpt>
      <trkpt lat="44.75313" lon="4.51939">
        <ele>669.11</ele>
        <time>2019-10-10T10:49:39.000Z</time>
      </trkpt>
      <trkpt lat="44.75325" lon="4.5194">
        <ele>668.94</ele>
        <time>2019-10-10T10:49:49.000Z</time>
      </trkpt>
      <trkpt lat="44.75334" lon="4.51941">
        <ele>669.64</ele>
        <time>2019-10-10T10:49:59.000Z</time>
      </trkpt>
      <trkpt lat="44.75346" lon="4.51939">
        <ele>672.93</ele>
        <time>2019-10-10T10:50:09.000Z</time>
      </trkpt>
      <trkpt lat="44.75357" lon="4.51938">
        <ele>676.26</ele>
        <time>2019-10-10T10:50:19.000Z</time>
      </trkpt>
      <trkpt lat="44.75367" lon="4.5194">
        <ele>678.94</ele>
        <time>2019-10-10T10:50:29.000Z</time>
      </trkpt>
      <trkpt lat="44.75375" lon="4.51944">
        <ele>681.38</ele>
        <time>2019-10-10T10:50:39.000Z</time>
      </trkpt>
      <trkpt lat="44.75379" lon="4.51957">
        <ele>680.03</ele>
        <time>2019-10-10T10:50:49.000Z</time>
      </trkpt>
      <trkpt lat="44.7538" lon="4.51976">
        <ele>676.81</ele>
        <time>2019-10-10T10:50:59.000Z</time>
      </trkpt>
      <trkpt lat="44.75375" lon="4.51993">
        <ele>671.71</ele>
        <time>2019-10-10T10:51:09.000Z</time>
      </trkpt>
      <trkpt lat="44.75373" lon="4.52009">
        <ele>669.66</ele>
        <time>2019-10-10T10:51:19.000Z</time>
      </trkpt>
      <trkpt lat="44.75368" lon="4.5203">
        <ele>667.65</ele>
        <time>2019-10-10T10:51:29.000Z</time>
      </trkpt>
      <trkpt lat="44.75364" lon="4.52041">
        <ele>665.85</ele>
        <time>2019-10-10T10:51:39.000Z</time>
      </trkpt>
      <trkpt lat="44.75364" lon="4.52055">
        <ele>668.27</ele>
        <time>2019-10-10T10:51:49.000Z</time>
      </trkpt>
      <trkpt lat="44.75361" lon="4.52073">
        <ele>668.12</ele>
        <time>2019-10-10T10:51:59.000Z</time>
      </trkpt>
      <trkpt lat="44.75356" lon="4.52085">
        <ele>666.12</ele>
        <time>2019-10-10T10:52:09.000Z</time>
      </trkpt>
      <trkpt lat="44.75354" lon="4.52098">
        <ele>666.78</ele>
        <time>2019-10-10T10:52:19.000Z</time>
      </trkpt>
      <trkpt lat="44.75351" lon="4.52114">
        <ele>666.73</ele>
        <time>2019-10-10T10:52:29.000Z</time>
      </trkpt>
      <trkpt lat="44.75349" lon="4.5213">
        <ele>668.1</ele>
        <time>2019-10-10T10:52:39.000Z</time>
      </trkpt>
      <trkpt lat="44.75344" lon="4.52152">
        <ele>668.16</ele>
        <time>2019-10-10T10:52:49.000Z</time>
      </trkpt>
      <trkpt lat="44.75342" lon="4.52169">
        <ele>669.07</ele>
        <time>2019-10-10T10:52:59.000Z</time>
      </trkpt>
      <trkpt lat="44.7534" lon="4.52181">
        <ele>669.05</ele>
        <time>2019-10-10T10:53:09.000Z</time>
      </trkpt>
      <trkpt lat="44.75334" lon="4.52199">
        <ele>667.24</ele>
        <time>2019-10-10T10:53:19.000Z</time>
      </trkpt>
      <trkpt lat="44.7533" lon="4.52216">
        <ele>666.14</ele>
        <time>2019-10-10T10:53:29.000Z</time>
      </trkpt>
      <trkpt lat="44.75332" lon="4.52228">
        <ele>667.88</ele>
        <time>2019-10-10T10:53:39.000Z</time>
      </trkpt>
      <trkpt lat="44.7533" lon="4.52235">
        <ele>667.25</ele>
        <time>2019-10-10T10:53:49.000Z</time>
      </trkpt>
      <trkpt lat="44.75332" lon="4.52248">
        <ele>668.39</ele>
        <time>2019-10-10T10:53:59.000Z</time>
      </trkpt>
      <trkpt lat="44.75333" lon="4.52264">
        <ele>668.61</ele>
        <time>2019-10-10T10:54:09.000Z</time>
      </trkpt>
      <trkpt lat="44.75337" lon="4.52281">
        <ele>669.24</ele>
        <time>2019-10-10T10:54:19.000Z</time>
      </trkpt>
      <trkpt lat="44.75339" lon="4.52296">
        <ele>668.6</ele>
        <time>2019-10-10T10:54:29.000Z</time>
      </trkpt>
      <trkpt lat="44.75343" lon="4.5231">
        <ele>668.45</ele>
        <time>2019-10-10T10:54:39.000Z</time>
      </trkpt>
      <trkpt lat="44.7535" lon="4.52325">
        <ele>668.42</ele>
        <time>2019-10-10T10:54:49.000Z</time>
      </trkpt>
      <trkpt lat="44.75356" lon="4.52343">
        <ele>667.43</ele>
        <time>2019-10-10T10:54:59.000Z</time>
      </trkpt>
      <trkpt lat="44.75362" lon="4.52358">
        <ele>666.7</ele>
        <time>2019-10-10T10:55:09.000Z</time>
      </trkpt>
      <trkpt lat="44.75372" lon="4.52371">
        <ele>666.26</ele>
        <time>2019-10-10T10:55:19.000Z</time>
      </trkpt>
      <trkpt lat="44.75383" lon="4.52384">
        <ele>665.85</ele>
        <time>2019-10-10T10:55:29.000Z</time>
      </trkpt>
      <trkpt lat="44.75392" lon="4.52396">
        <ele>665.29</ele>
        <time>2019-10-10T10:55:39.000Z</time>
      </trkpt>
      <trkpt lat="44.75402" lon="4.52408">
        <ele>664.96</ele>
        <time>2019-10-10T10:55:49.000Z</time>
      </trkpt>
      <trkpt lat="44.7541" lon="4.52419">
        <ele>664.58</ele>
        <time>2019-10-10T10:55:59.000Z</time>
      </trkpt>
      <trkpt lat="44.75414" lon="4.52432">
        <ele>663.33</ele>
        <time>2019-10-10T10:56:09.000Z</time>
      </trkpt>
      <trkpt lat="44.75418" lon="4.52448">
        <ele>661.8</ele>
        <time>2019-10-10T10:56:19.000Z</time>
      </trkpt>
      <trkpt lat="44.75423" lon="4.52465">
        <ele>660.41</ele>
        <time>2019-10-10T10:56:29.000Z</time>
      </trkpt>
      <trkpt lat="44.75432" lon="4.52477">
        <ele>660.17</ele>
        <time>2019-10-10T10:56:39.000Z</time>
      </trkpt>
      <trkpt lat="44.7544" lon="4.52486">
        <ele>660.3</ele>
        <time>2019-10-10T10:56:49.000Z</time>
      </trkpt>
      <trkpt lat="44.75445" lon="4.52504">
        <ele>658.61</ele>
        <time>2019-10-10T10:56:59.000Z</time>
      </trkpt>
      <trkpt lat="44.75453" lon="4.52519">
        <ele>657.75</ele>
        <time>2019-10-10T10:57:09.000Z</time>
      </trkpt>
      <trkpt lat="44.75456" lon="4.52537">
        <ele>656.05</ele>
        <time>2019-10-10T10:57:19.000Z</time>
      </trkpt>
      <trkpt lat="44.75462" lon="4.52554">
        <ele>654.73</ele>
        <time>2019-10-10T10:57:29.000Z</time>
      </trkpt>
      <trkpt lat="44.7547" lon="4.52567">
        <ele>654.1</ele>
        <time>2019-10-10T10:57:39.000Z</time>
      </trkpt>
      <trkpt lat="44.75477" lon="4.52576">
        <ele>653.93</ele>
        <time>2019-10-10T10:57:49.000Z</time>
      </trkpt>
      <trkpt lat="44.7548" lon="4.52583">
        <ele>653.46</ele>
        <time>2019-10-10T10:58:00.000Z</time>
      </trkpt>
      <trkpt lat="44.75486" lon="4.52603">
        <ele>651.39</ele>
        <time>2019-10-10T10:58:10.000Z</time>
      </trkpt>
      <trkpt lat="44.75493" lon="4.52618">
        <ele>650.46</ele>
        <time>2019-10-10T10:58:20.000Z</time>
      </trkpt>
      <trkpt lat="44.75499" lon="4.52632">
        <ele>649.16</ele>
        <time>2019-10-10T10:58:30.000Z</time>
      </trkpt>
      <trkpt lat="44.75507" lon="4.52648">
        <ele>647.66</ele>
        <time>2019-10-10T10:58:40.000Z</time>
      </trkpt>
      <trkpt lat="44.75514" lon="4.52665">
        <ele>645.6</ele>
        <time>2019-10-10T10:58:50.000Z</time>
      </trkpt>
      <trkpt lat="44.75522" lon="4.52678">
        <ele>643.92</ele>
        <time>2019-10-10T10:59:00.000Z</time>
      </trkpt>
      <trkpt lat="44.7553" lon="4.52686">
        <ele>643.2</ele>
        <time>2019-10-10T10:59:10.000Z</time>
      </trkpt>
      <trkpt lat="44.7554" lon="4.52692">
        <ele>643.01</ele>
        <time>2019-10-10T10:59:20.000Z</time>
      </trkpt>
      <trkpt lat="44.7555" lon="4.52699">
        <ele>642.75</ele>
        <time>2019-10-10T10:59:30.000Z</time>
      </trkpt>
      <trkpt lat="44.75563" lon="4.52696">
        <ele>644.89</ele>
        <time>2019-10-10T10:59:40.000Z</time>
      </trkpt>
      <trkpt lat="44.75574" lon="4.52694">
        <ele>646.83</ele>
        <time>2019-10-10T10:59:50.000Z</time>
      </trkpt>
      <trkpt lat="44.75585" lon="4.52696">
        <ele>648.27</ele>
        <time>2019-10-10T11:00:00.000Z</time>
      </trkpt>
      <trkpt lat="44.75595" lon="4.52707">
        <ele>648.44</ele>
        <time>2019-10-10T11:00:10.000Z</time>
      </trkpt>
      <trkpt lat="44.75606" lon="4.5272">
        <ele>648.91</ele>
        <time>2019-10-10T11:00:20.000Z</time>
      </trkpt>
      <trkpt lat="44.75615" lon="4.52731">
        <ele>649.25</ele>
        <time>2019-10-10T11:00:30.000Z</time>
      </trkpt>
      <trkpt lat="44.75623" lon="4.52741">
        <ele>649.43</ele>
        <time>2019-10-10T11:00:40.000Z</time>
      </trkpt>
      <trkpt lat="44.75632" lon="4.52751">
        <ele>649.76</ele>
        <time>2019-10-10T11:00:50.000Z</time>
      </trkpt>
      <trkpt lat="44.7564" lon="4.52765">
        <ele>648.17</ele>
        <time>2019-10-10T11:01:00.000Z</time>
      </trkpt>
      <trkpt lat="44.75648" lon="4.52778">
        <ele>645.73</ele>
        <time>2019-10-10T11:01:10.000Z</time>
      </trkpt>
      <trkpt lat="44.75654" lon="4.52788">
        <ele>643.88</ele>
        <time>2019-10-10T11:01:20.000Z</time>
      </trkpt>
      <trkpt lat="44.7566" lon="4.52792">
        <ele>643.9</ele>
        <time>2019-10-10T11:01:30.000Z</time>
      </trkpt>
      <trkpt lat="44.7567" lon="4.52798">
        <ele>643.98</ele>
        <time>2019-10-10T11:01:40.000Z</time>
      </trkpt>
      <trkpt lat="44.75681" lon="4.528">
        <ele>645.95</ele>
        <time>2019-10-10T11:01:50.000Z</time>
      </trkpt>
      <trkpt lat="44.75686" lon="4.52801">
        <ele>647.07</ele>
        <time>2019-10-10T11:03:18.000Z</time>
      </trkpt>
      <trkpt lat="44.75694" lon="4.52798">
        <ele>650.2</ele>
        <time>2019-10-10T11:03:28.000Z</time>
      </trkpt>
      <trkpt lat="44.75701" lon="4.52803">
        <ele>649.99</ele>
        <time>2019-10-10T11:03:38.000Z</time>
      </trkpt>
      <trkpt lat="44.7571" lon="4.52806">
        <ele>650.82</ele>
        <time>2019-10-10T11:03:48.000Z</time>
      </trkpt>
      <trkpt lat="44.75715" lon="4.52815">
        <ele>647.65</ele>
        <time>2019-10-10T11:03:58.000Z</time>
      </trkpt>
      <trkpt lat="44.75708" lon="4.52813">
        <ele>646.95</ele>
        <time>2019-10-10T11:04:08.000Z</time>
      </trkpt>
      <trkpt lat="44.75699" lon="4.52814">
        <ele>644.62</ele>
        <time>2019-10-10T11:04:18.000Z</time>
      </trkpt>
      <trkpt lat="44.75702" lon="4.52821">
        <ele>642.37</ele>
        <time>2019-10-10T11:04:31.000Z</time>
      </trkpt>
      <trkpt lat="44.75706" lon="4.52828">
        <ele>640.72</ele>
        <time>2019-10-10T11:04:41.000Z</time>
      </trkpt>
      <trkpt lat="44.75708" lon="4.52835">
        <ele>638.15</ele>
        <time>2019-10-10T11:04:52.000Z</time>
      </trkpt>
      <trkpt lat="44.7571" lon="4.52845">
        <ele>634.61</ele>
        <time>2019-10-10T11:05:02.000Z</time>
      </trkpt>
      <trkpt lat="44.75705" lon="4.52851">
        <ele>631.67</ele>
        <time>2019-10-10T11:05:12.000Z</time>
      </trkpt>
      <trkpt lat="44.757" lon="4.52855">
        <ele>629.47</ele>
        <time>2019-10-10T11:05:22.000Z</time>
      </trkpt>
      <trkpt lat="44.7569" lon="4.52854">
        <ele>628.01</ele>
        <time>2019-10-10T11:05:32.000Z</time>
      </trkpt>
      <trkpt lat="44.7568" lon="4.52846">
        <ele>629.02</ele>
        <time>2019-10-10T11:05:42.000Z</time>
      </trkpt>
      <trkpt lat="44.75671" lon="4.52842">
        <ele>628.16</ele>
        <time>2019-10-10T11:05:52.000Z</time>
      </trkpt>
      <trkpt lat="44.75662" lon="4.52838">
        <ele>627.56</ele>
        <time>2019-10-10T11:06:02.000Z</time>
      </trkpt>
      <trkpt lat="44.75655" lon="4.52833">
        <ele>627.07</ele>
        <time>2019-10-10T11:06:12.000Z</time>
      </trkpt>
      <trkpt lat="44.75647" lon="4.52838">
        <ele>623.21</ele>
        <time>2019-10-10T11:06:22.000Z</time>
      </trkpt>
      <trkpt lat="44.75636" lon="4.52838">
        <ele>619.82</ele>
        <time>2019-10-10T11:06:32.000Z</time>
      </trkpt>
      <trkpt lat="44.75624" lon="4.52837">
        <ele>616.88</ele>
        <time>2019-10-10T11:06:42.000Z</time>
      </trkpt>
      <trkpt lat="44.75618" lon="4.52837">
        <ele>615.13</ele>
        <time>2019-10-10T11:06:52.000Z</time>
      </trkpt>
      <trkpt lat="44.75616" lon="4.5285">
        <ele>610.81</ele>
        <time>2019-10-10T11:07:02.000Z</time>
      </trkpt>
      <trkpt lat="44.75618" lon="4.52859">
        <ele>609.26</ele>
        <time>2019-10-10T11:07:12.000Z</time>
      </trkpt>
      <trkpt lat="44.75623" lon="4.52866">
        <ele>608.77</ele>
        <time>2019-10-10T11:07:29.000Z</time>
      </trkpt>
      <trkpt lat="44.7563" lon="4.52876">
        <ele>608.59</ele>
        <time>2019-10-10T11:07:39.000Z</time>
      </trkpt>
      <trkpt lat="44.75636" lon="4.52887">
        <ele>607.27</ele>
        <time>2019-10-10T11:07:49.000Z</time>
      </trkpt>
      <trkpt lat="44.7564" lon="4.52901">
        <ele>604.95</ele>
        <time>2019-10-10T11:07:59.000Z</time>
      </trkpt>
      <trkpt lat="44.75645" lon="4.52915">
        <ele>602.4</ele>
        <time>2019-10-10T11:08:09.000Z</time>
      </trkpt>
      <trkpt lat="44.75643" lon="4.52928">
        <ele>598.54</ele>
        <time>2019-10-10T11:08:19.000Z</time>
      </trkpt>
      <trkpt lat="44.75645" lon="4.52937">
        <ele>596.13</ele>
        <time>2019-10-10T11:08:29.000Z</time>
      </trkpt>
      <trkpt lat="44.75646" lon="4.52946">
        <ele>593.76</ele>
        <time>2019-10-10T11:08:39.000Z</time>
      </trkpt>
      <trkpt lat="44.7565" lon="4.52964">
        <ele>589.38</ele>
        <time>2019-10-10T11:08:49.000Z</time>
      </trkpt>
      <trkpt lat="44.75655" lon="4.52974">
        <ele>587.87</ele>
        <time>2019-10-10T11:08:59.000Z</time>
      </trkpt>
      <trkpt lat="44.75666" lon="4.52984">
        <ele>588.18</ele>
        <time>2019-10-10T11:09:09.000Z</time>
      </trkpt>
      <trkpt lat="44.75675" lon="4.5299">
        <ele>589.71</ele>
        <time>2019-10-10T11:09:19.000Z</time>
      </trkpt>
      <trkpt lat="44.75684" lon="4.52994">
        <ele>591.78</ele>
        <time>2019-10-10T11:09:29.000Z</time>
      </trkpt>
      <trkpt lat="44.75692" lon="4.52993">
        <ele>594.63</ele>
        <time>2019-10-10T11:09:39.000Z</time>
      </trkpt>
      <trkpt lat="44.75698" lon="4.52991">
        <ele>596.74</ele>
        <time>2019-10-10T11:09:55.000Z</time>
      </trkpt>
      <trkpt lat="44.75704" lon="4.52985">
        <ele>599.19</ele>
        <time>2019-10-10T11:10:05.000Z</time>
      </trkpt>
      <trkpt lat="44.7571" lon="4.52982">
        <ele>601.4</ele>
        <time>2019-10-10T11:10:15.000Z</time>
      </trkpt>
      <trkpt lat="44.75716" lon="4.52986">
        <ele>603.28</ele>
        <time>2019-10-10T11:10:25.000Z</time>
      </trkpt>
      <trkpt lat="44.75719" lon="4.52992">
        <ele>604.73</ele>
        <time>2019-10-10T11:10:44.000Z</time>
      </trkpt>
      <trkpt lat="44.75721" lon="4.53">
        <ele>605.48</ele>
        <time>2019-10-10T11:10:54.000Z</time>
      </trkpt>
      <trkpt lat="44.75725" lon="4.53006">
        <ele>606.92</ele>
        <time>2019-10-10T11:11:05.000Z</time>
      </trkpt>
      <trkpt lat="44.75726" lon="4.53014">
        <ele>607.76</ele>
        <time>2019-10-10T11:11:51.000Z</time>
      </trkpt>
      <trkpt lat="44.75725" lon="4.53024">
        <ele>607.84</ele>
        <time>2019-10-10T11:12:01.000Z</time>
      </trkpt>
      <trkpt lat="44.75727" lon="4.53034">
        <ele>609.85</ele>
        <time>2019-10-10T11:12:11.000Z</time>
      </trkpt>
      <trkpt lat="44.75729" lon="4.53043">
        <ele>611.18</ele>
        <time>2019-10-10T11:12:21.000Z</time>
      </trkpt>
      <trkpt lat="44.75729" lon="4.53055">
        <ele>611.97</ele>
        <time>2019-10-10T11:12:31.000Z</time>
      </trkpt>
      <trkpt lat="44.75728" lon="4.53067">
        <ele>612.28</ele>
        <time>2019-10-10T11:12:41.000Z</time>
      </trkpt>
      <trkpt lat="44.75729" lon="4.53076">
        <ele>612.73</ele>
        <time>2019-10-10T11:12:57.000Z</time>
      </trkpt>
      <trkpt lat="44.75731" lon="4.53084">
        <ele>613.75</ele>
        <time>2019-10-10T11:13:07.000Z</time>
      </trkpt>
      <trkpt lat="44.75733" lon="4.53092">
        <ele>614.17</ele>
        <time>2019-10-10T11:13:18.000Z</time>
      </trkpt>
      <trkpt lat="44.75738" lon="4.53102">
        <ele>615.14</ele>
        <time>2019-10-10T11:13:28.000Z</time>
      </trkpt>
      <trkpt lat="44.75744" lon="4.53108">
        <ele>616.97</ele>
        <time>2019-10-10T11:13:38.000Z</time>
      </trkpt>
      <trkpt lat="44.75751" lon="4.53118">
        <ele>618.68</ele>
        <time>2019-10-10T11:13:48.000Z</time>
      </trkpt>
      <trkpt lat="44.75756" lon="4.53129">
        <ele>618.63</ele>
        <time>2019-10-10T11:13:58.000Z</time>
      </trkpt>
      <trkpt lat="44.75759" lon="4.53122">
        <ele>621.37</ele>
        <time>2019-10-10T11:14:10.000Z</time>
      </trkpt>
      <trkpt lat="44.75757" lon="4.5311">
        <ele>622.47</ele>
        <time>2019-10-10T11:14:20.000Z</time>
      </trkpt>
      <trkpt lat="44.75757" lon="4.53102">
        <ele>623.56</ele>
        <time>2019-10-10T11:14:32.000Z</time>
      </trkpt>
      <trkpt lat="44.75763" lon="4.53104">
        <ele>625.75</ele>
        <time>2019-10-10T11:14:50.000Z</time>
      </trkpt>
      <trkpt lat="44.75766" lon="4.53113">
        <ele>626.18</ele>
        <time>2019-10-10T11:15:00.000Z</time>
      </trkpt>
      <trkpt lat="44.7577" lon="4.53107">
        <ele>628.8</ele>
        <time>2019-10-10T11:15:16.000Z</time>
      </trkpt>
      <trkpt lat="44.75767" lon="4.531">
        <ele>628.65</ele>
        <time>2019-10-10T11:15:26.000Z</time>
      </trkpt>
      <trkpt lat="44.75765" lon="4.53091">
        <ele>628.62</ele>
        <time>2019-10-10T11:15:37.000Z</time>
      </trkpt>
      <trkpt lat="44.75769" lon="4.53082">
        <ele>631.1</ele>
        <time>2019-10-10T11:15:47.000Z</time>
      </trkpt>
      <trkpt lat="44.75774" lon="4.53085">
        <ele>633.5</ele>
        <time>2019-10-10T11:16:31.000Z</time>
      </trkpt>
      <trkpt lat="44.75776" lon="4.53093">
        <ele>633.87</ele>
        <time>2019-10-10T11:16:43.000Z</time>
      </trkpt>
      <trkpt lat="44.75782" lon="4.53098">
        <ele>636.21</ele>
        <time>2019-10-10T11:16:53.000Z</time>
      </trkpt>
      <trkpt lat="44.75786" lon="4.53102">
        <ele>638.11</ele>
        <time>2019-10-10T11:17:11.000Z</time>
      </trkpt>
      <trkpt lat="44.75793" lon="4.53103">
        <ele>641.57</ele>
        <time>2019-10-10T11:17:23.000Z</time>
      </trkpt>
      <trkpt lat="44.75798" lon="4.53107">
        <ele>643.5</ele>
        <time>2019-10-10T11:17:39.000Z</time>
      </trkpt>
      <trkpt lat="44.75804" lon="4.53117">
        <ele>644.71</ele>
        <time>2019-10-10T11:17:49.000Z</time>
      </trkpt>
      <trkpt lat="44.7581" lon="4.53129">
        <ele>645.51</ele>
        <time>2019-10-10T11:17:59.000Z</time>
      </trkpt>
      <trkpt lat="44.75816" lon="4.53143">
        <ele>645.63</ele>
        <time>2019-10-10T11:18:09.000Z</time>
      </trkpt>
      <trkpt lat="44.75823" lon="4.53153">
        <ele>647.05</ele>
        <time>2019-10-10T11:18:19.000Z</time>
      </trkpt>
      <trkpt lat="44.75832" lon="4.53158">
        <ele>649.82</ele>
        <time>2019-10-10T11:18:29.000Z</time>
      </trkpt>
      <trkpt lat="44.75843" lon="4.53163">
        <ele>652.7</ele>
        <time>2019-10-10T11:18:39.000Z</time>
      </trkpt>
      <trkpt lat="44.75853" lon="4.53168">
        <ele>654.63</ele>
        <time>2019-10-10T11:18:49.000Z</time>
      </trkpt>
      <trkpt lat="44.75861" lon="4.53175">
        <ele>656.01</ele>
        <time>2019-10-10T11:18:59.000Z</time>
      </trkpt>
      <trkpt lat="44.75866" lon="4.5318">
        <ele>656.81</ele>
        <time>2019-10-10T11:19:09.000Z</time>
      </trkpt>
      <trkpt lat="44.75874" lon="4.53193">
        <ele>657.54</ele>
        <time>2019-10-10T11:19:19.000Z</time>
      </trkpt>
      <trkpt lat="44.75881" lon="4.53204">
        <ele>658.56</ele>
        <time>2019-10-10T11:19:29.000Z</time>
      </trkpt>
      <trkpt lat="44.75887" lon="4.53217">
        <ele>659.33</ele>
        <time>2019-10-10T11:19:39.000Z</time>
      </trkpt>
      <trkpt lat="44.75888" lon="4.53229">
        <ele>658.96</ele>
        <time>2019-10-10T11:19:49.000Z</time>
      </trkpt>
      <trkpt lat="44.75885" lon="4.53239">
        <ele>657.38</ele>
        <time>2019-10-10T11:19:59.000Z</time>
      </trkpt>
      <trkpt lat="44.75882" lon="4.53252">
        <ele>655.44</ele>
        <time>2019-10-10T11:20:09.000Z</time>
      </trkpt>
      <trkpt lat="44.75888" lon="4.53266">
        <ele>655.82</ele>
        <time>2019-10-10T11:20:19.000Z</time>
      </trkpt>
      <trkpt lat="44.75895" lon="4.53278">
        <ele>656.96</ele>
        <time>2019-10-10T11:20:29.000Z</time>
      </trkpt>
      <trkpt lat="44.75902" lon="4.53294">
        <ele>657.42</ele>
        <time>2019-10-10T11:20:39.000Z</time>
      </trkpt>
      <trkpt lat="44.75904" lon="4.53304">
        <ele>657.18</ele>
        <time>2019-10-10T11:20:49.000Z</time>
      </trkpt>
      <trkpt lat="44.75904" lon="4.5332">
        <ele>655.53</ele>
        <time>2019-10-10T11:20:59.000Z</time>
      </trkpt>
      <trkpt lat="44.75902" lon="4.53337">
        <ele>653.01</ele>
        <time>2019-10-10T11:21:09.000Z</time>
      </trkpt>
      <trkpt lat="44.75904" lon="4.53356">
        <ele>650.61</ele>
        <time>2019-10-10T11:21:19.000Z</time>
      </trkpt>
      <trkpt lat="44.75907" lon="4.53373">
        <ele>648.53</ele>
        <time>2019-10-10T11:21:29.000Z</time>
      </trkpt>
      <trkpt lat="44.75911" lon="4.5339">
        <ele>647.19</ele>
        <time>2019-10-10T11:21:39.000Z</time>
      </trkpt>
      <trkpt lat="44.75915" lon="4.53407">
        <ele>647.52</ele>
        <time>2019-10-10T11:21:49.000Z</time>
      </trkpt>
      <trkpt lat="44.7592" lon="4.53418">
        <ele>649.26</ele>
        <time>2019-10-10T11:21:59.000Z</time>
      </trkpt>
      <trkpt lat="44.75923" lon="4.53425">
        <ele>651.37</ele>
        <time>2019-10-10T11:22:11.000Z</time>
      </trkpt>
      <trkpt lat="44.75928" lon="4.53431">
        <ele>653.91</ele>
        <time>2019-10-10T11:22:21.000Z</time>
      </trkpt>
      <trkpt lat="44.75924" lon="4.53447">
        <ele>654.59</ele>
        <time>2019-10-10T11:22:31.000Z</time>
      </trkpt>
      <trkpt lat="44.75915" lon="4.53456">
        <ele>652.97</ele>
        <time>2019-10-10T11:22:41.000Z</time>
      </trkpt>
      <trkpt lat="44.75903" lon="4.53468">
        <ele>651.88</ele>
        <time>2019-10-10T11:22:51.000Z</time>
      </trkpt>
      <trkpt lat="44.7589" lon="4.5348">
        <ele>651.17</ele>
        <time>2019-10-10T11:23:01.000Z</time>
      </trkpt>
      <trkpt lat="44.75883" lon="4.53485">
        <ele>649.95</ele>
        <time>2019-10-10T11:23:11.000Z</time>
      </trkpt>
      <trkpt lat="44.75872" lon="4.53488">
        <ele>647.64</ele>
        <time>2019-10-10T11:23:21.000Z</time>
      </trkpt>
      <trkpt lat="44.75863" lon="4.5349">
        <ele>645.4</ele>
        <time>2019-10-10T11:23:31.000Z</time>
      </trkpt>
      <trkpt lat="44.75853" lon="4.53494">
        <ele>643.43</ele>
        <time>2019-10-10T11:23:41.000Z</time>
      </trkpt>
      <trkpt lat="44.75842" lon="4.53503">
        <ele>643.04</ele>
        <time>2019-10-10T11:23:51.000Z</time>
      </trkpt>
      <trkpt lat="44.75834" lon="4.53511">
        <ele>644.1</ele>
        <time>2019-10-10T11:24:01.000Z</time>
      </trkpt>
      <trkpt lat="44.75827" lon="4.5352">
        <ele>645.5</ele>
        <time>2019-10-10T11:24:11.000Z</time>
      </trkpt>
      <trkpt lat="44.75816" lon="4.5353">
        <ele>647.13</ele>
        <time>2019-10-10T11:24:21.000Z</time>
      </trkpt>
      <trkpt lat="44.75805" lon="4.53536">
        <ele>647.22</ele>
        <time>2019-10-10T11:24:31.000Z</time>
      </trkpt>
      <trkpt lat="44.75792" lon="4.5354">
        <ele>646.06</ele>
        <time>2019-10-10T11:24:41.000Z</time>
      </trkpt>
      <trkpt lat="44.75782" lon="4.53546">
        <ele>646.34</ele>
        <time>2019-10-10T11:24:51.000Z</time>
      </trkpt>
      <trkpt lat="44.7577" lon="4.53549">
        <ele>644.7</ele>
        <time>2019-10-10T11:25:01.000Z</time>
      </trkpt>
      <trkpt lat="44.75758" lon="4.53554">
        <ele>643.5</ele>
        <time>2019-10-10T11:25:11.000Z</time>
      </trkpt>
      <trkpt lat="44.75751" lon="4.53556">
        <ele>642.44</ele>
        <time>2019-10-10T11:25:21.000Z</time>
      </trkpt>
      <trkpt lat="44.7574" lon="4.53556">
        <ele>639.83</ele>
        <time>2019-10-10T11:25:31.000Z</time>
      </trkpt>
      <trkpt lat="44.75729" lon="4.53562">
        <ele>638.62</ele>
        <time>2019-10-10T11:25:41.000Z</time>
      </trkpt>
      <trkpt lat="44.75719" lon="4.53567">
        <ele>637.31</ele>
        <time>2019-10-10T11:25:51.000Z</time>
      </trkpt>
      <trkpt lat="44.75711" lon="4.5357">
        <ele>635.99</ele>
        <time>2019-10-10T11:26:01.000Z</time>
      </trkpt>
      <trkpt lat="44.757" lon="4.53578">
        <ele>635.1</ele>
        <time>2019-10-10T11:26:11.000Z</time>
      </trkpt>
      <trkpt lat="44.75688" lon="4.53582">
        <ele>632.47</ele>
        <time>2019-10-10T11:26:21.000Z</time>
      </trkpt>
      <trkpt lat="44.75678" lon="4.53585">
        <ele>630.35</ele>
        <time>2019-10-10T11:26:31.000Z</time>
      </trkpt>
      <trkpt lat="44.75666" lon="4.53593">
        <ele>628.19</ele>
        <time>2019-10-10T11:26:41.000Z</time>
      </trkpt>
      <trkpt lat="44.75655" lon="4.53601">
        <ele>625.98</ele>
        <time>2019-10-10T11:26:51.000Z</time>
      </trkpt>
      <trkpt lat="44.75647" lon="4.53611">
        <ele>624.98</ele>
        <time>2019-10-10T11:27:01.000Z</time>
      </trkpt>
      <trkpt lat="44.75638" lon="4.53624">
        <ele>624.21</ele>
        <time>2019-10-10T11:27:11.000Z</time>
      </trkpt>
      <trkpt lat="44.75626" lon="4.53639">
        <ele>622.29</ele>
        <time>2019-10-10T11:27:21.000Z</time>
      </trkpt>
      <trkpt lat="44.7562" lon="4.53651">
        <ele>621.97</ele>
        <time>2019-10-10T11:27:31.000Z</time>
      </trkpt>
      <trkpt lat="44.75612" lon="4.53664">
        <ele>621.22</ele>
        <time>2019-10-10T11:27:41.000Z</time>
      </trkpt>
      <trkpt lat="44.75601" lon="4.53677">
        <ele>618.98</ele>
        <time>2019-10-10T11:27:51.000Z</time>
      </trkpt>
      <trkpt lat="44.75592" lon="4.53691">
        <ele>616.95</ele>
        <time>2019-10-10T11:28:01.000Z</time>
      </trkpt>
      <trkpt lat="44.75586" lon="4.53705">
        <ele>615.82</ele>
        <time>2019-10-10T11:28:11.000Z</time>
      </trkpt>
      <trkpt lat="44.75581" lon="4.5372">
        <ele>614.92</ele>
        <time>2019-10-10T11:28:21.000Z</time>
      </trkpt>
      <trkpt lat="44.7558" lon="4.53735">
        <ele>614.46</ele>
        <time>2019-10-10T11:28:31.000Z</time>
      </trkpt>
      <trkpt lat="44.75576" lon="4.53752">
        <ele>613.08</ele>
        <time>2019-10-10T11:28:41.000Z</time>
      </trkpt>
      <trkpt lat="44.75576" lon="4.53769">
        <ele>612.37</ele>
        <time>2019-10-10T11:28:51.000Z</time>
      </trkpt>
      <trkpt lat="44.75575" lon="4.53779">
        <ele>611.48</ele>
        <time>2019-10-10T11:29:01.000Z</time>
      </trkpt>
      <trkpt lat="44.75568" lon="4.5378">
        <ele>609.92</ele>
        <time>2019-10-10T11:29:11.000Z</time>
      </trkpt>
      <trkpt lat="44.75559" lon="4.53771">
        <ele>608.7</ele>
        <time>2019-10-10T11:29:21.000Z</time>
      </trkpt>
      <trkpt lat="44.75556" lon="4.53778">
        <ele>607.77</ele>
        <time>2019-10-10T11:29:31.000Z</time>
      </trkpt>
      <trkpt lat="44.7556" lon="4.53793">
        <ele>607.56</ele>
        <time>2019-10-10T11:29:41.000Z</time>
      </trkpt>
      <trkpt lat="44.75566" lon="4.53806">
        <ele>607.28</ele>
        <time>2019-10-10T11:29:51.000Z</time>
      </trkpt>
      <trkpt lat="44.7557" lon="4.53824">
        <ele>605.94</ele>
        <time>2019-10-10T11:30:01.000Z</time>
      </trkpt>
      <trkpt lat="44.75574" lon="4.53841">
        <ele>604.31</ele>
        <time>2019-10-10T11:30:11.000Z</time>
      </trkpt>
      <trkpt lat="44.7558" lon="4.53856">
        <ele>602.89</ele>
        <time>2019-10-10T11:30:21.000Z</time>
      </trkpt>
      <trkpt lat="44.75588" lon="4.53872">
        <ele>601.22</ele>
        <time>2019-10-10T11:30:31.000Z</time>
      </trkpt>
      <trkpt lat="44.75596" lon="4.53886">
        <ele>599.52</ele>
        <time>2019-10-10T11:30:41.000Z</time>
      </trkpt>
      <trkpt lat="44.75605" lon="4.53894">
        <ele>599.18</ele>
        <time>2019-10-10T11:30:51.000Z</time>
      </trkpt>
      <trkpt lat="44.75613" lon="4.53911">
        <ele>596.62</ele>
        <time>2019-10-10T11:31:01.000Z</time>
      </trkpt>
      <trkpt lat="44.75621" lon="4.53921">
        <ele>595.61</ele>
        <time>2019-10-10T11:31:11.000Z</time>
      </trkpt>
      <trkpt lat="44.75633" lon="4.5393">
        <ele>595.18</ele>
        <time>2019-10-10T11:31:21.000Z</time>
      </trkpt>
      <trkpt lat="44.75642" lon="4.53942">
        <ele>593.93</ele>
        <time>2019-10-10T11:31:31.000Z</time>
      </trkpt>
      <trkpt lat="44.75651" lon="4.53948">
        <ele>593.85</ele>
        <time>2019-10-10T11:31:41.000Z</time>
      </trkpt>
      <trkpt lat="44.75663" lon="4.53959">
        <ele>593.46</ele>
        <time>2019-10-10T11:31:51.000Z</time>
      </trkpt>
      <trkpt lat="44.75676" lon="4.53961">
        <ele>594.91</ele>
        <time>2019-10-10T11:32:01.000Z</time>
      </trkpt>
      <trkpt lat="44.75688" lon="4.53965">
        <ele>596.38</ele>
        <time>2019-10-10T11:32:11.000Z</time>
      </trkpt>
      <trkpt lat="44.75703" lon="4.53972">
        <ele>598.18</ele>
        <time>2019-10-10T11:32:21.000Z</time>
      </trkpt>
      <trkpt lat="44.75715" lon="4.53983">
        <ele>599.41</ele>
        <time>2019-10-10T11:32:31.000Z</time>
      </trkpt>
      <trkpt lat="44.75726" lon="4.53989">
        <ele>601.63</ele>
        <time>2019-10-10T11:32:41.000Z</time>
      </trkpt>
      <trkpt lat="44.75723" lon="4.54003">
        <ele>600.54</ele>
        <time>2019-10-10T11:32:51.000Z</time>
      </trkpt>
      <trkpt lat="44.7571" lon="4.5401">
        <ele>597.35</ele>
        <time>2019-10-10T11:33:01.000Z</time>
      </trkpt>
      <trkpt lat="44.75702" lon="4.54021">
        <ele>595.86</ele>
        <time>2019-10-10T11:33:11.000Z</time>
      </trkpt>
      <trkpt lat="44.75696" lon="4.54036">
        <ele>595.08</ele>
        <time>2019-10-10T11:33:21.000Z</time>
      </trkpt>
      <trkpt lat="44.75687" lon="4.54051">
        <ele>593.83</ele>
        <time>2019-10-10T11:33:31.000Z</time>
      </trkpt>
      <trkpt lat="44.75677" lon="4.54061">
        <ele>591.95</ele>
        <time>2019-10-10T11:33:41.000Z</time>
      </trkpt>
      <trkpt lat="44.75667" lon="4.54071">
        <ele>589.82</ele>
        <time>2019-10-10T11:33:51.000Z</time>
      </trkpt>
      <trkpt lat="44.75657" lon="4.54083">
        <ele>587.87</ele>
        <time>2019-10-10T11:34:01.000Z</time>
      </trkpt>
      <trkpt lat="44.75646" lon="4.54091">
        <ele>585.29</ele>
        <time>2019-10-10T11:34:11.000Z</time>
      </trkpt>
      <trkpt lat="44.75634" lon="4.54086">
        <ele>580.93</ele>
        <time>2019-10-10T11:34:21.000Z</time>
      </trkpt>
      <trkpt lat="44.75622" lon="4.54082">
        <ele>577.14</ele>
        <time>2019-10-10T11:34:31.000Z</time>
      </trkpt>
      <trkpt lat="44.75608" lon="4.54083">
        <ele>573.42</ele>
        <time>2019-10-10T11:34:41.000Z</time>
      </trkpt>
      <trkpt lat="44.75594" lon="4.54089">
        <ele>569.88</ele>
        <time>2019-10-10T11:34:51.000Z</time>
      </trkpt>
      <trkpt lat="44.75585" lon="4.541">
        <ele>568.4</ele>
        <time>2019-10-10T11:35:01.000Z</time>
      </trkpt>
      <trkpt lat="44.75575" lon="4.54106">
        <ele>566.52</ele>
        <time>2019-10-10T11:35:11.000Z</time>
      </trkpt>
      <trkpt lat="44.75565" lon="4.54116">
        <ele>565.05</ele>
        <time>2019-10-10T11:35:21.000Z</time>
      </trkpt>
      <trkpt lat="44.75555" lon="4.5413">
        <ele>563.94</ele>
        <time>2019-10-10T11:35:31.000Z</time>
      </trkpt>
      <trkpt lat="44.75548" lon="4.54144">
        <ele>562.97</ele>
        <time>2019-10-10T11:35:41.000Z</time>
      </trkpt>
      <trkpt lat="44.75544" lon="4.54157">
        <ele>562.87</ele>
        <time>2019-10-10T11:35:51.000Z</time>
      </trkpt>
      <trkpt lat="44.7555" lon="4.54159">
        <ele>564.95</ele>
        <time>2019-10-10T11:36:11.000Z</time>
      </trkpt>
      <trkpt lat="44.75557" lon="4.54157">
        <ele>567.42</ele>
        <time>2019-10-10T11:36:21.000Z</time>
      </trkpt>
      <trkpt lat="44.75563" lon="4.54156">
        <ele>569.82</ele>
        <time>2019-10-10T11:36:31.000Z</time>
      </trkpt>
      <trkpt lat="44.75568" lon="4.54153">
        <ele>571.23</ele>
        <time>2019-10-10T11:36:42.000Z</time>
      </trkpt>
      <trkpt lat="44.75566" lon="4.5416">
        <ele>570.97</ele>
        <time>2019-10-10T11:38:46.000Z</time>
      </trkpt>
      <trkpt lat="44.75563" lon="4.54168">
        <ele>570.67</ele>
        <time>2019-10-10T11:39:23.000Z</time>
      </trkpt>
      <trkpt lat="44.75558" lon="4.54165">
        <ele>568.45</ele>
        <time>2019-10-10T11:39:54.000Z</time>
      </trkpt>
      <trkpt lat="44.75551" lon="4.54164">
        <ele>565.84</ele>
        <time>2019-10-10T11:40:07.000Z</time>
      </trkpt>
      <trkpt lat="44.75545" lon="4.5417">
        <ele>563.62</ele>
        <time>2019-10-10T11:40:17.000Z</time>
      </trkpt>
      <trkpt lat="44.75543" lon="4.54182">
        <ele>563.25</ele>
        <time>2019-10-10T11:40:27.000Z</time>
      </trkpt>
      <trkpt lat="44.75543" lon="4.54191">
        <ele>563.23</ele>
        <time>2019-10-10T11:41:33.000Z</time>
      </trkpt>
      <trkpt lat="44.75546" lon="4.54204">
        <ele>564.16</ele>
        <time>2019-10-10T11:41:43.000Z</time>
      </trkpt>
      <trkpt lat="44.75547" lon="4.54216">
        <ele>564.67</ele>
        <time>2019-10-10T11:41:53.000Z</time>
      </trkpt>
      <trkpt lat="44.75547" lon="4.54233">
        <ele>564.27</ele>
        <time>2019-10-10T11:42:03.000Z</time>
      </trkpt>
      <trkpt lat="44.75551" lon="4.54251">
        <ele>565.26</ele>
        <time>2019-10-10T11:42:13.000Z</time>
      </trkpt>
      <trkpt lat="44.75555" lon="4.54269">
        <ele>566.15</ele>
        <time>2019-10-10T11:42:23.000Z</time>
      </trkpt>
      <trkpt lat="44.75555" lon="4.54284">
        <ele>565.55</ele>
        <time>2019-10-10T11:42:33.000Z</time>
      </trkpt>
      <trkpt lat="44.75557" lon="4.54302">
        <ele>565.19</ele>
        <time>2019-10-10T11:42:43.000Z</time>
      </trkpt>
      <trkpt lat="44.75557" lon="4.5432">
        <ele>564.67</ele>
        <time>2019-10-10T11:42:53.000Z</time>
      </trkpt>
      <trkpt lat="44.75549" lon="4.54335">
        <ele>561.55</ele>
        <time>2019-10-10T11:43:03.000Z</time>
      </trkpt>
      <trkpt lat="44.75553" lon="4.54349">
        <ele>562.75</ele>
        <time>2019-10-10T11:43:13.000Z</time>
      </trkpt>
      <trkpt lat="44.75556" lon="4.54365">
        <ele>563.4</ele>
        <time>2019-10-10T11:43:23.000Z</time>
      </trkpt>
      <trkpt lat="44.75559" lon="4.54381">
        <ele>564.23</ele>
        <time>2019-10-10T11:43:33.000Z</time>
      </trkpt>
      <trkpt lat="44.75563" lon="4.54399">
        <ele>565.32</ele>
        <time>2019-10-10T11:43:43.000Z</time>
      </trkpt>
      <trkpt lat="44.7556" lon="4.54407">
        <ele>564.44</ele>
        <time>2019-10-10T11:43:53.000Z</time>
      </trkpt>
      <trkpt lat="44.75554" lon="4.54419">
        <ele>562.6</ele>
        <time>2019-10-10T11:44:03.000Z</time>
      </trkpt>
      <trkpt lat="44.75541" lon="4.5442">
        <ele>559.37</ele>
        <time>2019-10-10T11:44:13.000Z</time>
      </trkpt>
      <trkpt lat="44.75536" lon="4.54418">
        <ele>557.81</ele>
        <time>2019-10-10T11:44:23.000Z</time>
      </trkpt>
      <trkpt lat="44.7553" lon="4.54415">
        <ele>556.29</ele>
        <time>2019-10-10T11:44:42.000Z</time>
      </trkpt>
      <trkpt lat="44.75519" lon="4.54404">
        <ele>553.26</ele>
        <time>2019-10-10T11:44:52.000Z</time>
      </trkpt>
      <trkpt lat="44.75507" lon="4.544">
        <ele>549.99</ele>
        <time>2019-10-10T11:45:02.000Z</time>
      </trkpt>
      <trkpt lat="44.75494" lon="4.54401">
        <ele>546.9</ele>
        <time>2019-10-10T11:45:12.000Z</time>
      </trkpt>
      <trkpt lat="44.75482" lon="4.54407">
        <ele>544.48</ele>
        <time>2019-10-10T11:45:22.000Z</time>
      </trkpt>
      <trkpt lat="44.75481" lon="4.54419">
        <ele>544.88</ele>
        <time>2019-10-10T11:45:32.000Z</time>
      </trkpt>
      <trkpt lat="44.7548" lon="4.54434">
        <ele>545.68</ele>
        <time>2019-10-10T11:45:42.000Z</time>
      </trkpt>
      <trkpt lat="44.75478" lon="4.54449">
        <ele>546.4</ele>
        <time>2019-10-10T11:45:52.000Z</time>
      </trkpt>
      <trkpt lat="44.75477" lon="4.54469">
        <ele>548.05</ele>
        <time>2019-10-10T11:46:02.000Z</time>
      </trkpt>
      <trkpt lat="44.75475" lon="4.54487">
        <ele>548.92</ele>
        <time>2019-10-10T11:46:12.000Z</time>
      </trkpt>
      <trkpt lat="44.75472" lon="4.54502">
        <ele>549.08</ele>
        <time>2019-10-10T11:46:22.000Z</time>
      </trkpt>
      <trkpt lat="44.75468" lon="4.54519">
        <ele>549.06</ele>
        <time>2019-10-10T11:46:32.000Z</time>
      </trkpt>
      <trkpt lat="44.75465" lon="4.54535">
        <ele>549.24</ele>
        <time>2019-10-10T11:46:42.000Z</time>
      </trkpt>
      <trkpt lat="44.75462" lon="4.54549">
        <ele>549.05</ele>
        <time>2019-10-10T11:46:52.000Z</time>
      </trkpt>
      <trkpt lat="44.7546" lon="4.54568">
        <ele>548.71</ele>
        <time>2019-10-10T11:47:02.000Z</time>
      </trkpt>
      <trkpt lat="44.75457" lon="4.54589">
        <ele>547.24</ele>
        <time>2019-10-10T11:47:12.000Z</time>
      </trkpt>
      <trkpt lat="44.75456" lon="4.54608">
        <ele>545.51</ele>
        <time>2019-10-10T11:47:22.000Z</time>
      </trkpt>
      <trkpt lat="44.75458" lon="4.54628">
        <ele>543.69</ele>
        <time>2019-10-10T11:47:32.000Z</time>
      </trkpt>
      <trkpt lat="44.75457" lon="4.54643">
        <ele>541.44</ele>
        <time>2019-10-10T11:47:42.000Z</time>
      </trkpt>
      <trkpt lat="44.75455" lon="4.54662">
        <ele>538.24</ele>
        <time>2019-10-10T11:47:52.000Z</time>
      </trkpt>
      <trkpt lat="44.75455" lon="4.5468">
        <ele>534.82</ele>
        <time>2019-10-10T11:48:02.000Z</time>
      </trkpt>
      <trkpt lat="44.7546" lon="4.54697">
        <ele>531.39</ele>
        <time>2019-10-10T11:48:12.000Z</time>
      </trkpt>
      <trkpt lat="44.75467" lon="4.54707">
        <ele>529.24</ele>
        <time>2019-10-10T11:48:22.000Z</time>
      </trkpt>
      <trkpt lat="44.75475" lon="4.54712">
        <ele>528.37</ele>
        <time>2019-10-10T11:48:32.000Z</time>
      </trkpt>
      <trkpt lat="44.75481" lon="4.5471">
        <ele>529.12</ele>
        <time>2019-10-10T11:48:42.000Z</time>
      </trkpt>
      <trkpt lat="44.7549" lon="4.54707">
        <ele>530.44</ele>
        <time>2019-10-10T11:48:52.000Z</time>
      </trkpt>
      <trkpt lat="44.75502" lon="4.54707">
        <ele>530.98</ele>
        <time>2019-10-10T11:49:02.000Z</time>
      </trkpt>
      <trkpt lat="44.75514" lon="4.54705">
        <ele>532.14</ele>
        <time>2019-10-10T11:49:12.000Z</time>
      </trkpt>
      <trkpt lat="44.75531" lon="4.54704">
        <ele>532.93</ele>
        <time>2019-10-10T11:49:22.000Z</time>
      </trkpt>
      <trkpt lat="44.75544" lon="4.54704">
        <ele>533.22</ele>
        <time>2019-10-10T11:49:32.000Z</time>
      </trkpt>
      <trkpt lat="44.75551" lon="4.54703">
        <ele>533.62</ele>
        <time>2019-10-10T11:49:42.000Z</time>
      </trkpt>
      <trkpt lat="44.75553" lon="4.54721">
        <ele>528.99</ele>
        <time>2019-10-10T11:49:52.000Z</time>
      </trkpt>
      <trkpt lat="44.75559" lon="4.54739">
        <ele>525.11</ele>
        <time>2019-10-10T11:50:02.000Z</time>
      </trkpt>
      <trkpt lat="44.75569" lon="4.54749">
        <ele>523.51</ele>
        <time>2019-10-10T11:50:12.000Z</time>
      </trkpt>
      <trkpt lat="44.75576" lon="4.54757">
        <ele>522.62</ele>
        <time>2019-10-10T11:50:22.000Z</time>
      </trkpt>
      <trkpt lat="44.75583" lon="4.54766">
        <ele>521.62</ele>
        <time>2019-10-10T11:50:32.000Z</time>
      </trkpt>
      <trkpt lat="44.75589" lon="4.54777">
        <ele>520.06</ele>
        <time>2019-10-10T11:50:42.000Z</time>
      </trkpt>
      <trkpt lat="44.75599" lon="4.54789">
        <ele>519.03</ele>
        <time>2019-10-10T11:50:52.000Z</time>
      </trkpt>
      <trkpt lat="44.75607" lon="4.54799">
        <ele>518.14</ele>
        <time>2019-10-10T11:51:02.000Z</time>
      </trkpt>
      <trkpt lat="44.75614" lon="4.5481">
        <ele>517.02</ele>
        <time>2019-10-10T11:51:12.000Z</time>
      </trkpt>
      <trkpt lat="44.75622" lon="4.54822">
        <ele>515.46</ele>
        <time>2019-10-10T11:51:22.000Z</time>
      </trkpt>
      <trkpt lat="44.75628" lon="4.54836">
        <ele>513</ele>
        <time>2019-10-10T11:51:32.000Z</time>
      </trkpt>
      <trkpt lat="44.75633" lon="4.54851">
        <ele>510.28</ele>
        <time>2019-10-10T11:51:42.000Z</time>
      </trkpt>
      <trkpt lat="44.75639" lon="4.54867">
        <ele>507.48</ele>
        <time>2019-10-10T11:51:52.000Z</time>
      </trkpt>
      <trkpt lat="44.75649" lon="4.54873">
        <ele>507.27</ele>
        <time>2019-10-10T11:52:02.000Z</time>
      </trkpt>
      <trkpt lat="44.75659" lon="4.54875">
        <ele>507.45</ele>
        <time>2019-10-10T11:52:12.000Z</time>
      </trkpt>
      <trkpt lat="44.75669" lon="4.54876">
        <ele>507.53</ele>
        <time>2019-10-10T11:52:22.000Z</time>
      </trkpt>
      <trkpt lat="44.75676" lon="4.54882">
        <ele>506.08</ele>
        <time>2019-10-10T11:52:32.000Z</time>
      </trkpt>
      <trkpt lat="44.75686" lon="4.54887">
        <ele>504.26</ele>
        <time>2019-10-10T11:52:42.000Z</time>
      </trkpt>
      <trkpt lat="44.757" lon="4.54888">
        <ele>502.56</ele>
        <time>2019-10-10T11:52:52.000Z</time>
      </trkpt>
      <trkpt lat="44.75709" lon="4.549">
        <ele>498.71</ele>
        <time>2019-10-10T11:53:02.000Z</time>
      </trkpt>
      <trkpt lat="44.75713" lon="4.54907">
        <ele>496.48</ele>
        <time>2019-10-10T11:53:18.000Z</time>
      </trkpt>
      <trkpt lat="44.75707" lon="4.54915">
        <ele>495.05</ele>
        <time>2019-10-10T11:53:28.000Z</time>
      </trkpt>
      <trkpt lat="44.757" lon="4.54924">
        <ele>492.81</ele>
        <time>2019-10-10T11:53:38.000Z</time>
      </trkpt>
      <trkpt lat="44.75691" lon="4.54931">
        <ele>490.81</ele>
        <time>2019-10-10T11:53:48.000Z</time>
      </trkpt>
      <trkpt lat="44.75682" lon="4.54932">
        <ele>490.83</ele>
        <time>2019-10-10T11:53:58.000Z</time>
      </trkpt>
      <trkpt lat="44.75675" lon="4.54933">
        <ele>490.65</ele>
        <time>2019-10-10T11:54:08.000Z</time>
      </trkpt>
      <trkpt lat="44.75663" lon="4.54935">
        <ele>489.72</ele>
        <time>2019-10-10T11:54:18.000Z</time>
      </trkpt>
      <trkpt lat="44.75647" lon="4.54935">
        <ele>488.19</ele>
        <time>2019-10-10T11:54:28.000Z</time>
      </trkpt>
      <trkpt lat="44.75632" lon="4.54937">
        <ele>486.01</ele>
        <time>2019-10-10T11:54:38.000Z</time>
      </trkpt>
      <trkpt lat="44.75622" lon="4.5494">
        <ele>483.23</ele>
        <time>2019-10-10T11:54:48.000Z</time>
      </trkpt>
      <trkpt lat="44.75613" lon="4.54947">
        <ele>478.49</ele>
        <time>2019-10-10T11:54:58.000Z</time>
      </trkpt>
      <trkpt lat="44.75619" lon="4.5495">
        <ele>478</ele>
        <time>2019-10-10T11:55:22.000Z</time>
      </trkpt>
      <trkpt lat="44.7563" lon="4.54958">
        <ele>475.31</ele>
        <time>2019-10-10T11:55:32.000Z</time>
      </trkpt>
      <trkpt lat="44.75643" lon="4.54969">
        <ele>471.49</ele>
        <time>2019-10-10T11:55:42.000Z</time>
      </trkpt>
      <trkpt lat="44.75653" lon="4.54978">
        <ele>468.31</ele>
        <time>2019-10-10T11:55:52.000Z</time>
      </trkpt>
      <trkpt lat="44.75663" lon="4.54988">
        <ele>465.89</ele>
        <time>2019-10-10T11:56:02.000Z</time>
      </trkpt>
      <trkpt lat="44.75674" lon="4.5499">
        <ele>466.14</ele>
        <time>2019-10-10T11:56:12.000Z</time>
      </trkpt>
      <trkpt lat="44.75685" lon="4.54995">
        <ele>465.75</ele>
        <time>2019-10-10T11:56:22.000Z</time>
      </trkpt>
      <trkpt lat="44.75696" lon="4.54995">
        <ele>466.38</ele>
        <time>2019-10-10T11:56:32.000Z</time>
      </trkpt>
      <trkpt lat="44.75707" lon="4.54993">
        <ele>467.22</ele>
        <time>2019-10-10T11:56:42.000Z</time>
      </trkpt>
      <trkpt lat="44.75721" lon="4.54995">
        <ele>467.78</ele>
        <time>2019-10-10T11:56:52.000Z</time>
      </trkpt>
      <trkpt lat="44.75729" lon="4.54998">
        <ele>468.07</ele>
        <time>2019-10-10T11:57:02.000Z</time>
      </trkpt>
      <trkpt lat="44.75741" lon="4.54998">
        <ele>469.09</ele>
        <time>2019-10-10T11:57:12.000Z</time>
      </trkpt>
      <trkpt lat="44.75754" lon="4.54989">
        <ele>470.97</ele>
        <time>2019-10-10T11:57:22.000Z</time>
      </trkpt>
      <trkpt lat="44.75763" lon="4.54984">
        <ele>472.69</ele>
        <time>2019-10-10T11:57:32.000Z</time>
      </trkpt>
      <trkpt lat="44.75771" lon="4.54982">
        <ele>473.82</ele>
        <time>2019-10-10T11:57:42.000Z</time>
      </trkpt>
      <trkpt lat="44.75775" lon="4.54988">
        <ele>473.63</ele>
        <time>2019-10-10T11:57:53.000Z</time>
      </trkpt>
      <trkpt lat="44.75781" lon="4.54984">
        <ele>474.84</ele>
        <time>2019-10-10T11:58:07.000Z</time>
      </trkpt>
      <trkpt lat="44.75786" lon="4.54988">
        <ele>475.2</ele>
        <time>2019-10-10T11:58:20.000Z</time>
      </trkpt>
      <trkpt lat="44.75786" lon="4.54996">
        <ele>474.89</ele>
        <time>2019-10-10T11:59:36.000Z</time>
      </trkpt>
      <trkpt lat="44.75781" lon="4.55016">
        <ele>476.04</ele>
        <time>2019-10-10T11:59:46.000Z</time>
      </trkpt>
      <trkpt lat="44.75774" lon="4.55032">
        <ele>478.74</ele>
        <time>2019-10-10T11:59:56.000Z</time>
      </trkpt>
      <trkpt lat="44.75762" lon="4.55044">
        <ele>480.89</ele>
        <time>2019-10-10T12:00:06.000Z</time>
      </trkpt>
      <trkpt lat="44.75749" lon="4.55046">
        <ele>479.44</ele>
        <time>2019-10-10T12:00:16.000Z</time>
      </trkpt>
      <trkpt lat="44.75737" lon="4.5505">
        <ele>479.25</ele>
        <time>2019-10-10T12:00:26.000Z</time>
      </trkpt>
      <trkpt lat="44.75726" lon="4.55056">
        <ele>479.75</ele>
        <time>2019-10-10T12:00:36.000Z</time>
      </trkpt>
      <trkpt lat="44.75716" lon="4.55062">
        <ele>480.67</ele>
        <time>2019-10-10T12:00:46.000Z</time>
      </trkpt>
      <trkpt lat="44.75705" lon="4.55071">
        <ele>482.36</ele>
        <time>2019-10-10T12:00:56.000Z</time>
      </trkpt>
      <trkpt lat="44.75697" lon="4.55081">
        <ele>484.74</ele>
        <time>2019-10-10T12:01:06.000Z</time>
      </trkpt>
      <trkpt lat="44.75684" lon="4.55087">
        <ele>484.81</ele>
        <time>2019-10-10T12:01:16.000Z</time>
      </trkpt>
      <trkpt lat="44.75673" lon="4.55092">
        <ele>484.78</ele>
        <time>2019-10-10T12:01:26.000Z</time>
      </trkpt>
      <trkpt lat="44.75662" lon="4.551">
        <ele>485.57</ele>
        <time>2019-10-10T12:01:36.000Z</time>
      </trkpt>
      <trkpt lat="44.75649" lon="4.55107">
        <ele>486.05</ele>
        <time>2019-10-10T12:01:46.000Z</time>
      </trkpt>
      <trkpt lat="44.75637" lon="4.55119">
        <ele>488</ele>
        <time>2019-10-10T12:01:56.000Z</time>
      </trkpt>
      <trkpt lat="44.75627" lon="4.55129">
        <ele>489.84</ele>
        <time>2019-10-10T12:02:06.000Z</time>
      </trkpt>
      <trkpt lat="44.75618" lon="4.55137">
        <ele>490.8</ele>
        <time>2019-10-10T12:02:16.000Z</time>
      </trkpt>
      <trkpt lat="44.75607" lon="4.55144">
        <ele>490.77</ele>
        <time>2019-10-10T12:02:26.000Z</time>
      </trkpt>
      <trkpt lat="44.75597" lon="4.55153">
        <ele>491.37</ele>
        <time>2019-10-10T12:02:36.000Z</time>
      </trkpt>
      <trkpt lat="44.75586" lon="4.55161">
        <ele>491.17</ele>
        <time>2019-10-10T12:02:46.000Z</time>
      </trkpt>
      <trkpt lat="44.75575" lon="4.5517">
        <ele>490.56</ele>
        <time>2019-10-10T12:02:56.000Z</time>
      </trkpt>
      <trkpt lat="44.75567" lon="4.55178">
        <ele>490.1</ele>
        <time>2019-10-10T12:03:06.000Z</time>
      </trkpt>
      <trkpt lat="44.75559" lon="4.55192">
        <ele>491.21</ele>
        <time>2019-10-10T12:03:16.000Z</time>
      </trkpt>
      <trkpt lat="44.75549" lon="4.55208">
        <ele>491.94</ele>
        <time>2019-10-10T12:03:26.000Z</time>
      </trkpt>
      <trkpt lat="44.7554" lon="4.55223">
        <ele>492.37</ele>
        <time>2019-10-10T12:03:36.000Z</time>
      </trkpt>
      <trkpt lat="44.75531" lon="4.55235">
        <ele>492.25</ele>
        <time>2019-10-10T12:03:46.000Z</time>
      </trkpt>
      <trkpt lat="44.75521" lon="4.55247">
        <ele>491.5</ele>
        <time>2019-10-10T12:03:56.000Z</time>
      </trkpt>
      <trkpt lat="44.7551" lon="4.55257">
        <ele>489.86</ele>
        <time>2019-10-10T12:04:06.000Z</time>
      </trkpt>
      <trkpt lat="44.755" lon="4.55269">
        <ele>488.85</ele>
        <time>2019-10-10T12:04:16.000Z</time>
      </trkpt>
      <trkpt lat="44.75494" lon="4.55281">
        <ele>488.55</ele>
        <time>2019-10-10T12:04:26.000Z</time>
      </trkpt>
      <trkpt lat="44.75494" lon="4.55298">
        <ele>488.96</ele>
        <time>2019-10-10T12:04:36.000Z</time>
      </trkpt>
      <trkpt lat="44.75499" lon="4.55313">
        <ele>489.54</ele>
        <time>2019-10-10T12:04:46.000Z</time>
      </trkpt>
      <trkpt lat="44.75509" lon="4.55325">
        <ele>490.35</ele>
        <time>2019-10-10T12:04:56.000Z</time>
      </trkpt>
      <trkpt lat="44.75519" lon="4.55337">
        <ele>490.59</ele>
        <time>2019-10-10T12:05:06.000Z</time>
      </trkpt>
      <trkpt lat="44.7553" lon="4.55346">
        <ele>490.78</ele>
        <time>2019-10-10T12:05:16.000Z</time>
      </trkpt>
      <trkpt lat="44.75542" lon="4.55352">
        <ele>491.35</ele>
        <time>2019-10-10T12:05:26.000Z</time>
      </trkpt>
      <trkpt lat="44.75553" lon="4.55358">
        <ele>491.46</ele>
        <time>2019-10-10T12:05:36.000Z</time>
      </trkpt>
      <trkpt lat="44.75565" lon="4.55359">
        <ele>492.73</ele>
        <time>2019-10-10T12:05:46.000Z</time>
      </trkpt>
      <trkpt lat="44.75578" lon="4.55362">
        <ele>493.73</ele>
        <time>2019-10-10T12:05:56.000Z</time>
      </trkpt>
      <trkpt lat="44.75592" lon="4.55364">
        <ele>494.64</ele>
        <time>2019-10-10T12:06:06.000Z</time>
      </trkpt>
      <trkpt lat="44.75603" lon="4.55366">
        <ele>495.24</ele>
        <time>2019-10-10T12:06:16.000Z</time>
      </trkpt>
      <trkpt lat="44.75612" lon="4.55366">
        <ele>495.93</ele>
        <time>2019-10-10T12:06:26.000Z</time>
      </trkpt>
      <trkpt lat="44.75626" lon="4.55366">
        <ele>497.28</ele>
        <time>2019-10-10T12:06:36.000Z</time>
      </trkpt>
      <trkpt lat="44.75639" lon="4.55366">
        <ele>498.43</ele>
        <time>2019-10-10T12:06:46.000Z</time>
      </trkpt>
      <trkpt lat="44.75651" lon="4.55369">
        <ele>498.32</ele>
        <time>2019-10-10T12:06:56.000Z</time>
      </trkpt>
      <trkpt lat="44.75662" lon="4.55375">
        <ele>497.52</ele>
        <time>2019-10-10T12:07:06.000Z</time>
      </trkpt>
      <trkpt lat="44.75676" lon="4.55381">
        <ele>497.21</ele>
        <time>2019-10-10T12:07:16.000Z</time>
      </trkpt>
      <trkpt lat="44.75688" lon="4.55388">
        <ele>496.69</ele>
        <time>2019-10-10T12:07:26.000Z</time>
      </trkpt>
      <trkpt lat="44.75701" lon="4.55391">
        <ele>497.54</ele>
        <time>2019-10-10T12:07:36.000Z</time>
      </trkpt>
      <trkpt lat="44.75711" lon="4.55397">
        <ele>497.01</ele>
        <time>2019-10-10T12:07:46.000Z</time>
      </trkpt>
      <trkpt lat="44.75722" lon="4.55415">
        <ele>492.38</ele>
        <time>2019-10-10T12:07:56.000Z</time>
      </trkpt>
      <trkpt lat="44.7573" lon="4.5543">
        <ele>487.65</ele>
        <time>2019-10-10T12:08:06.000Z</time>
      </trkpt>
      <trkpt lat="44.75737" lon="4.55441">
        <ele>483.45</ele>
        <time>2019-10-10T12:08:16.000Z</time>
      </trkpt>
      <trkpt lat="44.75745" lon="4.55452">
        <ele>478.95</ele>
        <time>2019-10-10T12:08:26.000Z</time>
      </trkpt>
      <trkpt lat="44.75757" lon="4.55462">
        <ele>474.79</ele>
        <time>2019-10-10T12:08:36.000Z</time>
      </trkpt>
      <trkpt lat="44.75766" lon="4.55467">
        <ele>473.03</ele>
        <time>2019-10-10T12:08:46.000Z</time>
      </trkpt>
      <trkpt lat="44.75777" lon="4.55468">
        <ele>473.41</ele>
        <time>2019-10-10T12:08:56.000Z</time>
      </trkpt>
      <trkpt lat="44.75788" lon="4.55467">
        <ele>474.72</ele>
        <time>2019-10-10T12:09:06.000Z</time>
      </trkpt>
      <trkpt lat="44.75802" lon="4.55466">
        <ele>475.86</ele>
        <time>2019-10-10T12:09:16.000Z</time>
      </trkpt>
      <trkpt lat="44.75813" lon="4.55464">
        <ele>477.11</ele>
        <time>2019-10-10T12:09:26.000Z</time>
      </trkpt>
      <trkpt lat="44.75824" lon="4.55462">
        <ele>478.19</ele>
        <time>2019-10-10T12:09:36.000Z</time>
      </trkpt>
      <trkpt lat="44.75833" lon="4.55467">
        <ele>476.21</ele>
        <time>2019-10-10T12:09:46.000Z</time>
      </trkpt>
      <trkpt lat="44.75839" lon="4.55464">
        <ele>477.26</ele>
        <time>2019-10-10T12:09:56.000Z</time>
      </trkpt>
      <trkpt lat="44.75849" lon="4.55464">
        <ele>476.71</ele>
        <time>2019-10-10T12:10:06.000Z</time>
      </trkpt>
      <trkpt lat="44.75859" lon="4.55462">
        <ele>476.81</ele>
        <time>2019-10-10T12:10:16.000Z</time>
      </trkpt>
      <trkpt lat="44.75878" lon="4.55453">
        <ele>478.37</ele>
        <time>2019-10-10T12:10:26.000Z</time>
      </trkpt>
      <trkpt lat="44.75893" lon="4.55445">
        <ele>479.49</ele>
        <time>2019-10-10T12:10:36.000Z</time>
      </trkpt>
      <trkpt lat="44.75905" lon="4.55436">
        <ele>481.18</ele>
        <time>2019-10-10T12:10:46.000Z</time>
      </trkpt>
      <trkpt lat="44.75916" lon="4.55428">
        <ele>482.56</ele>
        <time>2019-10-10T12:10:56.000Z</time>
      </trkpt>
      <trkpt lat="44.75928" lon="4.55425">
        <ele>482.12</ele>
        <time>2019-10-10T12:11:06.000Z</time>
      </trkpt>
      <trkpt lat="44.75936" lon="4.55414">
        <ele>483.57</ele>
        <time>2019-10-10T12:11:16.000Z</time>
      </trkpt>
      <trkpt lat="44.75943" lon="4.55396">
        <ele>487.05</ele>
        <time>2019-10-10T12:11:26.000Z</time>
      </trkpt>
      <trkpt lat="44.75951" lon="4.55383">
        <ele>488.58</ele>
        <time>2019-10-10T12:11:36.000Z</time>
      </trkpt>
      <trkpt lat="44.75958" lon="4.55372">
        <ele>489.78</ele>
        <time>2019-10-10T12:11:46.000Z</time>
      </trkpt>
      <trkpt lat="44.75963" lon="4.55364">
        <ele>490.37</ele>
        <time>2019-10-10T12:11:56.000Z</time>
      </trkpt>
      <trkpt lat="44.75971" lon="4.55356">
        <ele>490.12</ele>
        <time>2019-10-10T12:12:06.000Z</time>
      </trkpt>
      <trkpt lat="44.75977" lon="4.55351">
        <ele>489.96</ele>
        <time>2019-10-10T12:12:16.000Z</time>
      </trkpt>
      <trkpt lat="44.75987" lon="4.55349">
        <ele>488.26</ele>
        <time>2019-10-10T12:12:26.000Z</time>
      </trkpt>
      <trkpt lat="44.75998" lon="4.55352">
        <ele>486.21</ele>
        <time>2019-10-10T12:12:36.000Z</time>
      </trkpt>
      <trkpt lat="44.76014" lon="4.55356">
        <ele>485.59</ele>
        <time>2019-10-10T12:12:46.000Z</time>
      </trkpt>
      <trkpt lat="44.76022" lon="4.55361">
        <ele>485.79</ele>
        <time>2019-10-10T12:12:56.000Z</time>
      </trkpt>
      <trkpt lat="44.76029" lon="4.55373">
        <ele>485.91</ele>
        <time>2019-10-10T12:13:06.000Z</time>
      </trkpt>
      <trkpt lat="44.7602" lon="4.55382">
        <ele>483.54</ele>
        <time>2019-10-10T12:13:16.000Z</time>
      </trkpt>
      <trkpt lat="44.76014" lon="4.5539">
        <ele>481.66</ele>
        <time>2019-10-10T12:13:26.000Z</time>
      </trkpt>
      <trkpt lat="44.7601" lon="4.55405">
        <ele>479.66</ele>
        <time>2019-10-10T12:13:36.000Z</time>
      </trkpt>
      <trkpt lat="44.76016" lon="4.55413">
        <ele>480.41</ele>
        <time>2019-10-10T12:13:46.000Z</time>
      </trkpt>
      <trkpt lat="44.76024" lon="4.55407">
        <ele>482.93</ele>
        <time>2019-10-10T12:13:56.000Z</time>
      </trkpt>
      <trkpt lat="44.76033" lon="4.55409">
        <ele>485.7</ele>
        <time>2019-10-10T12:14:06.000Z</time>
      </trkpt>
      <trkpt lat="44.76043" lon="4.55413">
        <ele>489.36</ele>
        <time>2019-10-10T12:14:16.000Z</time>
      </trkpt>
      <trkpt lat="44.7605" lon="4.55421">
        <ele>492.33</ele>
        <time>2019-10-10T12:14:26.000Z</time>
      </trkpt>
      <trkpt lat="44.76056" lon="4.55434">
        <ele>495.01</ele>
        <time>2019-10-10T12:14:36.000Z</time>
      </trkpt>
      <trkpt lat="44.76056" lon="4.55447">
        <ele>495.34</ele>
        <time>2019-10-10T12:14:46.000Z</time>
      </trkpt>
      <trkpt lat="44.76053" lon="4.55455">
        <ele>494.18</ele>
        <time>2019-10-10T12:14:56.000Z</time>
      </trkpt>
      <trkpt lat="44.76051" lon="4.55467">
        <ele>493.42</ele>
        <time>2019-10-10T12:15:06.000Z</time>
      </trkpt>
      <trkpt lat="44.76046" lon="4.55486">
        <ele>491.38</ele>
        <time>2019-10-10T12:15:16.000Z</time>
      </trkpt>
      <trkpt lat="44.76045" lon="4.55501">
        <ele>490.05</ele>
        <time>2019-10-10T12:15:26.000Z</time>
      </trkpt>
      <trkpt lat="44.76049" lon="4.55514">
        <ele>490.56</ele>
        <time>2019-10-10T12:15:36.000Z</time>
      </trkpt>
      <trkpt lat="44.76058" lon="4.55522">
        <ele>492.63</ele>
        <time>2019-10-10T12:15:46.000Z</time>
      </trkpt>
      <trkpt lat="44.76069" lon="4.55525">
        <ele>496.16</ele>
        <time>2019-10-10T12:15:56.000Z</time>
      </trkpt>
      <trkpt lat="44.7608" lon="4.5553">
        <ele>499.26</ele>
        <time>2019-10-10T12:16:06.000Z</time>
      </trkpt>
      <trkpt lat="44.76092" lon="4.5553">
        <ele>503.58</ele>
        <time>2019-10-10T12:16:16.000Z</time>
      </trkpt>
      <trkpt lat="44.76105" lon="4.55533">
        <ele>507.02</ele>
        <time>2019-10-10T12:16:26.000Z</time>
      </trkpt>
      <trkpt lat="44.76115" lon="4.55537">
        <ele>509.76</ele>
        <time>2019-10-10T12:16:36.000Z</time>
      </trkpt>
      <trkpt lat="44.76125" lon="4.55541">
        <ele>512.67</ele>
        <time>2019-10-10T12:16:46.000Z</time>
      </trkpt>
      <trkpt lat="44.76137" lon="4.55546">
        <ele>516.55</ele>
        <time>2019-10-10T12:16:56.000Z</time>
      </trkpt>
      <trkpt lat="44.7614" lon="4.55563">
        <ele>516.19</ele>
        <time>2019-10-10T12:17:06.000Z</time>
      </trkpt>
      <trkpt lat="44.76136" lon="4.55579">
        <ele>513.52</ele>
        <time>2019-10-10T12:17:16.000Z</time>
      </trkpt>
      <trkpt lat="44.76131" lon="4.55597">
        <ele>510.48</ele>
        <time>2019-10-10T12:17:26.000Z</time>
      </trkpt>
      <trkpt lat="44.76129" lon="4.55609">
        <ele>508.82</ele>
        <time>2019-10-10T12:17:36.000Z</time>
      </trkpt>
      <trkpt lat="44.7613" lon="4.55625">
        <ele>509.28</ele>
        <time>2019-10-10T12:17:46.000Z</time>
      </trkpt>
      <trkpt lat="44.76131" lon="4.55638">
        <ele>509.78</ele>
        <time>2019-10-10T12:17:56.000Z</time>
      </trkpt>
      <trkpt lat="44.76133" lon="4.55655">
        <ele>510.6</ele>
        <time>2019-10-10T12:18:06.000Z</time>
      </trkpt>
      <trkpt lat="44.76139" lon="4.55669">
        <ele>513.82</ele>
        <time>2019-10-10T12:18:16.000Z</time>
      </trkpt>
      <trkpt lat="44.76144" lon="4.55687">
        <ele>516.3</ele>
        <time>2019-10-10T12:18:26.000Z</time>
      </trkpt>
      <trkpt lat="44.76149" lon="4.55706">
        <ele>517.92</ele>
        <time>2019-10-10T12:18:36.000Z</time>
      </trkpt>
      <trkpt lat="44.76154" lon="4.55724">
        <ele>519.39</ele>
        <time>2019-10-10T12:18:46.000Z</time>
      </trkpt>
      <trkpt lat="44.76158" lon="4.55742">
        <ele>521.01</ele>
        <time>2019-10-10T12:18:56.000Z</time>
      </trkpt>
      <trkpt lat="44.76162" lon="4.55763">
        <ele>523.83</ele>
        <time>2019-10-10T12:19:06.000Z</time>
      </trkpt>
      <trkpt lat="44.76167" lon="4.5578">
        <ele>527.15</ele>
        <time>2019-10-10T12:19:16.000Z</time>
      </trkpt>
      <trkpt lat="44.76175" lon="4.55795">
        <ele>531.12</ele>
        <time>2019-10-10T12:19:26.000Z</time>
      </trkpt>
      <trkpt lat="44.76171" lon="4.55806">
        <ele>532.23</ele>
        <time>2019-10-10T12:19:36.000Z</time>
      </trkpt>
      <trkpt lat="44.7616" lon="4.5581">
        <ele>530.99</ele>
        <time>2019-10-10T12:19:46.000Z</time>
      </trkpt>
      <trkpt lat="44.76148" lon="4.55808">
        <ele>528.83</ele>
        <time>2019-10-10T12:19:56.000Z</time>
      </trkpt>
      <trkpt lat="44.76135" lon="4.55806">
        <ele>527.15</ele>
        <time>2019-10-10T12:20:06.000Z</time>
      </trkpt>
      <trkpt lat="44.76124" lon="4.558">
        <ele>525</ele>
        <time>2019-10-10T12:20:16.000Z</time>
      </trkpt>
      <trkpt lat="44.76112" lon="4.55799">
        <ele>523.95</ele>
        <time>2019-10-10T12:20:26.000Z</time>
      </trkpt>
      <trkpt lat="44.76098" lon="4.55798">
        <ele>523.29</ele>
        <time>2019-10-10T12:20:36.000Z</time>
      </trkpt>
      <trkpt lat="44.76085" lon="4.55801">
        <ele>523.88</ele>
        <time>2019-10-10T12:20:46.000Z</time>
      </trkpt>
      <trkpt lat="44.76071" lon="4.55803">
        <ele>524.52</ele>
        <time>2019-10-10T12:20:56.000Z</time>
      </trkpt>
      <trkpt lat="44.76058" lon="4.55799">
        <ele>523.7</ele>
        <time>2019-10-10T12:21:06.000Z</time>
      </trkpt>
      <trkpt lat="44.76049" lon="4.55799">
        <ele>524.34</ele>
        <time>2019-10-10T12:21:16.000Z</time>
      </trkpt>
      <trkpt lat="44.76034" lon="4.558">
        <ele>525.65</ele>
        <time>2019-10-10T12:21:26.000Z</time>
      </trkpt>
      <trkpt lat="44.76021" lon="4.55801">
        <ele>526.58</ele>
        <time>2019-10-10T12:21:36.000Z</time>
      </trkpt>
      <trkpt lat="44.76011" lon="4.55803">
        <ele>528.03</ele>
        <time>2019-10-10T12:21:46.000Z</time>
      </trkpt>
      <trkpt lat="44.76" lon="4.55799">
        <ele>527.37</ele>
        <time>2019-10-10T12:21:56.000Z</time>
      </trkpt>
      <trkpt lat="44.75995" lon="4.55802">
        <ele>528.42</ele>
        <time>2019-10-10T12:22:06.000Z</time>
      </trkpt>
      <trkpt lat="44.76003" lon="4.55809">
        <ele>530.15</ele>
        <time>2019-10-10T12:22:16.000Z</time>
      </trkpt>
      <trkpt lat="44.76011" lon="4.5582">
        <ele>532.68</ele>
        <time>2019-10-10T12:22:26.000Z</time>
      </trkpt>
      <trkpt lat="44.7602" lon="4.5583">
        <ele>535.01</ele>
        <time>2019-10-10T12:22:36.000Z</time>
      </trkpt>
      <trkpt lat="44.76029" lon="4.5584">
        <ele>536.91</ele>
        <time>2019-10-10T12:22:46.000Z</time>
      </trkpt>
      <trkpt lat="44.76041" lon="4.55846">
        <ele>537.86</ele>
        <time>2019-10-10T12:22:56.000Z</time>
      </trkpt>
      <trkpt lat="44.7605" lon="4.55853">
        <ele>539.2</ele>
        <time>2019-10-10T12:23:06.000Z</time>
      </trkpt>
      <trkpt lat="44.76062" lon="4.55861">
        <ele>540.82</ele>
        <time>2019-10-10T12:23:16.000Z</time>
      </trkpt>
      <trkpt lat="44.76075" lon="4.55866">
        <ele>541.58</ele>
        <time>2019-10-10T12:23:26.000Z</time>
      </trkpt>
      <trkpt lat="44.76087" lon="4.55867">
        <ele>541.97</ele>
        <time>2019-10-10T12:23:36.000Z</time>
      </trkpt>
      <trkpt lat="44.76097" lon="4.55869">
        <ele>542.67</ele>
        <time>2019-10-10T12:23:46.000Z</time>
      </trkpt>
      <trkpt lat="44.76107" lon="4.55872">
        <ele>543.73</ele>
        <time>2019-10-10T12:23:56.000Z</time>
      </trkpt>
      <trkpt lat="44.7612" lon="4.55871">
        <ele>543.88</ele>
        <time>2019-10-10T12:24:06.000Z</time>
      </trkpt>
      <trkpt lat="44.76127" lon="4.55877">
        <ele>546.17</ele>
        <time>2019-10-10T12:24:16.000Z</time>
      </trkpt>
      <trkpt lat="44.76118" lon="4.5589">
        <ele>549.3</ele>
        <time>2019-10-10T12:24:26.000Z</time>
      </trkpt>
      <trkpt lat="44.76107" lon="4.55899">
        <ele>551.3</ele>
        <time>2019-10-10T12:24:36.000Z</time>
      </trkpt>
      <trkpt lat="44.76099" lon="4.5591">
        <ele>553.68</ele>
        <time>2019-10-10T12:24:46.000Z</time>
      </trkpt>
      <trkpt lat="44.76091" lon="4.55921">
        <ele>556.28</ele>
        <time>2019-10-10T12:24:56.000Z</time>
      </trkpt>
      <trkpt lat="44.76083" lon="4.55932">
        <ele>559</ele>
        <time>2019-10-10T12:25:06.000Z</time>
      </trkpt>
      <trkpt lat="44.76075" lon="4.5594">
        <ele>561.24</ele>
        <time>2019-10-10T12:25:16.000Z</time>
      </trkpt>
      <trkpt lat="44.76067" lon="4.55948">
        <ele>563.41</ele>
        <time>2019-10-10T12:25:26.000Z</time>
      </trkpt>
      <trkpt lat="44.76056" lon="4.55955">
        <ele>565.76</ele>
        <time>2019-10-10T12:25:36.000Z</time>
      </trkpt>
      <trkpt lat="44.76047" lon="4.5596">
        <ele>567.71</ele>
        <time>2019-10-10T12:25:46.000Z</time>
      </trkpt>
      <trkpt lat="44.7604" lon="4.55964">
        <ele>569.1</ele>
        <time>2019-10-10T12:25:56.000Z</time>
      </trkpt>
      <trkpt lat="44.76029" lon="4.55967">
        <ele>570.77</ele>
        <time>2019-10-10T12:26:06.000Z</time>
      </trkpt>
      <trkpt lat="44.76018" lon="4.55965">
        <ele>571.08</ele>
        <time>2019-10-10T12:26:16.000Z</time>
      </trkpt>
      <trkpt lat="44.76005" lon="4.55962">
        <ele>571.08</ele>
        <time>2019-10-10T12:26:26.000Z</time>
      </trkpt>
      <trkpt lat="44.75995" lon="4.55958">
        <ele>570.91</ele>
        <time>2019-10-10T12:26:36.000Z</time>
      </trkpt>
      <trkpt lat="44.75981" lon="4.55957">
        <ele>571.79</ele>
        <time>2019-10-10T12:26:46.000Z</time>
      </trkpt>
      <trkpt lat="44.7597" lon="4.55956">
        <ele>572.71</ele>
        <time>2019-10-10T12:26:56.000Z</time>
      </trkpt>
      <trkpt lat="44.75961" lon="4.55957">
        <ele>573.96</ele>
        <time>2019-10-10T12:27:06.000Z</time>
      </trkpt>
      <trkpt lat="44.75952" lon="4.5596">
        <ele>575.93</ele>
        <time>2019-10-10T12:27:16.000Z</time>
      </trkpt>
      <trkpt lat="44.75939" lon="4.55962">
        <ele>577.63</ele>
        <time>2019-10-10T12:27:26.000Z</time>
      </trkpt>
      <trkpt lat="44.75926" lon="4.55963">
        <ele>578.78</ele>
        <time>2019-10-10T12:27:36.000Z</time>
      </trkpt>
      <trkpt lat="44.75914" lon="4.55966">
        <ele>579.55</ele>
        <time>2019-10-10T12:27:46.000Z</time>
      </trkpt>
      <trkpt lat="44.75903" lon="4.55965">
        <ele>578.96</ele>
        <time>2019-10-10T12:27:56.000Z</time>
      </trkpt>
      <trkpt lat="44.75891" lon="4.55968">
        <ele>578.98</ele>
        <time>2019-10-10T12:28:06.000Z</time>
      </trkpt>
      <trkpt lat="44.7588" lon="4.55971">
        <ele>578.73</ele>
        <time>2019-10-10T12:28:16.000Z</time>
      </trkpt>
      <trkpt lat="44.75871" lon="4.55973">
        <ele>578.31</ele>
        <time>2019-10-10T12:28:26.000Z</time>
      </trkpt>
      <trkpt lat="44.7586" lon="4.5598">
        <ele>578.52</ele>
        <time>2019-10-10T12:28:36.000Z</time>
      </trkpt>
      <trkpt lat="44.75849" lon="4.5599">
        <ele>579.02</ele>
        <time>2019-10-10T12:28:46.000Z</time>
      </trkpt>
      <trkpt lat="44.75848" lon="4.56003">
        <ele>581.26</ele>
        <time>2019-10-10T12:28:56.000Z</time>
      </trkpt>
      <trkpt lat="44.75856" lon="4.56011">
        <ele>583.81</ele>
        <time>2019-10-10T12:29:06.000Z</time>
      </trkpt>
      <trkpt lat="44.75866" lon="4.56017">
        <ele>586.12</ele>
        <time>2019-10-10T12:29:16.000Z</time>
      </trkpt>
      <trkpt lat="44.75876" lon="4.56022">
        <ele>588.28</ele>
        <time>2019-10-10T12:29:26.000Z</time>
      </trkpt>
      <trkpt lat="44.75888" lon="4.56023">
        <ele>590.19</ele>
        <time>2019-10-10T12:29:36.000Z</time>
      </trkpt>
      <trkpt lat="44.75899" lon="4.56027">
        <ele>592.01</ele>
        <time>2019-10-10T12:29:46.000Z</time>
      </trkpt>
      <trkpt lat="44.75895" lon="4.56044">
        <ele>594.22</ele>
        <time>2019-10-10T12:29:56.000Z</time>
      </trkpt>
      <trkpt lat="44.75897" lon="4.56062">
        <ele>597.03</ele>
        <time>2019-10-10T12:30:06.000Z</time>
      </trkpt>
      <trkpt lat="44.75897" lon="4.56079">
        <ele>599.03</ele>
        <time>2019-10-10T12:30:16.000Z</time>
      </trkpt>
      <trkpt lat="44.75897" lon="4.5609">
        <ele>600.26</ele>
        <time>2019-10-10T12:30:26.000Z</time>
      </trkpt>
      <trkpt lat="44.75901" lon="4.56107">
        <ele>602.27</ele>
        <time>2019-10-10T12:30:36.000Z</time>
      </trkpt>
      <trkpt lat="44.759" lon="4.56124">
        <ele>603.28</ele>
        <time>2019-10-10T12:30:46.000Z</time>
      </trkpt>
      <trkpt lat="44.75903" lon="4.56146">
        <ele>605.18</ele>
        <time>2019-10-10T12:30:56.000Z</time>
      </trkpt>
      <trkpt lat="44.75905" lon="4.56165">
        <ele>607.25</ele>
        <time>2019-10-10T12:31:06.000Z</time>
      </trkpt>
      <trkpt lat="44.7591" lon="4.56181">
        <ele>609.8</ele>
        <time>2019-10-10T12:31:16.000Z</time>
      </trkpt>
      <trkpt lat="44.75908" lon="4.56198">
        <ele>610.91</ele>
        <time>2019-10-10T12:31:26.000Z</time>
      </trkpt>
      <trkpt lat="44.75907" lon="4.56212">
        <ele>611.99</ele>
        <time>2019-10-10T12:31:36.000Z</time>
      </trkpt>
      <trkpt lat="44.75901" lon="4.56225">
        <ele>611.48</ele>
        <time>2019-10-10T12:31:46.000Z</time>
      </trkpt>
      <trkpt lat="44.75897" lon="4.5624">
        <ele>611.96</ele>
        <time>2019-10-10T12:31:56.000Z</time>
      </trkpt>
      <trkpt lat="44.7589" lon="4.56256">
        <ele>612.18</ele>
        <time>2019-10-10T12:32:06.000Z</time>
      </trkpt>
      <trkpt lat="44.75886" lon="4.56266">
        <ele>612.8</ele>
        <time>2019-10-10T12:32:16.000Z</time>
      </trkpt>
      <trkpt lat="44.75879" lon="4.56285">
        <ele>615.17</ele>
        <time>2019-10-10T12:32:26.000Z</time>
      </trkpt>
      <trkpt lat="44.75876" lon="4.56296">
        <ele>617.08</ele>
        <time>2019-10-10T12:32:36.000Z</time>
      </trkpt>
      <trkpt lat="44.75868" lon="4.56304">
        <ele>616.68</ele>
        <time>2019-10-10T12:32:46.000Z</time>
      </trkpt>
      <trkpt lat="44.75857" lon="4.56313">
        <ele>615.52</ele>
        <time>2019-10-10T12:32:56.000Z</time>
      </trkpt>
      <trkpt lat="44.7585" lon="4.56324">
        <ele>616.06</ele>
        <time>2019-10-10T12:33:06.000Z</time>
      </trkpt>
      <trkpt lat="44.7584" lon="4.56334">
        <ele>615.51</ele>
        <time>2019-10-10T12:33:16.000Z</time>
      </trkpt>
      <trkpt lat="44.7583" lon="4.56346">
        <ele>614.93</ele>
        <time>2019-10-10T12:33:26.000Z</time>
      </trkpt>
      <trkpt lat="44.75819" lon="4.5636">
        <ele>614.69</ele>
        <time>2019-10-10T12:33:36.000Z</time>
      </trkpt>
      <trkpt lat="44.75811" lon="4.56374">
        <ele>615.16</ele>
        <time>2019-10-10T12:33:46.000Z</time>
      </trkpt>
      <trkpt lat="44.75803" lon="4.56388">
        <ele>615.45</ele>
        <time>2019-10-10T12:33:56.000Z</time>
      </trkpt>
      <trkpt lat="44.75796" lon="4.56403">
        <ele>615.69</ele>
        <time>2019-10-10T12:34:06.000Z</time>
      </trkpt>
      <trkpt lat="44.75787" lon="4.56415">
        <ele>614.23</ele>
        <time>2019-10-10T12:34:16.000Z</time>
      </trkpt>
      <trkpt lat="44.7578" lon="4.56428">
        <ele>612.93</ele>
        <time>2019-10-10T12:34:26.000Z</time>
      </trkpt>
      <trkpt lat="44.75777" lon="4.56441">
        <ele>613.38</ele>
        <time>2019-10-10T12:34:36.000Z</time>
      </trkpt>
      <trkpt lat="44.75773" lon="4.56456">
        <ele>613.69</ele>
        <time>2019-10-10T12:34:46.000Z</time>
      </trkpt>
      <trkpt lat="44.75773" lon="4.56473">
        <ele>615.18</ele>
        <time>2019-10-10T12:34:56.000Z</time>
      </trkpt>
      <trkpt lat="44.75773" lon="4.56488">
        <ele>616.57</ele>
        <time>2019-10-10T12:35:06.000Z</time>
      </trkpt>
      <trkpt lat="44.75774" lon="4.56507">
        <ele>617.88</ele>
        <time>2019-10-10T12:35:16.000Z</time>
      </trkpt>
      <trkpt lat="44.75773" lon="4.56524">
        <ele>618.14</ele>
        <time>2019-10-10T12:35:26.000Z</time>
      </trkpt>
      <trkpt lat="44.75774" lon="4.56541">
        <ele>618.76</ele>
        <time>2019-10-10T12:35:36.000Z</time>
      </trkpt>
      <trkpt lat="44.75777" lon="4.56556">
        <ele>619.67</ele>
        <time>2019-10-10T12:35:46.000Z</time>
      </trkpt>
      <trkpt lat="44.75779" lon="4.56571">
        <ele>620.53</ele>
        <time>2019-10-10T12:35:56.000Z</time>
      </trkpt>
      <trkpt lat="44.75778" lon="4.56587">
        <ele>619.79</ele>
        <time>2019-10-10T12:36:06.000Z</time>
      </trkpt>
      <trkpt lat="44.75779" lon="4.56602">
        <ele>619.5</ele>
        <time>2019-10-10T12:36:16.000Z</time>
      </trkpt>
      <trkpt lat="44.75782" lon="4.56622">
        <ele>619.89</ele>
        <time>2019-10-10T12:36:26.000Z</time>
      </trkpt>
      <trkpt lat="44.75784" lon="4.56639">
        <ele>619.76</ele>
        <time>2019-10-10T12:36:36.000Z</time>
      </trkpt>
      <trkpt lat="44.75787" lon="4.56657">
        <ele>619.61</ele>
        <time>2019-10-10T12:36:46.000Z</time>
      </trkpt>
      <trkpt lat="44.75791" lon="4.56678">
        <ele>620.01</ele>
        <time>2019-10-10T12:36:56.000Z</time>
      </trkpt>
      <trkpt lat="44.75796" lon="4.56696">
        <ele>620.33</ele>
        <time>2019-10-10T12:37:06.000Z</time>
      </trkpt>
      <trkpt lat="44.75796" lon="4.56717">
        <ele>619.37</ele>
        <time>2019-10-10T12:37:16.000Z</time>
      </trkpt>
      <trkpt lat="44.758" lon="4.56739">
        <ele>619.33</ele>
        <time>2019-10-10T12:37:26.000Z</time>
      </trkpt>
      <trkpt lat="44.75801" lon="4.56759">
        <ele>618.94</ele>
        <time>2019-10-10T12:37:36.000Z</time>
      </trkpt>
      <trkpt lat="44.75803" lon="4.56776">
        <ele>618.83</ele>
        <time>2019-10-10T12:37:46.000Z</time>
      </trkpt>
      <trkpt lat="44.758" lon="4.56796">
        <ele>617.44</ele>
        <time>2019-10-10T12:37:56.000Z</time>
      </trkpt>
      <trkpt lat="44.75798" lon="4.56816">
        <ele>616.14</ele>
        <time>2019-10-10T12:38:06.000Z</time>
      </trkpt>
      <trkpt lat="44.75795" lon="4.56836">
        <ele>614.85</ele>
        <time>2019-10-10T12:38:16.000Z</time>
      </trkpt>
      <trkpt lat="44.75794" lon="4.56858">
        <ele>613.7</ele>
        <time>2019-10-10T12:38:26.000Z</time>
      </trkpt>
      <trkpt lat="44.75793" lon="4.5688">
        <ele>612.7</ele>
        <time>2019-10-10T12:38:36.000Z</time>
      </trkpt>
      <trkpt lat="44.75787" lon="4.56898">
        <ele>610.63</ele>
        <time>2019-10-10T12:38:46.000Z</time>
      </trkpt>
      <trkpt lat="44.75784" lon="4.56918">
        <ele>609.39</ele>
        <time>2019-10-10T12:38:56.000Z</time>
      </trkpt>
      <trkpt lat="44.75782" lon="4.56939">
        <ele>608.45</ele>
        <time>2019-10-10T12:39:06.000Z</time>
      </trkpt>
      <trkpt lat="44.75783" lon="4.56959">
        <ele>608.14</ele>
        <time>2019-10-10T12:39:16.000Z</time>
      </trkpt>
      <trkpt lat="44.75785" lon="4.56981">
        <ele>608.35</ele>
        <time>2019-10-10T12:39:26.000Z</time>
      </trkpt>
      <trkpt lat="44.75787" lon="4.57001">
        <ele>608.77</ele>
        <time>2019-10-10T12:39:36.000Z</time>
      </trkpt>
      <trkpt lat="44.75789" lon="4.57025">
        <ele>609.22</ele>
        <time>2019-10-10T12:39:46.000Z</time>
      </trkpt>
      <trkpt lat="44.75789" lon="4.57041">
        <ele>609.32</ele>
        <time>2019-10-10T12:39:56.000Z</time>
      </trkpt>
      <trkpt lat="44.75783" lon="4.57062">
        <ele>608.16</ele>
        <time>2019-10-10T12:40:06.000Z</time>
      </trkpt>
      <trkpt lat="44.75775" lon="4.57084">
        <ele>606.81</ele>
        <time>2019-10-10T12:40:16.000Z</time>
      </trkpt>
      <trkpt lat="44.7577" lon="4.57104">
        <ele>606.27</ele>
        <time>2019-10-10T12:40:26.000Z</time>
      </trkpt>
      <trkpt lat="44.75767" lon="4.57124">
        <ele>606.48</ele>
        <time>2019-10-10T12:40:36.000Z</time>
      </trkpt>
      <trkpt lat="44.75759" lon="4.57145">
        <ele>606.28</ele>
        <time>2019-10-10T12:40:46.000Z</time>
      </trkpt>
      <trkpt lat="44.75753" lon="4.5716">
        <ele>606.09</ele>
        <time>2019-10-10T12:40:56.000Z</time>
      </trkpt>
      <trkpt lat="44.75748" lon="4.57179">
        <ele>606.15</ele>
        <time>2019-10-10T12:41:06.000Z</time>
      </trkpt>
      <trkpt lat="44.75748" lon="4.57197">
        <ele>606.6</ele>
        <time>2019-10-10T12:41:16.000Z</time>
      </trkpt>
      <trkpt lat="44.75745" lon="4.57213">
        <ele>606.71</ele>
        <time>2019-10-10T12:41:26.000Z</time>
      </trkpt>
      <trkpt lat="44.75744" lon="4.57229">
        <ele>606.74</ele>
        <time>2019-10-10T12:41:36.000Z</time>
      </trkpt>
      <trkpt lat="44.75742" lon="4.57247">
        <ele>606.55</ele>
        <time>2019-10-10T12:41:46.000Z</time>
      </trkpt>
      <trkpt lat="44.75744" lon="4.57265">
        <ele>606.21</ele>
        <time>2019-10-10T12:41:56.000Z</time>
      </trkpt>
      <trkpt lat="44.75743" lon="4.57285">
        <ele>605.34</ele>
        <time>2019-10-10T12:42:06.000Z</time>
      </trkpt>
      <trkpt lat="44.75744" lon="4.57306">
        <ele>604.27</ele>
        <time>2019-10-10T12:42:16.000Z</time>
      </trkpt>
      <trkpt lat="44.75749" lon="4.57324">
        <ele>603.46</ele>
        <time>2019-10-10T12:42:26.000Z</time>
      </trkpt>
      <trkpt lat="44.75755" lon="4.5734">
        <ele>602.78</ele>
        <time>2019-10-10T12:42:36.000Z</time>
      </trkpt>
      <trkpt lat="44.75759" lon="4.57359">
        <ele>601.94</ele>
        <time>2019-10-10T12:42:46.000Z</time>
      </trkpt>
      <trkpt lat="44.75765" lon="4.57376">
        <ele>601.08</ele>
        <time>2019-10-10T12:42:56.000Z</time>
      </trkpt>
      <trkpt lat="44.75771" lon="4.57393">
        <ele>600.2</ele>
        <time>2019-10-10T12:43:06.000Z</time>
      </trkpt>
      <trkpt lat="44.75776" lon="4.5741">
        <ele>599.32</ele>
        <time>2019-10-10T12:43:16.000Z</time>
      </trkpt>
      <trkpt lat="44.75781" lon="4.57428">
        <ele>598.47</ele>
        <time>2019-10-10T12:43:26.000Z</time>
      </trkpt>
      <trkpt lat="44.75787" lon="4.57443">
        <ele>597.75</ele>
        <time>2019-10-10T12:43:36.000Z</time>
      </trkpt>
      <trkpt lat="44.75795" lon="4.57456">
        <ele>597.03</ele>
        <time>2019-10-10T12:43:46.000Z</time>
      </trkpt>
      <trkpt lat="44.75803" lon="4.57469">
        <ele>596.29</ele>
        <time>2019-10-10T12:43:56.000Z</time>
      </trkpt>
      <trkpt lat="44.75811" lon="4.57485">
        <ele>595.42</ele>
        <time>2019-10-10T12:44:06.000Z</time>
      </trkpt>
      <trkpt lat="44.7582" lon="4.575">
        <ele>594.57</ele>
        <time>2019-10-10T12:44:16.000Z</time>
      </trkpt>
      <trkpt lat="44.75827" lon="4.57516">
        <ele>593.85</ele>
        <time>2019-10-10T12:44:26.000Z</time>
      </trkpt>
      <trkpt lat="44.75829" lon="4.57525">
        <ele>593.6</ele>
        <time>2019-10-10T12:44:38.000Z</time>
      </trkpt>
      <trkpt lat="44.75833" lon="4.57533">
        <ele>593.39</ele>
        <time>2019-10-10T12:47:31.000Z</time>
      </trkpt>
      <trkpt lat="44.75838" lon="4.5755">
        <ele>593.17</ele>
        <time>2019-10-10T12:47:41.000Z</time>
      </trkpt>
      <trkpt lat="44.75845" lon="4.57568">
        <ele>593.32</ele>
        <time>2019-10-10T12:47:51.000Z</time>
      </trkpt>
      <trkpt lat="44.75851" lon="4.57587">
        <ele>593.81</ele>
        <time>2019-10-10T12:48:01.000Z</time>
      </trkpt>
      <trkpt lat="44.75858" lon="4.57605">
        <ele>594.7</ele>
        <time>2019-10-10T12:48:11.000Z</time>
      </trkpt>
      <trkpt lat="44.75865" lon="4.57623">
        <ele>595.84</ele>
        <time>2019-10-10T12:48:21.000Z</time>
      </trkpt>
      <trkpt lat="44.7587" lon="4.5764">
        <ele>596.81</ele>
        <time>2019-10-10T12:48:31.000Z</time>
      </trkpt>
      <trkpt lat="44.75875" lon="4.57658">
        <ele>597.72</ele>
        <time>2019-10-10T12:48:41.000Z</time>
      </trkpt>
      <trkpt lat="44.75879" lon="4.57678">
        <ele>598.06</ele>
        <time>2019-10-10T12:48:51.000Z</time>
      </trkpt>
      <trkpt lat="44.75882" lon="4.57697">
        <ele>597.94</ele>
        <time>2019-10-10T12:49:01.000Z</time>
      </trkpt>
      <trkpt lat="44.75884" lon="4.57718">
        <ele>597.4</ele>
        <time>2019-10-10T12:49:11.000Z</time>
      </trkpt>
      <trkpt lat="44.75886" lon="4.57735">
        <ele>596.86</ele>
        <time>2019-10-10T12:49:21.000Z</time>
      </trkpt>
      <trkpt lat="44.75888" lon="4.57755">
        <ele>596.27</ele>
        <time>2019-10-10T12:49:31.000Z</time>
      </trkpt>
      <trkpt lat="44.7589" lon="4.57776">
        <ele>595.73</ele>
        <time>2019-10-10T12:49:41.000Z</time>
      </trkpt>
      <trkpt lat="44.75893" lon="4.57796">
        <ele>595.29</ele>
        <time>2019-10-10T12:49:51.000Z</time>
      </trkpt>
      <trkpt lat="44.75896" lon="4.57816">
        <ele>594.74</ele>
        <time>2019-10-10T12:50:01.000Z</time>
      </trkpt>
      <trkpt lat="44.75899" lon="4.57837">
        <ele>594.14</ele>
        <time>2019-10-10T12:50:11.000Z</time>
      </trkpt>
      <trkpt lat="44.75903" lon="4.57856">
        <ele>593.44</ele>
        <time>2019-10-10T12:50:21.000Z</time>
      </trkpt>
      <trkpt lat="44.75905" lon="4.57875">
        <ele>592.54</ele>
        <time>2019-10-10T12:50:31.000Z</time>
      </trkpt>
      <trkpt lat="44.75907" lon="4.57894">
        <ele>591.68</ele>
        <time>2019-10-10T12:50:41.000Z</time>
      </trkpt>
      <trkpt lat="44.75911" lon="4.57913">
        <ele>591.01</ele>
        <time>2019-10-10T12:50:51.000Z</time>
      </trkpt>
      <trkpt lat="44.75913" lon="4.57932">
        <ele>590.55</ele>
        <time>2019-10-10T12:51:01.000Z</time>
      </trkpt>
      <trkpt lat="44.7592" lon="4.57946">
        <ele>590.33</ele>
        <time>2019-10-10T12:51:11.000Z</time>
      </trkpt>
      <trkpt lat="44.75931" lon="4.57946">
        <ele>590.31</ele>
        <time>2019-10-10T12:51:21.000Z</time>
      </trkpt>
      <trkpt lat="44.75939" lon="4.57939">
        <ele>590.38</ele>
        <time>2019-10-10T12:51:31.000Z</time>
      </trkpt>
      <trkpt lat="44.75952" lon="4.57929">
        <ele>590.43</ele>
        <time>2019-10-10T12:51:41.000Z</time>
      </trkpt>
      <trkpt lat="44.75964" lon="4.57921">
        <ele>590.35</ele>
        <time>2019-10-10T12:51:51.000Z</time>
      </trkpt>
      <trkpt lat="44.75977" lon="4.57911">
        <ele>590.31</ele>
        <time>2019-10-10T12:52:01.000Z</time>
      </trkpt>
      <trkpt lat="44.7599" lon="4.57908">
        <ele>589.57</ele>
        <time>2019-10-10T12:52:11.000Z</time>
      </trkpt>
      <trkpt lat="44.75997" lon="4.57913">
        <ele>588.58</ele>
        <time>2019-10-10T12:52:21.000Z</time>
      </trkpt>
      <trkpt lat="44.76011" lon="4.57906">
        <ele>587.44</ele>
        <time>2019-10-10T12:52:31.000Z</time>
      </trkpt>
      <trkpt lat="44.76022" lon="4.57897">
        <ele>586.74</ele>
        <time>2019-10-10T12:52:41.000Z</time>
      </trkpt>
      <trkpt lat="44.76029" lon="4.57888">
        <ele>586.5</ele>
        <time>2019-10-10T12:52:51.000Z</time>
      </trkpt>
      <trkpt lat="44.76036" lon="4.57889">
        <ele>585.22</ele>
        <time>2019-10-10T12:53:01.000Z</time>
      </trkpt>
      <trkpt lat="44.76047" lon="4.57893">
        <ele>582.62</ele>
        <time>2019-10-10T12:53:11.000Z</time>
      </trkpt>
      <trkpt lat="44.76057" lon="4.57897">
        <ele>580.11</ele>
        <time>2019-10-10T12:53:21.000Z</time>
      </trkpt>
      <trkpt lat="44.76067" lon="4.57905">
        <ele>577.24</ele>
        <time>2019-10-10T12:53:31.000Z</time>
      </trkpt>
      <trkpt lat="44.76079" lon="4.57913">
        <ele>574.07</ele>
        <time>2019-10-10T12:53:41.000Z</time>
      </trkpt>
      <trkpt lat="44.76092" lon="4.57916">
        <ele>571.53</ele>
        <time>2019-10-10T12:53:51.000Z</time>
      </trkpt>
      <trkpt lat="44.76104" lon="4.57911">
        <ele>569.67</ele>
        <time>2019-10-10T12:54:01.000Z</time>
      </trkpt>
      <trkpt lat="44.76117" lon="4.57906">
        <ele>567.66</ele>
        <time>2019-10-10T12:54:11.000Z</time>
      </trkpt>
      <trkpt lat="44.76129" lon="4.57908">
        <ele>565.24</ele>
        <time>2019-10-10T12:54:21.000Z</time>
      </trkpt>
      <trkpt lat="44.76143" lon="4.57907">
        <ele>562.77</ele>
        <time>2019-10-10T12:54:31.000Z</time>
      </trkpt>
      <trkpt lat="44.76153" lon="4.57916">
        <ele>560.48</ele>
        <time>2019-10-10T12:54:41.000Z</time>
      </trkpt>
      <trkpt lat="44.76158" lon="4.57934">
        <ele>559.02</ele>
        <time>2019-10-10T12:54:51.000Z</time>
      </trkpt>
      <trkpt lat="44.76156" lon="4.57949">
        <ele>558.69</ele>
        <time>2019-10-10T12:55:01.000Z</time>
      </trkpt>
      <trkpt lat="44.76154" lon="4.57964">
        <ele>558.4</ele>
        <time>2019-10-10T12:55:11.000Z</time>
      </trkpt>
      <trkpt lat="44.76149" lon="4.57976">
        <ele>558.65</ele>
        <time>2019-10-10T12:55:21.000Z</time>
      </trkpt>
      <trkpt lat="44.76147" lon="4.57995">
        <ele>558.4</ele>
        <time>2019-10-10T12:55:31.000Z</time>
      </trkpt>
      <trkpt lat="44.76148" lon="4.58012">
        <ele>557.83</ele>
        <time>2019-10-10T12:55:41.000Z</time>
      </trkpt>
      <trkpt lat="44.76148" lon="4.58028">
        <ele>557.42</ele>
        <time>2019-10-10T12:55:51.000Z</time>
      </trkpt>
      <trkpt lat="44.76153" lon="4.58043">
        <ele>556</ele>
        <time>2019-10-10T12:56:01.000Z</time>
      </trkpt>
      <trkpt lat="44.76154" lon="4.58056">
        <ele>555.63</ele>
        <time>2019-10-10T12:56:11.000Z</time>
      </trkpt>
      <trkpt lat="44.76161" lon="4.58064">
        <ele>554.36</ele>
        <time>2019-10-10T12:56:21.000Z</time>
      </trkpt>
      <trkpt lat="44.7617" lon="4.58075">
        <ele>552.89</ele>
        <time>2019-10-10T12:56:31.000Z</time>
      </trkpt>
      <trkpt lat="44.7618" lon="4.58082">
        <ele>551.26</ele>
        <time>2019-10-10T12:56:41.000Z</time>
      </trkpt>
      <trkpt lat="44.7619" lon="4.58084">
        <ele>549.66</ele>
        <time>2019-10-10T12:56:51.000Z</time>
      </trkpt>
      <trkpt lat="44.76201" lon="4.58092">
        <ele>548.27</ele>
        <time>2019-10-10T12:57:01.000Z</time>
      </trkpt>
      <trkpt lat="44.76216" lon="4.58099">
        <ele>546.27</ele>
        <time>2019-10-10T12:57:11.000Z</time>
      </trkpt>
      <trkpt lat="44.7623" lon="4.58099">
        <ele>544.11</ele>
        <time>2019-10-10T12:57:21.000Z</time>
      </trkpt>
      <trkpt lat="44.7624" lon="4.58097">
        <ele>542.2</ele>
        <time>2019-10-10T12:57:31.000Z</time>
      </trkpt>
      <trkpt lat="44.76252" lon="4.58096">
        <ele>540.16</ele>
        <time>2019-10-10T12:57:41.000Z</time>
      </trkpt>
      <trkpt lat="44.76263" lon="4.5811">
        <ele>538.99</ele>
        <time>2019-10-10T12:57:51.000Z</time>
      </trkpt>
      <trkpt lat="44.76275" lon="4.58114">
        <ele>537.06</ele>
        <time>2019-10-10T12:58:01.000Z</time>
      </trkpt>
      <trkpt lat="44.76285" lon="4.58114">
        <ele>535.21</ele>
        <time>2019-10-10T12:58:11.000Z</time>
      </trkpt>
      <trkpt lat="44.76298" lon="4.58112">
        <ele>532.7</ele>
        <time>2019-10-10T12:58:21.000Z</time>
      </trkpt>
      <trkpt lat="44.76309" lon="4.58113">
        <ele>530.92</ele>
        <time>2019-10-10T12:58:31.000Z</time>
      </trkpt>
      <trkpt lat="44.76322" lon="4.5812">
        <ele>528.87</ele>
        <time>2019-10-10T12:58:41.000Z</time>
      </trkpt>
      <trkpt lat="44.76334" lon="4.58118">
        <ele>527.01</ele>
        <time>2019-10-10T12:58:51.000Z</time>
      </trkpt>
      <trkpt lat="44.76344" lon="4.58121">
        <ele>525.6</ele>
        <time>2019-10-10T12:59:01.000Z</time>
      </trkpt>
      <trkpt lat="44.76359" lon="4.58124">
        <ele>523.48</ele>
        <time>2019-10-10T12:59:11.000Z</time>
      </trkpt>
      <trkpt lat="44.76372" lon="4.58125">
        <ele>521.8</ele>
        <time>2019-10-10T12:59:21.000Z</time>
      </trkpt>
      <trkpt lat="44.76383" lon="4.58129">
        <ele>520.44</ele>
        <time>2019-10-10T12:59:31.000Z</time>
      </trkpt>
      <trkpt lat="44.76393" lon="4.5814">
        <ele>519.28</ele>
        <time>2019-10-10T12:59:41.000Z</time>
      </trkpt>
      <trkpt lat="44.76406" lon="4.58147">
        <ele>517.99</ele>
        <time>2019-10-10T12:59:51.000Z</time>
      </trkpt>
      <trkpt lat="44.76417" lon="4.58159">
        <ele>516.94</ele>
        <time>2019-10-10T13:00:01.000Z</time>
      </trkpt>
      <trkpt lat="44.76427" lon="4.58171">
        <ele>515.96</ele>
        <time>2019-10-10T13:00:11.000Z</time>
      </trkpt>
      <trkpt lat="44.76435" lon="4.58181">
        <ele>515.24</ele>
        <time>2019-10-10T13:00:21.000Z</time>
      </trkpt>
      <trkpt lat="44.76445" lon="4.58193">
        <ele>514.41</ele>
        <time>2019-10-10T13:00:31.000Z</time>
      </trkpt>
      <trkpt lat="44.76455" lon="4.58204">
        <ele>513.58</ele>
        <time>2019-10-10T13:00:41.000Z</time>
      </trkpt>
      <trkpt lat="44.76464" lon="4.58217">
        <ele>512.93</ele>
        <time>2019-10-10T13:00:51.000Z</time>
      </trkpt>
      <trkpt lat="44.7647" lon="4.58228">
        <ele>512.6</ele>
        <time>2019-10-10T13:01:01.000Z</time>
      </trkpt>
      <trkpt lat="44.76481" lon="4.58228">
        <ele>511.36</ele>
        <time>2019-10-10T13:01:11.000Z</time>
      </trkpt>
      <trkpt lat="44.76498" lon="4.5823">
        <ele>509.76</ele>
        <time>2019-10-10T13:01:21.000Z</time>
      </trkpt>
      <trkpt lat="44.76514" lon="4.58235">
        <ele>508.35</ele>
        <time>2019-10-10T13:01:31.000Z</time>
      </trkpt>
      <trkpt lat="44.76524" lon="4.58242">
        <ele>507.48</ele>
        <time>2019-10-10T13:01:41.000Z</time>
      </trkpt>
      <trkpt lat="44.76535" lon="4.58249">
        <ele>506.54</ele>
        <time>2019-10-10T13:01:51.000Z</time>
      </trkpt>
      <trkpt lat="44.76548" lon="4.58254">
        <ele>505.48</ele>
        <time>2019-10-10T13:02:01.000Z</time>
      </trkpt>
      <trkpt lat="44.76558" lon="4.5826">
        <ele>504.69</ele>
        <time>2019-10-10T13:02:11.000Z</time>
      </trkpt>
      <trkpt lat="44.76571" lon="4.58262">
        <ele>503.71</ele>
        <time>2019-10-10T13:02:21.000Z</time>
      </trkpt>
      <trkpt lat="44.76586" lon="4.58257">
        <ele>502.59</ele>
        <time>2019-10-10T13:02:31.000Z</time>
      </trkpt>
      <trkpt lat="44.76599" lon="4.5826">
        <ele>501.77</ele>
        <time>2019-10-10T13:02:41.000Z</time>
      </trkpt>
      <trkpt lat="44.76614" lon="4.58264">
        <ele>501.02</ele>
        <time>2019-10-10T13:02:51.000Z</time>
      </trkpt>
      <trkpt lat="44.76624" lon="4.58273">
        <ele>500.5</ele>
        <time>2019-10-10T13:03:01.000Z</time>
      </trkpt>
      <trkpt lat="44.76637" lon="4.58282">
        <ele>499.98</ele>
        <time>2019-10-10T13:03:11.000Z</time>
      </trkpt>
      <trkpt lat="44.76647" lon="4.58286">
        <ele>499.48</ele>
        <time>2019-10-10T13:03:21.000Z</time>
      </trkpt>
      <trkpt lat="44.76661" lon="4.58292">
        <ele>498.5</ele>
        <time>2019-10-10T13:03:31.000Z</time>
      </trkpt>
      <trkpt lat="44.76676" lon="4.58294">
        <ele>496.7</ele>
        <time>2019-10-10T13:03:41.000Z</time>
      </trkpt>
      <trkpt lat="44.7669" lon="4.58296">
        <ele>494.66</ele>
        <time>2019-10-10T13:03:51.000Z</time>
      </trkpt>
      <trkpt lat="44.76706" lon="4.58296">
        <ele>491.75</ele>
        <time>2019-10-10T13:04:01.000Z</time>
      </trkpt>
      <trkpt lat="44.7672" lon="4.58299">
        <ele>489.11</ele>
        <time>2019-10-10T13:04:11.000Z</time>
      </trkpt>
      <trkpt lat="44.76731" lon="4.58309">
        <ele>487.28</ele>
        <time>2019-10-10T13:04:21.000Z</time>
      </trkpt>
      <trkpt lat="44.76738" lon="4.58318">
        <ele>486.24</ele>
        <time>2019-10-10T13:04:31.000Z</time>
      </trkpt>
      <trkpt lat="44.76741" lon="4.58334">
        <ele>486.18</ele>
        <time>2019-10-10T13:04:41.000Z</time>
      </trkpt>
      <trkpt lat="44.76742" lon="4.5835">
        <ele>487.14</ele>
        <time>2019-10-10T13:04:51.000Z</time>
      </trkpt>
      <trkpt lat="44.76746" lon="4.58362">
        <ele>487.66</ele>
        <time>2019-10-10T13:05:01.000Z</time>
      </trkpt>
      <trkpt lat="44.7675" lon="4.58376">
        <ele>488.66</ele>
        <time>2019-10-10T13:05:11.000Z</time>
      </trkpt>
      <trkpt lat="44.76755" lon="4.58385">
        <ele>488.74</ele>
        <time>2019-10-10T13:05:21.000Z</time>
      </trkpt>
      <trkpt lat="44.76765" lon="4.58394">
        <ele>487.98</ele>
        <time>2019-10-10T13:05:31.000Z</time>
      </trkpt>
      <trkpt lat="44.76774" lon="4.58409">
        <ele>487.69</ele>
        <time>2019-10-10T13:05:41.000Z</time>
      </trkpt>
      <trkpt lat="44.76783" lon="4.58423">
        <ele>486.68</ele>
        <time>2019-10-10T13:05:51.000Z</time>
      </trkpt>
      <trkpt lat="44.76794" lon="4.58435">
        <ele>485.18</ele>
        <time>2019-10-10T13:06:01.000Z</time>
      </trkpt>
      <trkpt lat="44.76804" lon="4.58448">
        <ele>483.84</ele>
        <time>2019-10-10T13:06:11.000Z</time>
      </trkpt>
      <trkpt lat="44.76812" lon="4.58464">
        <ele>483.04</ele>
        <time>2019-10-10T13:06:21.000Z</time>
      </trkpt>
      <trkpt lat="44.76821" lon="4.58471">
        <ele>481.57</ele>
        <time>2019-10-10T13:06:31.000Z</time>
      </trkpt>
      <trkpt lat="44.76831" lon="4.58481">
        <ele>480.35</ele>
        <time>2019-10-10T13:06:41.000Z</time>
      </trkpt>
      <trkpt lat="44.76841" lon="4.58493">
        <ele>479.58</ele>
        <time>2019-10-10T13:06:51.000Z</time>
      </trkpt>
      <trkpt lat="44.76852" lon="4.58502">
        <ele>478.75</ele>
        <time>2019-10-10T13:07:01.000Z</time>
      </trkpt>
      <trkpt lat="44.76865" lon="4.58507">
        <ele>477.84</ele>
        <time>2019-10-10T13:07:11.000Z</time>
      </trkpt>
      <trkpt lat="44.76876" lon="4.58518">
        <ele>477.22</ele>
        <time>2019-10-10T13:07:21.000Z</time>
      </trkpt>
      <trkpt lat="44.76886" lon="4.58528">
        <ele>476.53</ele>
        <time>2019-10-10T13:07:31.000Z</time>
      </trkpt>
      <trkpt lat="44.7689" lon="4.58547">
        <ele>475.96</ele>
        <time>2019-10-10T13:07:41.000Z</time>
      </trkpt>
      <trkpt lat="44.7689" lon="4.58563">
        <ele>475.88</ele>
        <time>2019-10-10T13:07:51.000Z</time>
      </trkpt>
      <trkpt lat="44.76893" lon="4.58575">
        <ele>475.58</ele>
        <time>2019-10-10T13:08:01.000Z</time>
      </trkpt>
      <trkpt lat="44.76896" lon="4.58591">
        <ele>475.38</ele>
        <time>2019-10-10T13:08:11.000Z</time>
      </trkpt>
      <trkpt lat="44.76906" lon="4.586">
        <ele>474.24</ele>
        <time>2019-10-10T13:08:21.000Z</time>
      </trkpt>
      <trkpt lat="44.76915" lon="4.58604">
        <ele>473.34</ele>
        <time>2019-10-10T13:08:31.000Z</time>
      </trkpt>
      <trkpt lat="44.76931" lon="4.58603">
        <ele>471.89</ele>
        <time>2019-10-10T13:08:41.000Z</time>
      </trkpt>
      <trkpt lat="44.76937" lon="4.58604">
        <ele>471.57</ele>
        <time>2019-10-10T13:08:59.000Z</time>
      </trkpt>
      <trkpt lat="44.76942" lon="4.586">
        <ele>471.42</ele>
        <time>2019-10-10T13:09:12.000Z</time>
      </trkpt>
      <trkpt lat="44.76947" lon="4.58588">
        <ele>471.78</ele>
        <time>2019-10-10T13:09:22.000Z</time>
      </trkpt>
      <trkpt lat="44.76946" lon="4.58578">
        <ele>472.49</ele>
        <time>2019-10-10T13:09:32.000Z</time>
      </trkpt>
      <trkpt lat="44.76946" lon="4.5857">
        <ele>473.2</ele>
        <time>2019-10-10T13:09:42.000Z</time>
      </trkpt>
      <trkpt lat="44.76945" lon="4.58561">
        <ele>474.03</ele>
        <time>2019-10-10T13:09:55.000Z</time>
      </trkpt>
      <trkpt lat="44.76942" lon="4.58551">
        <ele>475.06</ele>
        <time>2019-10-10T13:10:05.000Z</time>
      </trkpt>
      <trkpt lat="44.7694" lon="4.58541">
        <ele>476.1</ele>
        <time>2019-10-10T13:10:15.000Z</time>
      </trkpt>
      <trkpt lat="44.76938" lon="4.58531">
        <ele>477.13</ele>
        <time>2019-10-10T13:10:25.000Z</time>
      </trkpt>
      <trkpt lat="44.76933" lon="4.58521">
        <ele>478.04</ele>
        <time>2019-10-10T13:10:35.000Z</time>
      </trkpt>
      <trkpt lat="44.7693" lon="4.58513">
        <ele>478.62</ele>
        <time>2019-10-10T13:10:51.000Z</time>
      </trkpt>
      <trkpt lat="44.76922" lon="4.58508">
        <ele>478.51</ele>
        <time>2019-10-10T13:11:01.000Z</time>
      </trkpt>
      <trkpt lat="44.76911" lon="4.58498">
        <ele>478.87</ele>
        <time>2019-10-10T13:11:11.000Z</time>
      </trkpt>
      <trkpt lat="44.76903" lon="4.58487">
        <ele>479.54</ele>
        <time>2019-10-10T13:11:21.000Z</time>
      </trkpt>
      <trkpt lat="44.76894" lon="4.58477">
        <ele>479.87</ele>
        <time>2019-10-10T13:11:31.000Z</time>
      </trkpt>
      <trkpt lat="44.76885" lon="4.58462">
        <ele>480.64</ele>
        <time>2019-10-10T13:11:41.000Z</time>
      </trkpt>
      <trkpt lat="44.76874" lon="4.58455">
        <ele>480.1</ele>
        <time>2019-10-10T13:11:51.000Z</time>
      </trkpt>
      <trkpt lat="44.76862" lon="4.58447">
        <ele>479.54</ele>
        <time>2019-10-10T13:12:01.000Z</time>
      </trkpt>
      <trkpt lat="44.76854" lon="4.58434">
        <ele>479.51</ele>
        <time>2019-10-10T13:12:11.000Z</time>
      </trkpt>
      <trkpt lat="44.76846" lon="4.58422">
        <ele>479.32</ele>
        <time>2019-10-10T13:12:21.000Z</time>
      </trkpt>
      <trkpt lat="44.76839" lon="4.58413">
        <ele>479.14</ele>
        <time>2019-10-10T13:12:31.000Z</time>
      </trkpt>
      <trkpt lat="44.76832" lon="4.58402">
        <ele>479.18</ele>
        <time>2019-10-10T13:12:41.000Z</time>
      </trkpt>
      <trkpt lat="44.76824" lon="4.58391">
        <ele>479.39</ele>
        <time>2019-10-10T13:12:51.000Z</time>
      </trkpt>
      <trkpt lat="44.76818" lon="4.58374">
        <ele>479.69</ele>
        <time>2019-10-10T13:13:01.000Z</time>
      </trkpt>
      <trkpt lat="44.7681" lon="4.58359">
        <ele>479.97</ele>
        <time>2019-10-10T13:13:11.000Z</time>
      </trkpt>
      <trkpt lat="44.76803" lon="4.58345">
        <ele>480.26</ele>
        <time>2019-10-10T13:13:21.000Z</time>
      </trkpt>
      <trkpt lat="44.76805" lon="4.58331">
        <ele>480.43</ele>
        <time>2019-10-10T13:13:31.000Z</time>
      </trkpt>
      <trkpt lat="44.76808" lon="4.58317">
        <ele>480.9</ele>
        <time>2019-10-10T13:13:41.000Z</time>
      </trkpt>
      <trkpt lat="44.76809" lon="4.58299">
        <ele>481.8</ele>
        <time>2019-10-10T13:13:51.000Z</time>
      </trkpt>
      <trkpt lat="44.76809" lon="4.58285">
        <ele>482.6</ele>
        <time>2019-10-10T13:14:01.000Z</time>
      </trkpt>
      <trkpt lat="44.7681" lon="4.58276">
        <ele>483.23</ele>
        <time>2019-10-10T13:14:25.000Z</time>
      </trkpt>
      <trkpt lat="44.76807" lon="4.58263">
        <ele>484.11</ele>
        <time>2019-10-10T13:14:35.000Z</time>
      </trkpt>
      <trkpt lat="44.76805" lon="4.58256">
        <ele>484.64</ele>
        <time>2019-10-10T13:15:06.000Z</time>
      </trkpt>
      <trkpt lat="44.76808" lon="4.58262">
        <ele>484.17</ele>
        <time>2019-10-10T13:15:25.000Z</time>
      </trkpt>
      <trkpt lat="44.7681" lon="4.58277">
        <ele>483.15</ele>
        <time>2019-10-10T13:15:35.000Z</time>
      </trkpt>
      <trkpt lat="44.76808" lon="4.58293">
        <ele>482.13</ele>
        <time>2019-10-10T13:15:45.000Z</time>
      </trkpt>
      <trkpt lat="44.76806" lon="4.58304">
        <ele>481.46</ele>
        <time>2019-10-10T13:15:55.000Z</time>
      </trkpt>
      <trkpt lat="44.76807" lon="4.58316">
        <ele>480.92</ele>
        <time>2019-10-10T13:16:05.000Z</time>
      </trkpt>
      <trkpt lat="44.76808" lon="4.5833">
        <ele>480.45</ele>
        <time>2019-10-10T13:16:15.000Z</time>
      </trkpt>
      <trkpt lat="44.76816" lon="4.58343">
        <ele>480.22</ele>
        <time>2019-10-10T13:16:25.000Z</time>
      </trkpt>
      <trkpt lat="44.7682" lon="4.58357">
        <ele>480</ele>
        <time>2019-10-10T13:16:35.000Z</time>
      </trkpt>
      <trkpt lat="44.76825" lon="4.58373">
        <ele>479.71</ele>
        <time>2019-10-10T13:16:45.000Z</time>
      </trkpt>
      <trkpt lat="44.7683" lon="4.58388">
        <ele>479.46</ele>
        <time>2019-10-10T13:16:55.000Z</time>
      </trkpt>
      <trkpt lat="44.76839" lon="4.58397">
        <ele>479.58</ele>
        <time>2019-10-10T13:17:05.000Z</time>
      </trkpt>
      <trkpt lat="44.76853" lon="4.58404">
        <ele>480.75</ele>
        <time>2019-10-10T13:17:15.000Z</time>
      </trkpt>
      <trkpt lat="44.76865" lon="4.58411">
        <ele>482.17</ele>
        <time>2019-10-10T13:17:25.000Z</time>
      </trkpt>
      <trkpt lat="44.76875" lon="4.58413">
        <ele>484.05</ele>
        <time>2019-10-10T13:17:35.000Z</time>
      </trkpt>
      <trkpt lat="44.76868" lon="4.58405">
        <ele>483.38</ele>
        <time>2019-10-10T13:17:45.000Z</time>
      </trkpt>
      <trkpt lat="44.76867" lon="4.58394">
        <ele>484.05</ele>
        <time>2019-10-10T13:17:55.000Z</time>
      </trkpt>
      <trkpt lat="44.76865" lon="4.58382">
        <ele>484.86</ele>
        <time>2019-10-10T13:18:05.000Z</time>
      </trkpt>
      <trkpt lat="44.76867" lon="4.58368">
        <ele>486.99</ele>
        <time>2019-10-10T13:18:15.000Z</time>
      </trkpt>
      <trkpt lat="44.7687" lon="4.58356">
        <ele>489.1</ele>
        <time>2019-10-10T13:18:25.000Z</time>
      </trkpt>
      <trkpt lat="44.76869" lon="4.58339">
        <ele>490.49</ele>
        <time>2019-10-10T13:18:35.000Z</time>
      </trkpt>
      <trkpt lat="44.76872" lon="4.58325">
        <ele>492.75</ele>
        <time>2019-10-10T13:18:45.000Z</time>
      </trkpt>
      <trkpt lat="44.76875" lon="4.58311">
        <ele>494.73</ele>
        <time>2019-10-10T13:18:55.000Z</time>
      </trkpt>
      <trkpt lat="44.76881" lon="4.58317">
        <ele>496.44</ele>
        <time>2019-10-10T13:19:05.000Z</time>
      </trkpt>
      <trkpt lat="44.76881" lon="4.58333">
        <ele>495.17</ele>
        <time>2019-10-10T13:19:15.000Z</time>
      </trkpt>
      <trkpt lat="44.76884" lon="4.58348">
        <ele>494.46</ele>
        <time>2019-10-10T13:19:25.000Z</time>
      </trkpt>
      <trkpt lat="44.76892" lon="4.58362">
        <ele>495.41</ele>
        <time>2019-10-10T13:19:35.000Z</time>
      </trkpt>
      <trkpt lat="44.76899" lon="4.58369">
        <ele>496.57</ele>
        <time>2019-10-10T13:19:45.000Z</time>
      </trkpt>
      <trkpt lat="44.76911" lon="4.5838">
        <ele>498.39</ele>
        <time>2019-10-10T13:19:55.000Z</time>
      </trkpt>
      <trkpt lat="44.76917" lon="4.58388">
        <ele>498.39</ele>
        <time>2019-10-10T13:20:05.000Z</time>
      </trkpt>
      <trkpt lat="44.76925" lon="4.58396">
        <ele>499.08</ele>
        <time>2019-10-10T13:20:15.000Z</time>
      </trkpt>
      <trkpt lat="44.76935" lon="4.58405">
        <ele>500.48</ele>
        <time>2019-10-10T13:20:25.000Z</time>
      </trkpt>
      <trkpt lat="44.76945" lon="4.58417">
        <ele>501.2</ele>
        <time>2019-10-10T13:20:35.000Z</time>
      </trkpt>
      <trkpt lat="44.76956" lon="4.58428">
        <ele>502.12</ele>
        <time>2019-10-10T13:20:45.000Z</time>
      </trkpt>
      <trkpt lat="44.76965" lon="4.58436">
        <ele>503.14</ele>
        <time>2019-10-10T13:20:55.000Z</time>
      </trkpt>
      <trkpt lat="44.76973" lon="4.58447">
        <ele>502.34</ele>
        <time>2019-10-10T13:21:05.000Z</time>
      </trkpt>
      <trkpt lat="44.76981" lon="4.58448">
        <ele>504.25</ele>
        <time>2019-10-10T13:21:15.000Z</time>
      </trkpt>
      <trkpt lat="44.76977" lon="4.58441">
        <ele>505.17</ele>
        <time>2019-10-10T13:22:03.000Z</time>
      </trkpt>
      <trkpt lat="44.76971" lon="4.58426">
        <ele>507.34</ele>
        <time>2019-10-10T13:22:13.000Z</time>
      </trkpt>
      <trkpt lat="44.76967" lon="4.58409">
        <ele>510.25</ele>
        <time>2019-10-10T13:22:23.000Z</time>
      </trkpt>
      <trkpt lat="44.76963" lon="4.5839">
        <ele>513.76</ele>
        <time>2019-10-10T13:22:33.000Z</time>
      </trkpt>
      <trkpt lat="44.76958" lon="4.58372">
        <ele>516.11</ele>
        <time>2019-10-10T13:22:43.000Z</time>
      </trkpt>
      <trkpt lat="44.76954" lon="4.58356">
        <ele>518.28</ele>
        <time>2019-10-10T13:22:53.000Z</time>
      </trkpt>
      <trkpt lat="44.7695" lon="4.58339">
        <ele>520.19</ele>
        <time>2019-10-10T13:23:03.000Z</time>
      </trkpt>
      <trkpt lat="44.76948" lon="4.5832">
        <ele>522.25</ele>
        <time>2019-10-10T13:23:13.000Z</time>
      </trkpt>
      <trkpt lat="44.76947" lon="4.58303">
        <ele>524.57</ele>
        <time>2019-10-10T13:23:23.000Z</time>
      </trkpt>
      <trkpt lat="44.76949" lon="4.58287">
        <ele>527.56</ele>
        <time>2019-10-10T13:23:33.000Z</time>
      </trkpt>
      <trkpt lat="44.76951" lon="4.58271">
        <ele>530.27</ele>
        <time>2019-10-10T13:23:43.000Z</time>
      </trkpt>
      <trkpt lat="44.76951" lon="4.58255">
        <ele>531.63</ele>
        <time>2019-10-10T13:23:53.000Z</time>
      </trkpt>
      <trkpt lat="44.76953" lon="4.58236">
        <ele>534.58</ele>
        <time>2019-10-10T13:24:03.000Z</time>
      </trkpt>
      <trkpt lat="44.76955" lon="4.58218">
        <ele>537.05</ele>
        <time>2019-10-10T13:24:13.000Z</time>
      </trkpt>
      <trkpt lat="44.76959" lon="4.58202">
        <ele>540.03</ele>
        <time>2019-10-10T13:24:23.000Z</time>
      </trkpt>
      <trkpt lat="44.76963" lon="4.58186">
        <ele>543.12</ele>
        <time>2019-10-10T13:24:33.000Z</time>
      </trkpt>
      <trkpt lat="44.76967" lon="4.5817">
        <ele>545.4</ele>
        <time>2019-10-10T13:24:43.000Z</time>
      </trkpt>
      <trkpt lat="44.76972" lon="4.58156">
        <ele>548.33</ele>
        <time>2019-10-10T13:24:53.000Z</time>
      </trkpt>
      <trkpt lat="44.76977" lon="4.58137">
        <ele>549.91</ele>
        <time>2019-10-10T13:25:03.000Z</time>
      </trkpt>
      <trkpt lat="44.76983" lon="4.58121">
        <ele>551.85</ele>
        <time>2019-10-10T13:25:13.000Z</time>
      </trkpt>
      <trkpt lat="44.7699" lon="4.58105">
        <ele>553.26</ele>
        <time>2019-10-10T13:25:23.000Z</time>
      </trkpt>
      <trkpt lat="44.76997" lon="4.58091">
        <ele>553.91</ele>
        <time>2019-10-10T13:25:33.000Z</time>
      </trkpt>
      <trkpt lat="44.77" lon="4.58082">
        <ele>553.87</ele>
        <time>2019-10-10T13:25:43.000Z</time>
      </trkpt>
      <trkpt lat="44.77006" lon="4.58074">
        <ele>554.31</ele>
        <time>2019-10-10T13:25:53.000Z</time>
      </trkpt>
      <trkpt lat="44.77015" lon="4.58067">
        <ele>555.74</ele>
        <time>2019-10-10T13:26:03.000Z</time>
      </trkpt>
      <trkpt lat="44.77024" lon="4.58059">
        <ele>556.9</ele>
        <time>2019-10-10T13:26:13.000Z</time>
      </trkpt>
      <trkpt lat="44.77034" lon="4.5805">
        <ele>558.38</ele>
        <time>2019-10-10T13:26:23.000Z</time>
      </trkpt>
      <trkpt lat="44.77037" lon="4.58043">
        <ele>557.87</ele>
        <time>2019-10-10T13:26:33.000Z</time>
      </trkpt>
      <trkpt lat="44.77045" lon="4.5803">
        <ele>558.12</ele>
        <time>2019-10-10T13:26:43.000Z</time>
      </trkpt>
      <trkpt lat="44.77052" lon="4.58014">
        <ele>558.19</ele>
        <time>2019-10-10T13:26:53.000Z</time>
      </trkpt>
      <trkpt lat="44.77059" lon="4.57996">
        <ele>558.79</ele>
        <time>2019-10-10T13:27:03.000Z</time>
      </trkpt>
      <trkpt lat="44.77064" lon="4.57979">
        <ele>559.31</ele>
        <time>2019-10-10T13:27:13.000Z</time>
      </trkpt>
      <trkpt lat="44.77069" lon="4.57966">
        <ele>560.33</ele>
        <time>2019-10-10T13:27:23.000Z</time>
      </trkpt>
      <trkpt lat="44.77072" lon="4.57952">
        <ele>560.04</ele>
        <time>2019-10-10T13:27:33.000Z</time>
      </trkpt>
      <trkpt lat="44.77077" lon="4.57936">
        <ele>560.6</ele>
        <time>2019-10-10T13:27:43.000Z</time>
      </trkpt>
      <trkpt lat="44.77083" lon="4.5792">
        <ele>561.21</ele>
        <time>2019-10-10T13:27:53.000Z</time>
      </trkpt>
      <trkpt lat="44.7709" lon="4.579">
        <ele>561.56</ele>
        <time>2019-10-10T13:28:03.000Z</time>
      </trkpt>
      <trkpt lat="44.77095" lon="4.57882">
        <ele>561.93</ele>
        <time>2019-10-10T13:28:13.000Z</time>
      </trkpt>
      <trkpt lat="44.77101" lon="4.57866">
        <ele>562.21</ele>
        <time>2019-10-10T13:28:23.000Z</time>
      </trkpt>
      <trkpt lat="44.77105" lon="4.5785">
        <ele>562.3</ele>
        <time>2019-10-10T13:28:33.000Z</time>
      </trkpt>
      <trkpt lat="44.77111" lon="4.57834">
        <ele>562.85</ele>
        <time>2019-10-10T13:28:43.000Z</time>
      </trkpt>
      <trkpt lat="44.77111" lon="4.57826">
        <ele>562.75</ele>
        <time>2019-10-10T13:28:54.000Z</time>
      </trkpt>
      <trkpt lat="44.77115" lon="4.5782">
        <ele>563.19</ele>
        <time>2019-10-10T13:29:06.000Z</time>
      </trkpt>
      <trkpt lat="44.7712" lon="4.57806">
        <ele>563.85</ele>
        <time>2019-10-10T13:29:16.000Z</time>
      </trkpt>
      <trkpt lat="44.77124" lon="4.57792">
        <ele>564.32</ele>
        <time>2019-10-10T13:29:26.000Z</time>
      </trkpt>
      <trkpt lat="44.77129" lon="4.5778">
        <ele>564.87</ele>
        <time>2019-10-10T13:29:36.000Z</time>
      </trkpt>
      <trkpt lat="44.77135" lon="4.57767">
        <ele>565.58</ele>
        <time>2019-10-10T13:29:46.000Z</time>
      </trkpt>
      <trkpt lat="44.77143" lon="4.57757">
        <ele>566.65</ele>
        <time>2019-10-10T13:29:56.000Z</time>
      </trkpt>
      <trkpt lat="44.77154" lon="4.57755">
        <ele>567.94</ele>
        <time>2019-10-10T13:30:06.000Z</time>
      </trkpt>
      <trkpt lat="44.77164" lon="4.57756">
        <ele>568.93</ele>
        <time>2019-10-10T13:30:16.000Z</time>
      </trkpt>
      <trkpt lat="44.77174" lon="4.57756">
        <ele>569.65</ele>
        <time>2019-10-10T13:30:26.000Z</time>
      </trkpt>
      <trkpt lat="44.77186" lon="4.57756">
        <ele>570.59</ele>
        <time>2019-10-10T13:30:36.000Z</time>
      </trkpt>
      <trkpt lat="44.77197" lon="4.57756">
        <ele>571.33</ele>
        <time>2019-10-10T13:30:46.000Z</time>
      </trkpt>
      <trkpt lat="44.77207" lon="4.57749">
        <ele>571.9</ele>
        <time>2019-10-10T13:30:56.000Z</time>
      </trkpt>
      <trkpt lat="44.77216" lon="4.57738">
        <ele>572.48</ele>
        <time>2019-10-10T13:31:06.000Z</time>
      </trkpt>
      <trkpt lat="44.77225" lon="4.57728">
        <ele>573.18</ele>
        <time>2019-10-10T13:31:16.000Z</time>
      </trkpt>
      <trkpt lat="44.77234" lon="4.57718">
        <ele>573.88</ele>
        <time>2019-10-10T13:31:26.000Z</time>
      </trkpt>
      <trkpt lat="44.77236" lon="4.57703">
        <ele>574.58</ele>
        <time>2019-10-10T13:31:36.000Z</time>
      </trkpt>
      <trkpt lat="44.77235" lon="4.57686">
        <ele>575.24</ele>
        <time>2019-10-10T13:31:46.000Z</time>
      </trkpt>
      <trkpt lat="44.77232" lon="4.57668">
        <ele>575.9</ele>
        <time>2019-10-10T13:31:56.000Z</time>
      </trkpt>
      <trkpt lat="44.77232" lon="4.57651">
        <ele>576.72</ele>
        <time>2019-10-10T13:32:06.000Z</time>
      </trkpt>
      <trkpt lat="44.7723" lon="4.57632">
        <ele>577.55</ele>
        <time>2019-10-10T13:32:16.000Z</time>
      </trkpt>
      <trkpt lat="44.77229" lon="4.57614">
        <ele>578.59</ele>
        <time>2019-10-10T13:32:26.000Z</time>
      </trkpt>
      <trkpt lat="44.77227" lon="4.57598">
        <ele>579.32</ele>
        <time>2019-10-10T13:32:36.000Z</time>
      </trkpt>
      <trkpt lat="44.77225" lon="4.5758">
        <ele>580.3</ele>
        <time>2019-10-10T13:32:46.000Z</time>
      </trkpt>
      <trkpt lat="44.77223" lon="4.57562">
        <ele>581.19</ele>
        <time>2019-10-10T13:32:56.000Z</time>
      </trkpt>
      <trkpt lat="44.7722" lon="4.57546">
        <ele>582.02</ele>
        <time>2019-10-10T13:33:06.000Z</time>
      </trkpt>
      <trkpt lat="44.77219" lon="4.57528">
        <ele>583.15</ele>
        <time>2019-10-10T13:33:16.000Z</time>
      </trkpt>
      <trkpt lat="44.77214" lon="4.5751">
        <ele>584.03</ele>
        <time>2019-10-10T13:33:26.000Z</time>
      </trkpt>
      <trkpt lat="44.77211" lon="4.57492">
        <ele>585.12</ele>
        <time>2019-10-10T13:33:36.000Z</time>
      </trkpt>
      <trkpt lat="44.77204" lon="4.57475">
        <ele>585.83</ele>
        <time>2019-10-10T13:33:46.000Z</time>
      </trkpt>
      <trkpt lat="44.77198" lon="4.57461">
        <ele>586.29</ele>
        <time>2019-10-10T13:33:56.000Z</time>
      </trkpt>
      <trkpt lat="44.77189" lon="4.57446">
        <ele>586.61</ele>
        <time>2019-10-10T13:34:06.000Z</time>
      </trkpt>
      <trkpt lat="44.77181" lon="4.57432">
        <ele>587.06</ele>
        <time>2019-10-10T13:34:16.000Z</time>
      </trkpt>
      <trkpt lat="44.77169" lon="4.57423">
        <ele>586.56</ele>
        <time>2019-10-10T13:34:26.000Z</time>
      </trkpt>
      <trkpt lat="44.77159" lon="4.57415">
        <ele>586.42</ele>
        <time>2019-10-10T13:34:36.000Z</time>
      </trkpt>
      <trkpt lat="44.77145" lon="4.57406">
        <ele>585.92</ele>
        <time>2019-10-10T13:34:46.000Z</time>
      </trkpt>
      <trkpt lat="44.77133" lon="4.57399">
        <ele>585.45</ele>
        <time>2019-10-10T13:34:56.000Z</time>
      </trkpt>
      <trkpt lat="44.77123" lon="4.57389">
        <ele>585.63</ele>
        <time>2019-10-10T13:35:06.000Z</time>
      </trkpt>
      <trkpt lat="44.77114" lon="4.57378">
        <ele>586.11</ele>
        <time>2019-10-10T13:35:16.000Z</time>
      </trkpt>
      <trkpt lat="44.77106" lon="4.57364">
        <ele>586.95</ele>
        <time>2019-10-10T13:35:26.000Z</time>
      </trkpt>
      <trkpt lat="44.77098" lon="4.57347">
        <ele>588.01</ele>
        <time>2019-10-10T13:35:36.000Z</time>
      </trkpt>
      <trkpt lat="44.77092" lon="4.57329">
        <ele>588.84</ele>
        <time>2019-10-10T13:35:46.000Z</time>
      </trkpt>
      <trkpt lat="44.77089" lon="4.57311">
        <ele>589.39</ele>
        <time>2019-10-10T13:35:56.000Z</time>
      </trkpt>
      <trkpt lat="44.77088" lon="4.57294">
        <ele>589.9</ele>
        <time>2019-10-10T13:36:06.000Z</time>
      </trkpt>
      <trkpt lat="44.77086" lon="4.57274">
        <ele>590.27</ele>
        <time>2019-10-10T13:36:16.000Z</time>
      </trkpt>
      <trkpt lat="44.77086" lon="4.57258">
        <ele>590.8</ele>
        <time>2019-10-10T13:36:26.000Z</time>
      </trkpt>
      <trkpt lat="44.77083" lon="4.57241">
        <ele>591.54</ele>
        <time>2019-10-10T13:36:36.000Z</time>
      </trkpt>
      <trkpt lat="44.7708" lon="4.57224">
        <ele>592.42</ele>
        <time>2019-10-10T13:36:46.000Z</time>
      </trkpt>
      <trkpt lat="44.77072" lon="4.57211">
        <ele>592.71</ele>
        <time>2019-10-10T13:36:56.000Z</time>
      </trkpt>
      <trkpt lat="44.77062" lon="4.57203">
        <ele>592.76</ele>
        <time>2019-10-10T13:37:06.000Z</time>
      </trkpt>
      <trkpt lat="44.77058" lon="4.57195">
        <ele>593.16</ele>
        <time>2019-10-10T13:37:39.000Z</time>
      </trkpt>
      <trkpt lat="44.77057" lon="4.57195">
        <ele>593.09</ele>
        <time>2019-10-10T13:38:18.000Z</time>
      </trkpt>
    </trkseg>
  </trk>
</gpx>